[[{"header":{"parameterUnit":"m.s-1","parameterCategory":1,"la1":30.6,"la2":28.766,"lo1":-90.7593,"lo2":-88.6598,"dy":0.0162,"dx":0.0183,"nx":116,"ny":114,"refTime":"2023-04-05T06:00:00:Z","depth":0,"parameterNumber":2,"parameterNumberName":"U-component_of_WINDS"},"data":[0.0,0.0,0.0,0.0,0.0,0.0,0.0,0.0,0.0,0.0,0.0,0.0,0.0,0.0,0.0,0.0,0.0,0.0,0.0,0.0,0.0,0.0,0.0,0.0,0.0,0.0,0.0,0.0,0.0,0.0,0.0,0.0,0.0,0.0,0.0,0.0,0.0,0.0,0.0,0.0,0.0,0.0,0.0,0.0,0.0,0.0,0.0,0.0,0.0,0.0,0.0,0.0,0.0,0.0,0.0,0.0,0.0,0.0,0.0,0.0,0.0,0.0,0.0,0.0,0.0,0.0,0.0,0.0,0.0,0.0,0.0,0.0,0.0,0.0,0.0,0.0,0.0,0.0,0.0,0.0,0.0,0.0,0.0,0.0,0.0,0.0,0.0,0.0,0.0,0.0,0.0,0.0,0.0,0.0,0.0,0.0,0.0,0.0,0.0,0.0,0.0,0.0,0.0,0.0,0.0,0.0,0.0,0.0,0.0,0.0,0.0,0.0,0.0,0.0,0.0,0.0,0.0,0.0,0.0,0.0,0.0,0.0,0.0,0.0,0.0,0.0,0.0,0.0,0.0,0.0,0.0,0.0,0.0,0.0,0.0,0.0,0.0,0.0,0.0,0.0,0.0,0.0,0.0,0.0,0.0,0.0,0.0,0.0,0.0,0.0,0.0,0.0,0.0,0.0,0.0,0.0,0.0,0.0,0.0,0.0,0.0,0.0,0.0,0.0,0.0,0.0,0.0,0.0,0.0,0.0,0.0,0.0,0.0,0.0,0.0,0.0,0.0,0.0,0.0,0.0,0.0,0.0,0.0,0.0,0.0,0.0,0.0,0.0,0.0,0.0,0.0,0.0,0.0,0.0,0.0,0.0,0.0,0.0,0.0,0.0,0.0,0.0,0.0,0.0,0.0,0.0,0.0,0.0,0.0,0.0,0.0,0.0,0.0,0.0,0.0,0.0,0.0,0.0,0.0,0.0,0.0,0.0,0.0,0.0,0.0,0.0,0.0,0.0,0.0,0.0,0.0,0.0,0.0,0.0,0.0,0.0,0.0,0.0,0.0,0.0,0.0,0.0,0.0,0.0,0.0,0.0,0.0,0.0,0.0,0.0,0.0,0.0,0.0,0.0,0.0,0.0,0.0,0.0,0.0,0.0,0.0,0.0,0.0,0.0,0.0,0.0,0.0,0.0,0.0,0.0,0.0,0.0,0.0,0.0,0.0,0.0,0.0,0.0,0.0,0.0,0.0,0.0,0.0,0.0,0.0,0.0,0.0,0.0,0.0,0.0,0.0,0.0,0.0,0.0,0.0,0.0,0.0,0.0,0.0,0.0,0.0,0.0,0.0,0.0,0.0,0.0,0.0,0.0,0.0,0.0,0.0,0.0,0.0,0.0,0.0,0.0,0.0,0.0,0.0,0.0,0.0,0.0,0.0,0.0,0.0,0.0,0.0,0.0,0.0,0.0,0.0,0.0,0.0,0.0,0.0,0.0,0.0,0.0,0.0,0.0,0.0,0.0,0.0,0.0,0.0,0.0,0.0,0.0,0.0,0.0,0.0,0.0,0.0,0.0,0.0,0.0,0.0,0.0,0.0,0.0,0.0,0.0,0.0,0.0,0.0,0.0,0.0,0.0,0.0,0.0,0.0,0.0,0.0,0.0,0.0,0.0,0.0,0.0,0.0,0.0,0.0,0.0,0.0,0.0,0.0,0.0,0.0,0.0,0.0,0.0,0.0,0.0,0.0,0.0,0.0,0.0,0.0,0.0,0.0,0.0,0.0,0.0,0.0,0.0,0.0,0.0,0.0,0.0,0.0,0.0,0.0,0.0,0.0,0.0,0.0,0.0,0.0,0.0,0.0,0.0,0.0,0.0,0.0,0.0,0.0,0.0,0.0,0.0,0.0,0.0,0.0,0.0,0.0,0.0,0.0,0.0,0.0,0.0,0.0,0.0,0.0,0.0,0.0,0.0,0.0,0.0,0.0,0.0,0.0,0.0,0.0,0.0,0.0,0.0,0.0,0.0,0.0,0.0,0.0,0.0,0.0,0.0,0.0,0.0,0.0,0.0,0.0,0.0,0.0,0.0,0.0,0.0,0.0,0.0,0.0,0.0,0.0,0.0,0.0,0.0,0.0,0.0,0.0,0.0,0.0,0.0,0.0,0.0,0.0,0.0,0.0,0.0,0.0,0.0,0.0,0.0,0.0,0.0,0.0,0.0,0.0,0.0,0.0,0.0,0.0,0.0,0.0,0.0,0.0,0.0,0.0,0.0,0.0,0.0,0.0,0.0,0.0,0.0,0.0,0.0,0.0,0.0,0.0,0.0,0.0,0.0,0.0,0.0,0.0,0.0,0.0,0.0,0.0,0.0,0.0,0.0,0.0,0.0,0.0,0.0,0.0,0.0,0.0,0.0,0.0,0.0,0.0,0.0,0.0,0.0,0.0,0.0,0.0,0.0,0.0,0.0,0.0,0.0,0.0,0.0,0.0,0.0,0.0,0.0,0.0,0.0,0.0,0.0,0.0,0.0,0.0,0.0,0.0,0.0,0.0,0.0,0.0,0.0,0.0,0.0,0.0,0.0,0.0,0.0,0.0,0.0,0.0,0.0,0.0,0.0,0.0,0.0,0.0,0.0,0.0,0.0,0.0,0.0,0.0,0.0,0.0,0.0,0.0,0.0,0.0,0.0,0.0,0.0,0.0,0.0,0.0,0.0,0.0,0.0,0.0,0.0,0.0,0.0,0.0,0.0,0.0,0.0,0.0,0.0,0.0,0.0,0.0,0.0,0.0,0.0,0.0,0.0,0.0,0.0,0.0,0.0,0.0,0.0,0.0,0.0,0.0,0.0,0.0,0.0,0.0,0.0,0.0,0.0,0.0,0.0,0.0,0.0,0.0,0.0,0.0,0.0,0.0,0.0,0.0,0.0,0.0,0.0,0.0,0.0,0.0,0.0,0.0,0.0,0.0,0.0,0.0,0.0,0.0,0.0,0.0,0.0,0.0,0.0,0.0,0.0,0.0,0.0,0.0,0.0,0.0,0.0,0.0,0.0,0.0,0.0,0.0,0.0,0.0,0.0,0.0,0.0,0.0,0.0,0.0,0.0,0.0,0.0,0.0,0.0,0.0,0.0,0.0,0.0,0.0,0.0,0.0,0.0,0.0,0.0,0.0,0.0,0.0,0.0,0.0,0.0,0.0,0.0,0.0,0.0,0.0,0.0,0.0,0.0,0.0,0.0,0.0,0.0,0.0,0.0,0.0,0.0,0.0,0.0,0.0,0.0,0.0,0.0,0.0,0.0,0.0,0.0,0.0,0.0,0.0,0.0,0.0,0.0,0.0,0.0,0.0,0.0,0.0,0.0,0.0,0.0,0.0,0.0,0.0,0.0,0.0,0.0,0.0,0.0,0.0,0.0,0.0,0.0,0.0,0.0,0.0,0.0,0.0,0.0,0.0,0.0,0.0,0.0,0.0,0.0,0.0,0.0,0.0,0.0,0.0,0.0,0.0,0.0,0.0,0.0,0.0,0.0,0.0,0.0,0.0,0.0,0.0,0.0,0.0,0.0,0.0,0.0,0.0,0.0,0.0,0.0,0.0,0.0,0.0,0.0,0.0,0.0,0.0,0.0,0.0,0.0,0.0,0.0,0.0,0.0,0.0,0.0,0.0,0.0,0.0,0.0,0.0,0.0,0.0,0.0,0.0,0.0,0.0,0.0,0.0,0.0,0.0,0.0,0.0,0.0,0.0,0.0,0.0,0.0,0.0,0.0,0.0,0.0,0.0,0.0,0.0,0.0,0.0,0.0,0.0,0.0,0.0,0.0,0.0,0.0,0.0,0.0,0.0,0.0,0.0,0.0,0.0,0.0,0.0,0.0,0.0,0.0,0.0,0.0,0.0,0.0,0.0,0.0,0.0,0.0,0.0,0.0,0.0,0.0,0.0,0.0,0.0,0.0,0.0,0.0,0.0,0.0,0.0,0.0,0.0,0.0,0.0,0.0,0.0,0.0,0.0,0.0,0.0,0.0,0.0,0.0,0.0,0.0,0.0,0.0,0.0,0.0,0.0,0.0,0.0,0.0,0.0,0.0,0.0,0.0,0.0,0.0,0.0,0.0,0.0,0.0,0.0,0.0,0.0,0.0,0.0,0.0,0.0,0.0,0.0,0.0,0.0,0.0,0.0,0.0,0.0,0.0,0.0,0.0,0.0,0.0,0.0,0.0,0.0,0.0,0.0,0.0,0.0,0.0,0.0,0.0,0.0,0.0,0.0,0.0,0.0,0.0,0.0,0.0,0.0,0.0,0.0,0.0,0.0,0.0,0.0,0.0,0.0,0.0,0.0,0.0,0.0,0.0,0.0,0.0,0.0,0.0,0.0,0.0,0.0,0.0,0.0,0.0,0.0,0.0,0.0,0.0,0.0,0.0,0.0,0.0,0.0,0.0,0.0,0.0,0.0,0.0,0.0,0.0,0.0,0.0,0.0,0.0,0.0,0.0,0.0,0.0,0.0,0.0,0.0,0.0,0.0,0.0,0.0,0.0,0.0,0.0,0.0,0.0,0.0,0.0,0.0,0.0,0.0,0.0,0.0,0.0,0.0,0.0,0.0,0.0,0.0,0.0,0.0,0.0,0.0,0.0,0.0,0.0,0.0,0.0,0.0,0.0,0.0,0.0,0.0,0.0,0.0,0.0,0.0,0.0,0.0,0.0,0.0,0.0,0.0,0.0,0.0,0.0,0.0,0.0,0.0,0.0,0.0,0.0,0.0,0.0,0.0,0.0,0.0,0.0,0.0,0.0,0.0,0.0,0.0,0.0,0.0,0.0,0.0,0.0,0.0,0.0,0.0,0.0,0.0,0.0,0.0,0.0,0.0,0.0,0.0,0.0,0.0,0.0,0.0,0.0,0.0,0.0,0.0,0.0,0.0,0.0,0.0,0.0,0.0,0.0,0.0,0.0,0.0,0.0,0.0,0.0,0.0,0.0,0.0,0.0,0.0,0.0,0.0,0.0,0.0,0.0,0.0,0.0,0.0,0.0,0.0,0.0,0.0,0.0,0.0,0.0,0.0,0.0,0.0,0.0,0.0,0.0,0.0,0.0,0.0,0.0,0.0,0.0,0.0,0.0,0.0,0.0,0.0,0.0,0.0,0.0,0.0,0.0,0.0,0.0,0.0,0.0,0.0,0.0,0.0,0.0,0.0,0.0,0.0,0.0,0.0,0.0,0.0,0.0,0.0,0.0,0.0,0.0,0.0,0.0,0.0,0.0,0.0,0.0,0.0,0.0,0.0,0.0,0.0,0.0,0.0,0.0,0.0,0.0,0.0,0.0,0.0,0.0,0.0,0.0,0.0,0.0,0.0,0.0,0.0,0.0,0.0,0.0,0.0,0.0,0.0,0.0,0.0,0.0,0.0,0.0,0.0,0.0,0.0,0.0,0.0,0.0,0.0,0.0,0.0,0.0,0.0,0.0,0.0,0.0,0.0,0.0,0.0,0.0,0.0,0.0,0.0,0.0,0.0,0.0,0.0,0.0,0.0,0.0,0.0,0.0,0.0,0.0,0.0,0.0,0.0,0.0,0.0,0.0,0.0,0.0,0.0,0.0,0.0,0.0,0.0,0.0,0.0,0.0,0.0,0.0,0.0,0.0,0.0,0.0,0.0,0.0,0.0,0.0,0.0,0.0,0.0,0.0,0.0,0.0,0.0,0.0,0.0,0.0,0.0,0.0,0.0,0.0,0.0,0.0,0.0,0.0,0.0,0.0,0.0,0.0,0.0,0.0,0.0,0.0,0.0,0.0,0.0,0.0,0.0,0.0,0.0,0.0,0.0,0.0,0.0,0.0,0.0,0.0,0.0,0.0,0.0,0.0,0.0,0.0,0.0,0.0,0.0,0.0,0.0,0.0,0.0,0.0,0.0,0.0,0.0,0.0,0.0,0.0,0.0,0.0,0.0,0.0,0.0,0.0,0.0,0.0,0.0,0.0,0.0,0.0,0.0,0.0,0.0,0.0,0.0,0.0,0.0,0.0,0.0,0.0,0.0,0.0,0.0,0.0,0.0,0.0,0.0,0.0,0.0,0.0,0.0,0.0,0.0,0.0,0.0,0.0,0.0,0.0,0.5224,0.0,0.0,0.0,0.0,0.0,0.0,0.0,0.0,0.0,0.0,0.0,0.0,0.0,0.0,0.0,0.0,0.0,0.0,0.0,0.0,0.0,0.0,0.0,0.0,0.0,0.0,0.0,0.0,0.0,0.0,0.0,0.0,0.0,0.0,0.0,0.0,0.0,0.0,0.0,1.4389,1.4901,1.6337,1.6955,1.7405,1.7706,0.0,0.0,0.0,0.0,0.0,0.0,0.0,0.0,0.0,0.0,0.0,0.0,0.0,0.0,0.0,0.0,0.0,0.0,0.0,0.0,0.0,0.0,0.0,0.0,0.0,0.0,0.0,0.0,0.0,0.0,0.0,0.0,0.0,0.0,0.0,0.0,0.0,0.0,0.0,0.0,0.0,0.0,0.0,0.0,0.0,0.0,0.0,0.0,0.0,0.0,0.0,0.0,0.0,0.0,0.0,0.0,0.0,0.0,0.0,0.0,0.0,0.0,0.0,0.0,0.0,0.0,0.0,0.0,0.0,0.0,0.0,0.4873,0.0,0.0,0.0,0.0,0.0,0.0,0.0,0.0,0.0,0.0,0.0,0.0,0.0,0.0,0.0,0.0,0.0,0.0,0.0,0.0,0.0,0.0,0.0,0.0,1.4616,1.4685,1.4512,1.4547,0.0,0.0,0.0,0.0,0.0,0.0,0.0,1.4221,1.4588,1.5609,1.5621,1.6272,1.7529,1.847,1.8633,1.8178,1.8628,0.0,0.0,0.0,0.0,0.0,0.0,0.0,0.0,0.0,0.0,0.0,0.0,0.0,0.0,0.0,0.0,0.0,0.0,0.0,0.0,0.0,0.0,0.0,0.0,0.0,0.0,0.0,0.0,0.0,0.0,0.0,0.0,0.0,0.0,0.0,0.0,0.0,0.0,0.0,0.0,0.0,0.0,0.0,0.0,0.0,0.0,0.0,0.0,0.0,0.0,0.0,0.0,0.0,0.0,0.0,0.0,0.0,0.0,0.0,0.0,0.0,0.0,0.0,0.2237,0.2382,0.2833,0.2964,0.2746,0.2271,0.3301,0.3323,0.2666,0.0,0.0,0.0,0.0,0.0,0.0,0.0,0.0,0.0,0.0,0.0,0.0,0.0,0.0,0.0,0.0,0.0,0.0,0.0,0.0,0.0,0.0,1.3939,1.4231,1.4581,1.3766,1.3671,0.0,0.0,0.0,0.0,0.0,0.0,1.4663,1.4558,1.4878,1.5603,1.7061,1.7971,1.8354,1.9235,1.9617,1.9519,1.9368,1.8547,1.7283,0.0,0.0,0.0,0.0,0.0,0.0,0.0,0.0,0.0,0.0,0.0,0.0,0.0,0.0,0.0,0.0,0.0,0.0,0.0,0.0,0.0,0.0,0.0,0.0,0.0,0.0,0.0,0.0,0.0,0.0,0.0,0.0,0.0,0.0,0.0,0.0,0.0,0.0,0.0,0.0,0.0,0.6486,0.6195,0.0,0.0,0.0,0.0,0.0,0.0,0.0,0.0,0.0,0.0,0.0,0.0,0.0,0.4351,0.4383,0.34,0.2887,0.2827,0.2004,0.1658,0.1697,0.1675,0.1187,0.035,0.0527,0.0,0.0851,0.0793,0.0,0.0,0.0,0.0,0.0,0.0,0.0,0.0,0.0,0.0,0.0,0.0,0.0,0.0,0.0,0.0,0.0,0.0,0.0,0.0,0.0,1.496,1.5486,1.5241,1.5618,1.5684,1.5282,1.4854,0.0,0.0,0.0,1.4174,1.4188,1.4583,1.5515,1.7062,1.8931,1.9791,1.971,2.0581,2.0571,1.9878,2.0247,1.9824,1.8841,1.8445,0.0,0.0,0.0,0.0,0.0,0.0,0.0,0.0,0.0,0.0,0.0,0.0,0.0,0.0,0.0,0.0,0.0,0.0,0.0,0.0,0.0,0.0,0.0,0.0,0.0,0.0,0.0,0.0,0.0,0.0,0.0,0.0,0.0,0.0,0.0,0.0,0.0,0.0,0.0,0.7083,0.6512,0.6226,0.6407,0.6607,0.0,0.0,0.0,0.0,0.0,0.0,0.0,0.0,0.0,0.3561,0.3682,0.354,0.3,0.2449,0.2155,0.2092,0.1695,0.149,0.1491,0.089,0.0403,-0.0045,-0.1165,-0.1526,-0.1368,-0.0695,-0.0328,-0.014,0.0,0.0,0.0,0.0,0.0,-0.0267,0.0,0.0,0.0,0.0,0.0,0.0,0.0,0.0,0.0,0.0,0.0,0.0,1.4735,1.6409,1.7197,1.6418,1.7544,1.7591,1.5919,1.5556,0.0,0.0,1.3979,1.3955,1.3975,1.5063,1.6547,1.8389,2.023,2.1065,2.0957,2.1623,2.137,2.0423,2.1103,2.0924,2.0062,1.9207,1.8532,1.7879,0.0,0.0,0.0,0.0,0.0,0.0,0.0,0.0,0.0,0.0,0.0,0.0,0.0,0.0,0.0,0.0,0.0,0.0,0.0,0.0,0.0,0.0,0.0,0.0,0.0,0.0,0.0,0.0,0.0,0.0,0.0,0.0,0.0,0.0,0.0,0.0,0.0,0.6305,0.5901,0.5905,0.5613,0.5714,0.0,0.0,0.0,0.0,0.0,0.0,0.2601,0.3314,0.3267,0.2113,0.2599,0.2474,0.17,0.1546,0.1373,0.1136,0.1113,0.101,0.0734,0.0,-0.0493,-0.0806,-0.2284,-0.3045,-0.3164,-0.2042,-0.1532,-0.1419,-0.1099,-0.094,-0.0901,-0.1028,-0.1219,-0.1624,0.0,0.0,0.0,0.0,0.0,0.0,0.0,0.0,0.0,0.0,0.0,1.5931,1.6251,1.8198,1.9099,1.8243,1.8607,1.8144,1.6464,1.5473,1.4842,1.4662,1.411,1.4031,1.4447,1.6545,1.8088,1.8974,2.0467,2.1416,2.1826,2.1865,2.1875,2.1804,2.1855,2.1036,1.9615,1.9496,1.8847,1.7788,1.6482,0.0,0.0,0.0,0.0,0.0,0.0,0.0,0.0,0.0,0.0,0.0,0.0,0.0,0.0,0.0,0.0,0.0,0.0,0.0,0.0,0.0,0.0,0.0,0.0,0.0,0.0,0.0,0.0,0.0,0.0,0.0,0.0,0.0,0.0,0.0,0.0,0.0,0.0,0.4412,0.3637,0.0,0.0,0.0,0.0,0.3696,0.4158,0.4074,0.3208,0.3149,0.2757,0.1843,0.1725,0.1662,0.1613,0.1558,0.1019,0.0093,0.0091,-0.0404,-0.1255,-0.1299,-0.1836,-0.2777,-0.2867,-0.3403,-0.4144,-0.3253,-0.2832,-0.2644,-0.1794,-0.1324,-0.1155,-0.1859,-0.2664,-0.3463,0.0,0.0,0.0,0.0,0.0,0.0,0.0,0.0,1.3539,1.3515,1.4953,1.6255,1.7013,1.9562,2.1136,2.096,2.1162,2.0501,1.87,1.6934,1.5614,1.4867,1.4254,1.4708,1.638,1.813,1.9634,2.0889,2.2484,2.3223,2.3115,2.3389,2.3369,2.3086,2.2539,2.1984,2.1358,2.0117,1.8842,1.7614,1.6412,1.5583,0.0,0.0,0.0,0.0,0.0,0.0,0.0,0.0,0.0,0.0,0.0,0.0,0.0,0.0,0.0,0.0,0.0,0.0,0.0,0.0,0.0,0.0,0.0,0.0,0.0,0.0,0.0,0.0,0.0,0.0,0.0,0.0,0.0,0.0,0.0,0.0,0.0,0.438,0.3598,0.0,0.4063,0.3728,0.3355,0.3171,0.2803,0.2456,0.2101,0.2133,0.2008,0.1666,0.1639,0.125,0.0599,0.0584,0.0096,-0.096,-0.0929,-0.1096,-0.1414,-0.2072,-0.2552,-0.2913,-0.3537,-0.3985,-0.4291,-0.3976,-0.3808,-0.3712,-0.3416,-0.3242,-0.3171,-0.3413,-0.3915,-0.4633,0.0,0.0,0.0,0.0,0.0,0.0,0.0,0.0,1.3672,1.4092,1.5686,1.73,1.8651,2.1519,2.32,2.2716,2.2829,2.1829,1.9292,1.7369,1.5885,1.4862,1.4975,1.5974,1.7975,1.9529,2.1036,2.2529,2.3652,2.4209,2.4228,2.4355,2.4268,2.3975,2.3408,2.2707,2.1886,2.0451,1.9119,1.7842,1.6636,1.5683,1.4874,0.0,0.0,0.0,0.0,0.0,0.0,0.0,0.0,0.0,0.0,0.0,0.0,0.0,0.0,0.0,0.0,0.0,0.0,0.0,0.0,0.0,0.0,0.0,0.0,0.0,0.0,0.0,0.0,0.0,0.0,0.0,0.0,0.0,0.0,0.0,0.3533,0.4404,0.3371,0.295,0.3951,0.3074,0.2449,0.2458,0.1864,0.1527,0.1527,0.1584,0.1617,0.1617,0.1617,0.106,0.0,0.0049,-0.0637,-0.2056,-0.1977,-0.2124,-0.2444,-0.3073,-0.336,-0.3403,-0.403,-0.43,-0.43,-0.43,-0.43,-0.4295,-0.4267,-0.4238,-0.42,-0.4365,-0.4793,-0.5513,0.0,0.0,0.0,0.0,0.0,0.0,0.0,1.3518,1.41,1.5077,1.7005,1.9088,2.1117,2.4082,2.523,2.3471,2.3475,2.1966,1.8187,1.6698,1.5615,1.48,1.6304,1.7758,1.9063,2.0748,2.2325,2.3857,2.3877,2.4307,2.5145,2.4678,2.4482,2.4473,2.4453,2.3158,2.0954,2.0566,1.9712,1.8495,1.7192,1.6002,1.4922,0.0,0.0,0.0,0.0,0.0,0.0,0.0,0.0,0.0,0.0,0.0,0.0,0.0,0.0,0.0,0.0,0.0,0.0,0.0,0.0,0.0,0.0,0.0,0.0,0.0,0.0,0.0,0.0,0.0,0.0,0.0,0.0,0.0,0.4252,0.3617,0.3382,0.432,0.2676,0.1901,0.2961,0.2132,0.1521,0.161,0.1617,0.1617,0.1617,0.1617,0.1617,0.1617,0.1566,0.106,-0.005,-0.0099,-0.1126,-0.3131,-0.3061,-0.3511,-0.4386,-0.434,-0.43,-0.43,-0.43,-0.43,-0.43,-0.43,-0.43,-0.4336,-0.4249,-0.4118,-0.4112,-0.4618,-0.5261,-0.613,0.0,0.0,0.0,0.0,0.0,0.0,0.0,1.3032,1.3554,1.4877,1.713,1.9501,2.182,2.4599,2.6311,2.6429,2.4246,2.2218,2.0665,1.741,1.5679,1.5921,1.7572,1.9384,2.1273,2.2827,2.4127,2.5157,2.583,2.6094,2.6025,2.5898,2.585,2.582,2.5176,2.4146,2.2706,2.1595,2.0189,1.8608,1.7085,1.6012,1.5248,0.0,0.0,0.0,0.0,0.0,0.0,0.0,0.0,0.0,0.0,0.0,0.0,0.0,0.0,0.0,0.0,0.0,0.0,0.0,0.0,0.0,0.0,0.0,0.0,0.0,0.0,0.0,0.0,0.0,0.0,0.0,0.0,0.3191,0.3431,0.2566,0.2054,0.2349,0.1905,0.1677,0.1972,0.1727,0.159,0.1615,0.1617,0.1617,0.1617,0.1617,0.1617,0.1617,0.0858,-0.005,-0.1159,-0.1879,-0.2938,-0.4262,-0.4098,-0.4158,-0.4386,-0.434,-0.43,-0.43,-0.43,-0.43,-0.43,-0.43,-0.4612,-0.5048,-0.4426,-0.4456,-0.4789,-0.4808,-0.554,-0.6671,0.0,0.0,0.0,0.0,0.0,0.0,0.0,1.2932,1.3632,1.5481,1.7628,1.9876,2.2245,2.4643,2.5925,2.5583,2.3222,2.1141,1.9712,1.7249,1.6335,1.744,1.9324,2.1213,2.3087,2.4489,2.5674,2.6543,2.7041,2.7158,2.6924,2.6924,2.6826,2.6631,2.559,2.4458,2.3219,2.1799,2.0297,1.8684,1.7463,1.6484,1.567,1.5386,1.4778,1.4084,1.3925,1.3662,1.3372,1.347,0.0,0.0,0.0,0.0,0.0,0.0,0.0,0.0,0.0,0.0,0.0,0.0,0.0,0.0,0.0,0.0,0.0,0.0,0.0,0.0,0.0,0.0,0.0,0.0,0.3353,0.2517,0.2485,0.192,0.1558,0.1611,0.1617,0.1617,0.1617,0.1617,0.1617,0.1617,0.1617,0.1617,0.1617,0.1617,0.1617,0.1617,0.0555,-0.0504,-0.1613,-0.2641,-0.3668,-0.4761,-0.4616,-0.453,-0.4489,-0.4398,-0.4336,0.0,-0.43,-0.43,-0.4344,-0.4612,-0.5015,0.0,0.0,0.0,0.0,0.0,-0.6212,-0.7163,0.0,0.0,0.0,0.0,0.0,0.0,0.0,1.3013,1.4003,1.6367,1.8221,2.0157,2.2366,2.4286,2.4689,2.2901,2.1324,1.9448,1.7045,1.6733,1.744,1.9272,2.1323,2.3175,2.4746,2.5977,2.7021,2.7933,2.7933,2.7933,2.7933,2.7933,2.7676,2.7243,2.5951,2.4593,2.3203,2.1672,2.0177,1.8789,1.8211,1.7248,1.6181,1.5736,1.5289,1.4849,1.4753,1.4238,1.3642,1.3879,0.0,0.0,0.0,0.0,0.0,0.0,0.0,0.0,0.0,0.0,0.0,0.0,0.0,0.0,0.0,0.0,0.0,0.0,0.0,0.0,0.0,0.0,0.0,0.0,0.2551,0.1716,0.161,0.1622,0.1621,0.1617,0.1617,0.1617,0.1617,0.1617,0.1617,0.1617,0.1617,0.1617,0.1617,0.0,0.0,0.0,0.0,-0.0706,-0.1765,-0.2821,-0.3879,-0.4782,-0.4738,-0.4651,-0.4616,-0.4467,-0.4375,-0.43,-0.4389,-0.4433,-0.4478,-0.5191,-0.5542,-0.5596,-0.5326,-0.5563,-0.6144,-0.6552,-0.7022,-0.7484,0.0,0.0,0.0,0.0,0.0,0.0,0.0,1.2698,1.3645,1.6187,1.7885,1.9791,2.2317,2.3615,2.4111,2.3606,2.11,1.8761,1.6943,1.7581,1.9093,2.1461,2.3122,2.494,2.7043,2.7617,2.834,2.9254,2.9254,2.9254,2.9254,2.9254,2.916,2.8988,2.7071,2.564,2.4439,2.2473,2.0694,1.9169,1.9045,1.812,1.6757,1.6199,1.5672,1.5193,1.5011,1.481,1.4628,1.4396,1.4035,1.3617,1.2965,1.25,0.0,0.0,0.0,0.0,0.0,0.0,0.0,0.0,0.0,0.0,0.0,0.0,0.0,0.0,0.0,0.0,0.0,0.0,0.0,0.3864,0.2599,0.1655,0.1699,0.1705,0.1645,0.162,0.1617,0.1617,0.1617,0.1617,0.1617,0.1617,0.1617,0.1617,0.1617,0.1617,0.1212,0.0353,-0.0756,-0.1814,-0.2871,-0.3977,-0.4582,-0.4782,0.0,0.0,-0.4614,-0.4402,-0.4316,-0.4344,-0.4924,-0.5193,-0.5238,-0.5944,-0.6455,-0.6817,-0.6679,-0.6617,-0.6689,-0.7173,-0.7407,-0.7484,0.0,0.0,0.0,0.0,0.0,0.0,0.0,1.2845,1.3671,1.577,1.6976,1.8324,2.0137,2.1098,2.1379,2.0795,1.9308,1.801,1.7073,1.8808,2.0825,2.2909,2.4519,2.6006,2.7314,2.8389,2.9141,2.9626,3.001,3.0107,2.9883,2.9883,2.9766,2.9495,2.7241,2.5833,2.5018,2.2703,2.092,1.9519,1.9367,1.8481,1.7246,1.6763,1.6166,1.5536,1.5305,1.5068,1.4785,1.4462,1.4057,1.3609,1.3145,1.2572,1.207,0.0,0.0,0.0,0.0,0.0,0.0,0.0,0.0,0.0,0.0,0.0,0.0,0.0,0.0,0.5624,0.0,0.0,0.3466,0.3082,0.2254,0.165,0.1679,0.1683,0.1677,0.1662,0.1648,0.1645,0.1659,0.1648,0.1639,0.1639,0.1639,0.1633,0.1618,0.1111,0.0555,0.0,-0.1562,-0.267,-0.3173,-0.428,-0.4784,-0.4782,-0.4702,-0.4616,-0.4616,-0.443,-0.4523,-0.4879,-0.5238,-0.5591,-0.5947,-0.665,-0.7314,-0.7887,-0.7716,-0.7495,-0.7331,-0.7471,-0.7484,-0.7484,0.0,0.0,0.0,0.0,0.0,0.0,0.0,1.308,1.3733,1.5296,1.6106,1.6905,1.7849,1.8494,1.8414,1.734,1.7229,1.7329,1.7598,1.995,2.2209,2.4098,2.5674,2.6748,2.7256,2.8779,2.9665,2.9744,3.0498,3.0703,3.0332,3.0332,3.0032,2.9343,2.7053,2.5756,2.5082,2.2726,2.1061,2.0029,1.9555,1.8762,1.7726,1.7252,1.6608,1.5851,1.5548,1.5098,1.4583,1.4324,1.3887,1.3456,1.3114,1.2569,1.2023,1.1764,1.0987,0.0,0.0,0.0,0.0,0.0,0.0,0.0,0.0,0.0,0.6595,0.4946,0.4619,0.4344,0.3489,0.307,0.2703,0.2208,0.1862,0.1726,0.1708,0.1713,0.1713,0.1713,0.1683,0.1723,0.1694,0.167,0.171,0.1721,0.1717,0.16,0.1321,0.0456,-0.0202,-0.0605,-0.2317,-0.3324,-0.3525,-0.4381,-0.4784,-0.4782,-0.4749,-0.4758,-0.4804,-0.4661,-0.4976,-0.5594,-0.5725,-0.621,-0.6874,-0.7448,-0.8072,-0.8592,-0.8361,-0.8238,-0.8114,-0.7692,-0.7628,-0.7748,0.0,0.0,0.0,0.0,0.0,0.0,0.0,0.0,1.3565,1.4903,1.5867,1.6675,1.7327,1.7514,1.7088,1.5775,1.597,1.7027,1.9005,2.0466,2.2497,2.5343,2.6435,2.7324,2.8135,2.9082,2.9756,3.0127,3.0644,3.0859,3.081,3.081,3.0169,2.8891,2.7175,2.5771,2.4583,2.2565,2.1462,2.0951,2.0111,1.9174,1.8276,1.7452,1.6726,1.6159,1.5397,1.4857,1.4386,1.407,1.3791,1.3503,1.2942,1.2569,1.2182,1.1284,0.0,0.9599,0.9652,0.8558,0.7253,0.6729,0.6215,0.5477,0.0,0.0,0.4012,0.2786,0.2518,0.2574,0.266,0.2363,0.212,0.2187,0.1893,0.1734,0.1791,0.1799,0.1799,0.1799,0.1749,0.1716,0.1719,0.1639,0.1643,0.1695,0.1676,0.1244,0.0258,0.0052,-0.0871,-0.2772,-0.3073,-0.3676,-0.4634,-0.4734,-0.4784,-0.4782,-0.4749,-0.4995,-0.5506,-0.5398,-0.5695,-0.6343,-0.6959,-0.7672,-0.8344,-0.8432,-0.8524,-0.8592,-0.8361,-0.8768,-0.935,-0.8212,-0.8091,-0.8546,0.0,0.0,0.0,0.0,0.0,0.0,0.0,0.0,0.0,1.3898,1.4454,1.4991,1.5555,1.5637,1.5086,1.3652,1.5263,1.6867,1.811,2.0478,2.2765,2.4853,2.6045,2.6934,2.7539,2.8389,2.9033,2.9453,2.9902,3.0117,3.0117,3.0117,2.9594,2.8495,2.6863,2.5586,2.4463,2.2519,2.1222,2.0415,1.9807,1.8851,1.7651,1.672,1.6069,1.5497,1.4773,1.4127,0.0,1.3261,1.293,1.2655,1.2572,1.193,1.1082,1.0672,0.9765,0.0,0.8239,0.7522,0.6804,0.0,0.5772,0.5129,0.403,0.3795,0.3396,0.2132,0.1855,0.1907,0.2018,0.1908,0.1855,0.0,0.1798,0.1782,0.177,0.1816,0.1797,0.1725,0.174,0.1728,0.1763,0.1686,0.1678,0.1703,0.1693,0.12,0.0051,-0.0612,-0.1626,-0.3173,-0.3827,-0.4331,-0.4784,-0.4784,-0.4784,-0.4784,-0.519,-0.5475,-0.5601,-0.6002,-0.6512,-0.7092,-0.7804,-0.8296,-0.8612,-0.8612,-0.8612,-0.8648,-0.9078,-0.9444,-0.962,-0.8801,-0.8988,-0.9622,0.0,0.0,0.0,0.0,0.0,0.0,0.0,0.0,0.0,0.0,1.3434,1.3803,1.4246,1.4052,1.3575,1.2772,1.4627,1.6328,1.747,2.0073,2.2311,2.3965,2.5322,2.6221,2.665,2.7617,2.8271,2.8574,2.9004,2.9098,2.8822,2.8882,2.8173,2.6836,2.5833,2.4685,2.3451,2.2067,2.0868,1.9871,1.9227,1.8279,1.713,1.6045,1.5137,1.4353,1.3855,1.3265,1.2687,1.2172,1.1796,1.1503,1.16,1.0838,0.9974,0.9781,0.9098,0.8186,0.7155,0.0,0.0,0.5502,0.4899,0.4281,0.3594,0.3296,0.2844,0.181,0.1617,0.162,0.1628,0.1641,0.1665,0.171,0.1728,0.1802,0.1778,0.1818,0.179,0.1697,0.1675,0.1731,0.1775,0.1698,0.1686,0.1703,0.1431,0.0733,-0.041,-0.1476,-0.2538,-0.3655,-0.4394,-0.4784,-0.4784,-0.4784,-0.4935,-0.5135,-0.5659,-0.6037,-0.6261,-0.6933,-0.7424,-0.7845,-0.8384,-0.8612,-0.8612,-0.8872,-0.8955,-0.9043,-0.9946,-1.0363,-1.0469,-1.008,-1.0206,-1.0606,0.0,0.0,0.0,0.0,0.0,0.0,0.0,0.0,0.0,0.0,0.0,0.0,0.0,1.319,1.2999,1.3871,1.3971,1.5143,1.791,1.9128,2.0768,2.3023,2.4414,2.5322,2.5713,2.7031,2.7738,2.7757,2.8125,2.7828,2.6791,2.7133,2.581,2.3255,2.3887,2.2952,2.091,2.0861,2.0454,1.9791,1.8527,1.7722,1.7128,1.5691,1.4173,1.2744,1.2584,1.2247,1.1699,1.0851,1.0446,1.0193,0.9733,0.9443,0.0,0.8532,0.8304,0.0,0.0,0.0,0.5083,0.3648,0.271,0.2015,0.1765,0.1739,0.1753,0.1622,0.1617,0.1626,0.1707,0.1637,0.1647,0.1788,0.1724,0.1716,0.1802,0.1805,0.1783,0.1722,0.1714,0.1715,0.0,0.1637,0.1643,0.17,0.0681,-0.047,-0.1591,-0.2611,-0.3725,-0.4916,-0.4831,-0.4784,-0.4784,-0.4784,-0.5188,-0.5942,-0.5987,-0.6654,-0.7861,-0.8327,-0.8572,-0.8564,-0.8612,-0.8612,-0.8656,-0.9515,-0.9859,-0.9946,-1.0895,-1.1794,-1.2571,-1.2302,-1.1876,-1.1465,0.0,0.0,0.0,0.0,0.0,0.0,0.0,0.0,0.0,0.0,0.0,0.0,0.0,0.0,0.0,0.0,1.3935,1.487,1.6106,1.7861,1.9451,2.0798,2.2467,2.3574,2.3958,2.499,2.5344,2.4963,2.5447,2.5145,2.4092,2.4233,2.3458,2.2025,2.188,2.1208,2.0142,1.9346,1.9002,1.883,1.7308,1.6443,1.5924,1.4167,1.2836,1.1808,0.0,1.0419,0.9943,0.9412,0.9011,0.8758,0.8772,0.0,0.0,0.7631,0.0,0.0,0.0,0.0,0.6043,0.4598,0.3657,0.2932,0.2306,0.1964,0.1705,0.1623,0.2154,0.2434,0.1973,0.2274,0.2453,0.2077,0.1847,0.1792,0.1803,0.1804,0.1782,0.1721,0.1714,0.0,0.0,0.0,0.0,0.0627,0.0158,-0.0837,-0.2618,-0.3096,-0.381,-0.4833,-0.48,-0.4784,-0.4784,-0.5338,-0.5739,-0.5992,-0.6996,-0.7976,-0.8874,-0.876,-0.8735,-0.8731,-0.8661,-0.8911,-0.9471,-0.9772,-1.0294,-1.0939,-1.1843,-1.24,-1.2778,-1.329,-1.3229,-1.2867,0.0,0.0,0.0,0.0,0.0,0.0,0.0,0.0,0.0,0.0,0.0,0.0,0.0,0.0,0.0,0.0,0.0,1.4418,1.4942,1.6412,1.7683,1.8606,1.9915,2.0814,2.1238,2.1922,2.2136,2.1778,2.2216,2.1885,2.0853,2.1159,2.0679,1.9654,1.9487,1.9076,1.848,1.7684,1.7383,1.7364,1.5966,1.5127,1.4501,1.2779,1.1421,0.0,0.91,0.8301,0.7867,0.8184,0.8016,0.0,0.0,0.0,0.0,0.0,0.0,0.0,0.0,0.7139,0.6921,0.571,0.4639,0.3728,0.316,0.2345,0.1662,0.1611,0.2335,0.2784,0.2105,0.2586,0.2819,0.2247,0.1963,0.1841,0.1784,0.1782,0.1776,0.1729,0.1721,0.0,0.0,0.0,0.0,0.0051,-0.0417,-0.1408,-0.3159,-0.3704,-0.4224,-0.4835,-0.48,-0.4935,-0.5236,-0.5739,-0.6292,-0.6886,-0.8073,-0.8841,-0.9298,-0.8954,-0.8787,-0.8723,-0.8657,-0.8911,-0.9471,-1.012,-1.0766,-1.1408,-1.2705,-1.3179,-1.3264,-1.387,-1.3968,-1.3761,0.0,0.0,0.0,0.0,0.0,0.0,0.0,0.0,0.0,0.0,0.0,0.0,0.0,0.0,0.0,0.0,0.0,0.0,1.4458,1.4893,1.5562,1.6504,1.6883,1.7294,1.7757,1.8179,1.8368,1.8331,1.8749,1.8333,1.7268,1.7956,1.7598,1.633,1.6742,1.6575,1.598,1.5864,1.5696,1.5484,1.4536,1.3725,1.2982,1.1449,0.9875,0.8366,0.7085,0.6169,0.5732,0.0,0.0,0.0,0.0,0.0,0.0,0.0,0.0,0.7573,0.7731,0.778,0.7613,0.6855,0.5589,0.4369,0.3966,0.2781,0.1674,0.1633,0.2278,0.2665,0.0,0.0,0.276,0.2286,0.2012,0.1854,0.1806,0.1799,0.1778,0.0,0.0,0.0,0.0,0.0,0.0,-0.0152,0.0,-0.2279,-0.3418,-0.4459,-0.4975,-0.4965,-0.493,-0.5236,-0.5992,-0.6092,-0.6889,-0.8482,-0.911,-0.9331,-0.912,-0.8922,-0.8747,-0.8637,-0.862,-0.8652,-0.8872,-1.0593,-1.1365,-1.1628,-1.3398,-1.4088,-1.4088,-1.4088,-1.4088,-1.4048,0.0,0.0,0.0,0.0,0.0,0.0,0.0,0.0,0.0,0.0,0.0,0.0,0.0,0.0,0.0,0.0,0.0,0.0,1.3262,1.3782,1.4197,1.4448,1.5322,1.583,1.5974,1.6697,1.6787,1.6113,1.6464,1.6153,1.5231,1.5314,1.524,1.4988,1.5027,1.4884,1.4659,1.4476,1.4125,1.3592,1.2325,1.1614,1.1126,0.9469,0.8366,0.7653,0.7267,0.6557,0.0,0.0,0.0,0.0,0.0,0.0,0.6354,0.0,0.0,0.8354,0.8762,0.9107,0.9072,0.8058,0.6656,0.5216,0.4123,0.2702,0.1657,0.168,0.2453,0.3007,0.0,0.0,0.0,0.2502,0.2045,0.0,0.1718,0.1756,0.0,0.0,0.0,0.1399,0.0426,0.0106,0.0,0.0,-0.2898,-0.3518,-0.456,-0.488,-0.501,-0.4873,-0.5402,-0.5792,-0.5992,-0.7188,-0.8283,-0.9278,-0.9481,-0.9535,-0.9482,-0.9169,-0.9003,-0.8946,-0.8726,-0.9345,-1.0636,-1.1111,-1.21,-1.344,-1.3913,-1.4088,-1.4088,-1.4088,-1.4088,-1.4075,0.0,0.0,0.0,0.0,0.0,0.0,0.0,0.0,0.0,0.0,0.0,0.0,0.0,0.0,0.0,0.0,0.0,0.0,0.0,1.2934,1.2997,1.2997,1.3341,1.3546,1.3546,1.4008,1.4105,1.3755,1.3944,1.3883,1.358,1.3573,1.3585,1.366,1.337,1.3287,1.3331,1.2985,1.2556,0.0,0.0,1.0357,0.9723,0.8253,0.7334,0.6772,0.6392,0.5887,0.0,0.0,0.0,0.6126,0.6237,0.6225,0.6252,0.6871,0.0,0.7533,0.8708,0.9202,0.922,0.8488,0.7175,0.5677,0.4395,0.2828,0.1661,0.1817,0.2554,0.0,0.0,0.0,0.0,0.0,0.0,0.0,0.1741,0.178,0.1762,0.0,0.131,0.0,0.0,-0.0973,-0.2104,0.0,-0.3566,-0.399,-0.4928,-0.5059,-0.5181,-0.5343,-0.5741,-0.6339,-0.7039,-0.8283,-0.913,-0.9579,-0.9579,-0.9587,-0.9498,-0.9643,-0.965,-0.9596,0.0,-1.0381,-1.1322,-1.1752,-1.2534,-1.3538,-1.4051,-1.4282,-1.4295,-1.4422,-1.4469,-1.4449,0.0,0.0,0.0,0.0,0.0,0.0,0.0,0.0,0.0,0.0,1.3116,1.3358,0.0,0.0,0.0,0.0,0.0,0.0,0.0,0.0,1.1977,1.1952,1.1502,1.1217,1.1192,1.1192,1.1302,1.1518,1.1538,1.168,1.1978,1.2093,1.2153,1.2161,1.176,1.1748,1.1941,1.1432,1.0969,1.051,1.0039,0.9376,0.8573,0.0,0.6566,0.5895,0.5116,0.0,0.0,0.0,0.5214,0.5797,0.4988,0.531,0.5969,0.575,0.5727,0.6105,0.7938,0.8424,0.8366,0.8145,0.6985,0.5602,0.4496,0.2928,0.1729,0.1973,0.0,0.2885,0.2503,0.2809,0.2997,0.2622,0.0,0.1904,0.1818,0.1792,0.1748,0.1556,0.0664,-0.011,-0.0448,-0.2263,-0.3523,-0.3801,-0.3863,-0.4209,-0.4964,-0.5059,-0.5428,-0.615,-0.6242,-0.7039,-0.8531,-0.9229,-0.9579,-0.9579,-0.9579,-0.9592,-0.9669,-1.028,-1.055,-1.054,-1.1164,0.0,-1.1679,-1.2457,-1.2893,-1.3096,-1.4172,-1.4583,-1.4609,-1.4914,-1.5008,-1.4961,0.0,0.0,0.0,0.0,0.0,0.0,0.0,0.0,0.0,0.0,1.2103,1.2025,0.0,0.0,0.0,0.0,0.0,0.0,0.0,0.0,0.0,1.1124,1.1023,1.0871,1.065,1.065,1.0486,1.0164,1.0147,1.0008,0.9768,0.9773,0.9855,0.9943,0.9937,1.0029,1.0205,0.9914,0.9395,0.878,0.8153,0.752,0.6926,0.6164,0.0,0.0,0.0,0.0,0.0,0.3711,0.404,0.4765,0.5161,0.4885,0.4644,0.5514,0.579,0.5974,0.6959,0.7018,0.6743,0.6632,0.5432,0.4194,0.3877,0.267,0.0,0.0,0.2275,0.242,0.2598,0.2674,0.0,0.2478,0.0,0.0,0.0,0.0,0.1412,0.0,0.0,0.0,0.0,0.0,0.0,0.0,0.0,-0.5088,-0.5148,-0.5069,-0.5614,-0.6942,-0.7637,-0.8432,-0.9381,-0.9529,-0.9579,-0.9579,-0.9579,-1.0047,-1.087,-1.0862,-1.1311,-1.2097,-1.2051,0.0,-1.3222,-1.3401,-1.39,-1.4632,-1.4825,-1.4928,-1.4941,-1.4988,-1.5008,-1.4961,0.0,0.0,0.0,0.0,0.0,0.0,0.0,1.094,1.0899,1.091,1.0751,1.0995,1.1907,1.2132,1.2147,0.0,0.0,0.0,0.0,0.0,0.0,0.0,0.0,0.0,1.0496,1.0496,0.0,0.0,0.0,0.0,0.0,0.0,0.0,0.0,0.0,0.9098,0.9256,0.8929,0.8376,0.7757,0.7499,0.6944,0.0,0.0,0.0,0.0,0.0,0.0,0.0,0.0,0.3621,0.3754,0.3737,0.3863,0.4073,0.4242,0.4338,0.454,0.556,0.5702,0.5494,0.5128,0.4427,0.3717,0.312,0.0,0.0,0.0,0.2394,0.2494,0.2803,0.0,0.0,0.0,0.0,0.0,0.0,0.0,0.0,0.0,0.0,0.0,0.0,0.0,0.0,0.0,0.0,-0.529,-0.5192,-0.5853,-0.6709,-0.7789,-0.8581,-0.9229,-0.9579,-0.9579,-0.9579,-0.9628,-1.0158,-1.069,-1.1214,-1.2051,-1.2695,-1.3199,-1.3513,0.0,-1.4321,-1.4321,-1.4597,-1.5022,-1.513,-1.519,-1.5211,-1.5357,-1.5418,-1.5371,0.0,0.0,0.0,0.0,0.0,0.0,1.0223,1.0071,0.9935,0.9891,0.9967,1.043,1.1489,1.1645,1.1733,0.0,0.0,0.0,0.0,0.0,0.0,0.0,0.0,0.0,0.0,0.0,0.0,0.0,0.0,0.0,0.0,0.0,0.0,0.0,0.0,0.0,0.0,0.8069,0.7563,0.0,0.0,0.0,0.0,0.0,0.0,0.0,0.0,0.0,0.0,0.0,0.3485,0.3139,0.2423,0.2885,0.3524,0.297,0.2859,0.3109,0.4061,0.4307,0.4218,0.3646,0.3452,0.3221,0.2452,0.2117,0.0,0.0,0.2736,0.2821,0.3092,0.0,0.0,0.0,0.0,0.0,0.0,0.0,0.0,0.0,0.0,0.0,0.0,0.0,0.0,0.0,0.0,0.0,-0.5403,-0.6818,-0.7877,-0.8386,-0.9179,-0.9579,-0.9579,-0.9579,-0.9723,-0.9965,-1.0788,-1.1414,-1.1896,-1.3294,-1.4007,-1.4275,-1.4917,0.0,0.0,-1.515,-1.515,-1.517,-1.5398,-1.5491,-1.5518,-1.5698,-1.5784,-1.5738,0.0,0.0,0.0,0.0,0.0,0.0,1.0328,1.0418,1.0466,1.0511,1.0689,1.0658,1.0324,1.0125,1.0038,0.0,0.0,0.0,0.0,0.0,0.0,0.0,0.0,0.0,0.0,0.0,0.0,0.0,0.0,0.0,0.0,0.0,0.0,0.0,0.0,0.0,0.0,0.0,0.0,0.0,0.0,0.0,0.0,0.0,0.0,0.0,0.0,0.0,0.0,0.0,0.0,0.3247,0.2448,0.2378,0.2554,0.2557,0.0,0.0,0.2794,0.2602,0.2448,0.2364,0.2077,0.1906,0.2235,0.0,0.0,0.3006,0.3188,0.3312,0.3512,0.3528,0.3509,0.0,0.0,0.236,0.0,0.0,0.0,0.0,0.0,0.0,0.0,0.0,0.0,0.0,0.0,0.0,-0.6145,-0.7603,-0.8444,-0.8386,-0.9179,-0.9579,-0.9579,-0.9579,-1.0113,-1.1028,-1.117,-1.2193,-1.4004,-1.4172,-1.4734,-1.5643,-1.5711,0.0,0.0,-1.5752,-1.5752,-1.5752,-1.5731,-1.5744,-1.5792,-1.5771,-1.5784,-1.5738,0.0,0.0,0.0,0.0,0.0,0.0,0.951,0.9483,0.9602,1.011,0.9875,0.9617,0.957,0.9347,0.9361,0.9762,0.0,0.0,0.0,0.0,0.0,0.0,0.0,0.0,0.0,0.0,0.0,0.0,0.0,0.0,0.0,0.0,0.0,0.0,0.0,0.0,0.0,0.0,0.0,0.0,0.0,0.0,0.0,0.0,0.0,0.0,0.0,0.0,0.0,0.0,0.0,0.0,0.2921,0.2767,0.0,0.0,0.2355,0.2452,0.2307,0.22,0.2137,0.1958,0.1974,0.2083,0.2429,0.0,0.2914,0.331,0.3439,0.3527,0.3756,0.3821,0.3787,0.3674,0.0,0.0,0.0,0.0,0.0,0.0,0.0,0.0,0.0,0.0,0.0,0.0,0.0,0.0,-0.7773,-0.8387,-0.8845,-0.9137,-0.943,-0.9916,-1.0547,-0.9916,-1.0453,-1.2096,-1.2096,-1.2877,-1.4346,-1.4921,-1.5397,-1.5784,-1.5784,0.0,0.0,-1.5784,-1.5784,-1.5784,-1.5784,-1.5784,-1.5784,-1.5784,-1.5784,-1.5764,0.0,0.0,0.0,0.0,0.0,0.8599,0.8855,0.8834,0.9028,0.9757,0.9378,0.9145,0.9317,0.9059,0.8982,0.9302,0.9164,0.0,0.0,0.0,0.0,0.0,0.0,0.0,0.0,0.0,0.8059,0.8246,0.0,0.0,0.0,0.0,0.0,0.0,0.0,0.0,0.0,0.0,0.0,0.0,0.0,0.0,0.0,0.0,0.0,0.0,0.0,0.0,0.0,0.0,0.0,0.0,0.0,0.0,0.0,0.0,0.232,0.2355,0.2031,0.2008,0.198,0.1713,0.1973,0.2348,0.0,0.0,0.3366,0.3601,0.3732,0.3848,0.4008,0.4043,0.4028,0.3892,0.0,0.2193,0.0,0.0,0.0,0.0,0.0,0.0,0.0,0.0,0.0,0.0,0.0,0.0,0.0,-0.9164,-0.9269,-0.9587,-0.9579,-0.9965,-1.0739,-1.0301,-1.0935,-1.2678,-1.3022,-1.3703,-1.4777,-1.5493,-1.5784,-1.5784,0.0,0.0,0.0,-1.5784,-1.5784,-1.5784,-1.5784,-1.5784,-1.5784,-1.5784,-1.5967,-1.6251,0.0,0.0,0.0,0.0,0.0,0.0,0.8565,0.8842,0.9166,0.9635,0.9708,0.9708,0.9708,0.9289,0.8798,0.8275,0.8817,0.0,0.0,0.0,0.0,0.0,0.0,0.0,0.0,0.0,0.7071,0.7417,0.7076,0.7155,0.0,0.0,0.0,0.0,0.0,0.0,0.0,0.0,0.0,0.0,0.0,0.0,0.0,0.0,0.0,0.0,0.0,0.0,0.0,0.0,0.0,0.0,0.0,0.0,0.0,0.0,0.2553,0.2408,0.1993,0.1817,0.1707,0.1625,0.1934,0.2352,0.0,0.0,0.3688,0.3936,0.4161,0.43,0.43,0.43,0.4233,0.4028,0.3997,0.0,0.0,0.0,0.0,0.0,0.0,0.0,0.0,0.0,0.0,0.0,0.0,0.0,0.0,-0.9985,-0.9807,-0.9583,-0.9579,-0.9628,-0.9628,-1.0641,-1.1707,-1.2732,-1.3757,-1.4825,-1.5784,-1.5784,-1.5784,0.0,0.0,0.0,0.0,-1.5784,-1.5784,-1.5784,-1.5784,-1.5784,-1.5784,-1.5784,-1.644,-1.7279,0.0,0.0,0.0,0.0,0.0,0.0,0.8552,0.8887,0.9225,0.9458,0.9419,0.9453,0.966,0.9025,0.8553,0.8474,0.8282,0.0,0.0,0.0,0.0,0.0,0.0,0.0,0.0,0.0,0.6864,0.6792,0.7081,0.7224,0.7194,0.7424,0.731,0.0,0.0,0.0,0.0,0.0,0.0,0.0,0.0,0.0,0.0,0.0,0.0,0.0,0.0,0.0,0.0,0.0,0.0,0.0,0.0,0.0,0.0,0.2952,0.2857,0.0,0.2395,0.2448,0.2568,0.256,0.2925,0.3273,0.3285,0.0,0.4117,0.418,0.4267,0.43,0.43,0.43,0.4204,0.3923,0.3554,0.0,0.0,0.0,0.0,0.0,0.0,0.0,0.0,0.0,0.0,0.0,0.0,0.0,0.0,-0.9916,-0.9807,-0.9583,-0.9579,-1.0256,-1.1712,-1.1365,-1.2436,-1.4813,-1.4484,-1.4825,-1.5784,-1.5784,0.0,0.0,0.0,0.0,0.0,-1.5784,-1.5784,-1.5784,-1.5784,-1.6204,-1.6817,-1.6817,-1.7458,-1.8334,0.0,0.0,0.0,0.0,0.0,0.0,0.883,0.9085,0.935,0.9576,0.9478,0.9456,0.9687,0.8971,0.8448,0.8355,0.7886,0.0,0.0,0.0,0.0,0.0,0.0,0.0,0.6322,0.6535,0.6658,0.6735,0.6968,0.7137,0.7202,0.7278,0.7163,0.6817,0.6533,0.0,0.0,0.0,0.0,0.0,0.0,0.0,0.523,0.0,0.0,0.0,0.0,0.0,0.0,0.0,0.0,0.0,0.0,0.0,0.0,0.0,0.3177,0.3123,0.0,0.2757,0.2828,0.283,0.3165,0.0,0.0,0.0,0.4035,0.4035,0.4035,0.4081,0.4156,0.3964,0.3739,0.3542,0.304,0.0,0.0,0.0,0.0,0.0,0.0,0.0,0.0,0.0,0.0,0.0,0.0,0.0,0.0,-1.0025,-1.0083,-1.0748,-1.0404,-1.0837,-1.2145,-1.2296,-1.3312,-1.5207,-1.4968,-1.5207,-1.5784,-1.5784,0.0,0.0,0.0,0.0,0.0,-1.5784,-1.6015,-1.6393,-1.6393,-1.6998,-1.7878,-1.7878,-1.8519,-1.9384,0.0,0.0,0.0,0.0,0.0,0.0,0.0,0.9387,0.952,0.9814,0.9775,0.9673,0.9645,0.9005,0.8395,0.7928,0.7589,0.0,0.0,0.0,0.0,0.0,0.0,0.0,0.6182,0.6196,0.6487,0.7026,0.6766,0.6914,0.7456,0.6966,0.6772,0.6849,0.6369,0.611,0.6067,0.5925,0.5853,0.5888,0.5844,0.5552,0.0,0.0,0.0,0.0,0.0,0.0,0.0,0.0,0.0,0.0,0.0,0.0,0.0,0.0,0.0,0.0,0.0,0.2906,0.0,0.0,0.0,0.0,0.0,0.0,0.0,0.365,0.3648,0.3704,0.3908,0.3424,0.2987,0.2948,0.2409,0.0,0.0,0.0,0.0,0.0,0.0,0.0,0.0,0.0,0.0,0.0,0.0,0.0,0.0,-1.0406,-1.0694,-1.2635,-1.1853,-1.1414,-1.1414,-1.3318,-1.4346,-1.4442,-1.535,-1.5784,-1.5784,-1.5784,0.0,0.0,0.0,0.0,0.0,-1.5879,-1.644,-1.7333,-1.7372,-1.801,-1.8926,-1.8926,-1.9521,-2.0393,0.0,0.0,0.0,0.0,0.0,0.0,0.0,0.0,0.0,0.0,0.9573,0.9468,0.9071,0.8546,0.8063,0.0,0.0,0.0,0.0,0.0,0.0,0.0,0.0,0.0,0.5905,0.6132,0.6298,0.6327,0.6669,0.6994,0.7265,0.7134,0.6933,0.6652,0.6553,0.6252,0.584,0.5443,0.5442,0.5642,0.5391,0.5297,0.0,0.0,0.0,0.0,0.3962,0.3742,0.0,0.0,0.0,0.0,0.0,0.0,0.0,0.0,0.3629,0.3901,0.3925,0.0,0.3776,0.389,0.3839,0.3824,0.0,0.0,0.0,0.0,0.0,0.0,0.0,0.3184,0.2828,0.2314,0.1591,0.0,0.0,0.0,0.0,0.0,0.0,0.0,0.0,0.0,0.0,0.0,0.0,0.0,0.0,-1.1688,-1.2198,-1.2678,-1.327,-1.3565,-1.3565,-1.4052,-1.4682,-1.5445,-1.5689,-1.5784,-1.5784,-1.5784,0.0,0.0,0.0,0.0,-1.5879,-1.6629,-1.7099,-1.7372,-1.8149,-1.9063,-1.9931,-1.9931,-2.0529,-2.1365,0.0,0.0,0.0,0.0,0.0,0.0,0.0,0.0,0.0,0.0,0.9111,0.8978,0.8688,0.8275,0.7999,0.0,0.0,0.0,0.0,0.0,0.0,0.0,0.0,0.6186,0.5713,0.5956,0.6144,0.6327,0.6653,0.6976,0.733,0.7138,0.6982,0.6875,0.6561,0.6193,0.5815,0.558,0.5574,0.5705,0.5481,0.0,0.0,0.0,0.0,0.0,0.3655,0.3465,0.0,0.3401,0.3704,0.3952,0.0,0.0,0.0,0.0,0.3739,0.3929,0.4074,0.4104,0.4132,0.42,0.4056,0.39,0.3804,0.0,0.0,0.0,0.0,0.0,0.0,0.0,0.0,0.0,0.0,0.0,0.0,0.0,0.0,0.0,0.0,0.0,0.0,0.0,0.0,0.0,0.0,0.0,0.0,-1.278,-1.3264,-1.4082,-1.4382,-1.4436,-1.4298,-1.4777,-1.5255,-1.5784,-1.5784,-1.5784,-1.5784,-1.5784,-1.5784,0.0,0.0,0.0,-1.6534,-1.7091,-1.7831,-1.8742,-1.9293,-2.0076,-2.0943,-2.0943,-2.1275,-2.1696,0.0,0.0,0.0,0.0,0.0,0.0,0.0,0.0,0.0,0.0,0.0,0.0,0.0,0.0,0.0,0.0,0.0,0.0,0.0,0.0,0.0,0.0,0.6155,0.6092,0.5642,0.5824,0.6158,0.6648,0.6728,0.7035,0.7489,0.7073,0.6909,0.6896,0.6282,0.5915,0.5782,0.5739,0.5762,0.5774,0.568,0.0,0.0,0.0,0.0,0.0,0.0,0.0,0.0,0.3089,0.3374,0.374,0.3919,0.0,0.0,0.0,0.0,0.0,0.4017,0.3925,0.3878,0.4089,0.3976,0.3746,0.3443,0.0,0.0,0.0,0.0,0.0,0.0,0.0,0.0,0.0,0.0,0.0,0.0,0.0,0.0,0.0,0.0,0.0,0.0,0.0,0.0,0.0,0.0,0.0,0.0,-1.3896,-1.4328,-1.5872,-1.5289,-1.4813,-1.4586,-1.5397,-1.5784,-1.5784,-1.5784,-1.5784,-1.5784,-1.5784,-1.5784,0.0,0.0,0.0,-1.7326,-1.7466,-1.8603,-2.0294,-2.0484,-2.0997,-2.1696,-2.1696,-2.1696,-2.1696,0.0,0.0,0.0,0.0,0.0,0.0,0.0,0.0,0.0,0.0,0.0,0.0,0.0,0.0,0.0,0.0,0.0,0.0,0.0,0.0,0.0,0.5924,0.6205,0.6224,0.5874,0.6251,0.6596,0.6867,0.705,0.7258,0.7489,0.7073,0.6445,0.5642,0.5223,0.5097,0.5219,0.5028,0.5064,0.5229,0.5272,0.0,0.0,0.0,0.0,0.0,0.0,0.0,0.0,0.2076,0.2336,0.2519,0.2846,0.0,0.0,0.0,0.0,0.0,0.4273,0.3447,0.277,0.3979,0.411,0.3984,0.4119,0.0,0.0,0.0,0.0,0.0,0.0,0.0,0.0,0.0,0.0,0.0,0.0,0.0,0.0,0.0,0.0,0.0,0.0,0.0,0.0,0.0,0.0,0.0,0.0,-1.5622,-1.6197,-1.6494,-1.6163,-1.5933,-1.5933,-1.5832,-1.5784,-1.5784,-1.5784,-1.5784,-1.5784,-1.5784,-1.5784,-1.5784,0.0,-1.6393,-1.7372,-1.8241,-1.9247,-2.0393,-2.1177,-2.1553,-2.1696,-2.1696,-2.1696,-2.1696,0.0,0.0,0.0,0.0,0.0,0.0,0.0,0.0,0.0,0.0,0.0,0.0,0.0,0.0,0.0,0.0,0.0,0.0,0.0,0.0,0.6787,0.6197,0.6582,0.6634,0.6189,0.6549,0.6847,0.7069,0.7144,0.7154,0.7072,0.6687,0.6323,0.5947,0.5749,0.5514,0.5282,0.555,0.517,0.4364,0.0,0.0,0.0,0.0,0.0,0.0,0.0,0.0,0.0,0.0,0.1899,0.2365,0.2415,0.0,0.0,0.0,0.0,0.0,0.3659,0.3193,0.2735,0.2996,0.2459,0.1814,0.1755,0.0,0.0,0.0,0.0,0.0,0.0,0.0,0.0,0.0,0.0,0.0,0.0,0.0,0.0,0.0,0.0,0.0,0.0,0.0,0.0,0.0,0.0,0.0,0.0,0.0,-1.673,-1.6588,-1.6643,-1.6508,-1.6224,-1.6076,-1.5927,-1.5784,-1.5784,-1.5784,-1.5784,-1.5784,-1.5784,-1.5832,0.0,-1.7178,-1.8195,-1.9201,-2.0167,-2.1087,-2.1553,-2.1696,-2.1696,-2.1696,-2.1696,-2.1696,0.0,0.0,0.0,0.0,0.0,0.0,0.0,0.0,0.0,0.0,0.0,0.0,0.0,0.0,0.0,0.0,0.0,0.0,0.0,0.7265,0.6941,0.6544,0.696,0.6976,0.6541,0.6844,0.7103,0.7261,0.7145,0.6893,0.6495,0.6337,0.6177,0.6086,0.6148,0.5881,0.5444,0.5947,0.5325,0.3993,0.0,0.0,0.0,0.0,0.0,0.0,0.0,0.0,0.0,0.0,0.0,0.0,0.0,0.0,0.0,0.2193,0.252,0.2859,0.2875,0.2634,0.2217,0.1645,0.0921,0.0,0.0,0.0,0.0,0.0,0.0,0.0,0.0,0.0,0.0,0.0,0.0,0.0,0.0,0.0,0.0,0.0,0.0,0.0,0.0,0.0,0.0,0.0,0.0,0.0,0.0,0.0,-1.6893,-1.677,-1.6782,-1.6642,-1.6407,-1.6243,-1.6055,-1.5784,-1.5784,-1.5784,-1.5784,-1.5784,-1.592,-1.6204,-1.6951,-1.801,-1.9201,-1.9977,-2.0853,-2.1696,-2.1696,-2.1696,-2.1696,-2.1696,-2.1696,-2.1696,0.0,0.0,0.0,0.0,0.0,0.0,0.0,0.0,0.0,0.0,0.0,0.0,0.0,0.0,0.0,0.0,0.0,0.0,0.0,0.7138,0.6909,0.6863,0.7064,0.7104,0.6863,0.7237,0.747,0.747,0.6976,0.6476,0.5962,0.6247,0.5953,0.5186,0.5382,0.5444,0.5411,0.5444,0.5224,0.4795,0.4439,0.0,0.0,0.0,0.0,0.0,0.0,0.0,0.0,0.0,0.0,0.0,0.0,0.0,0.1159,0.1965,0.2142,0.2109,0.2221,0.1277,0.0166,0.0,0.0726,0.0,0.0189,0.0037,0.0,-0.1,0.0,0.0,0.0,0.0,0.0,0.0,0.0,0.0,0.0,0.0,0.0,0.0,0.0,0.0,0.0,0.0,0.0,0.0,0.0,0.0,0.0,0.0,0.0,-1.7225,-1.6483,-1.634,-1.6932,-1.6394,-1.6016,-1.5784,-1.5784,-1.5784,-1.5784,-1.5784,-1.6298,-1.7185,-1.7279,-1.838,-2.0204,-2.0249,-2.0853,-2.1696,-2.1696,-2.1696,-2.1696,-2.1696,-2.1696,-2.1696,0.0,0.0,0.0,0.0,0.0,0.0,0.0,0.0,0.0,0.0,0.0,0.0,0.0,0.0,0.0,0.0,0.0,0.0,0.0,0.7363,0.7199,0.7106,0.7265,0.7293,0.7095,0.704,0.7108,0.7297,0.6557,0.6148,0.6085,0.6089,0.6085,0.6112,0.6178,0.6009,0.5734,0.5834,0.5181,0.4038,0.4007,0.3479,0.0,0.0,0.0,0.0,0.0,0.0,0.0,0.0,0.0329,0.0376,0.0653,0.0602,0.054,0.0863,0.1134,0.1314,0.129,0.0633,-0.0064,-0.026,-0.0324,0.0,0.0,-0.2123,-0.2171,-0.2419,-0.2916,0.0,0.0,0.0,0.0,0.0,0.0,0.0,0.0,0.0,0.0,0.0,0.0,0.0,0.0,0.0,0.0,0.0,0.0,0.0,0.0,0.0,0.0,-1.6733,-1.641,-1.6276,-1.6385,-1.6128,-1.6259,-1.665,-1.6256,-1.6305,-1.6723,-1.6723,-1.7271,-1.8288,-1.888,-1.9613,-2.0348,-2.0943,-2.1365,-2.1696,-2.1696,-2.1696,-2.1696,-2.1696,-2.1696,-2.1696,0.0,0.0,0.0,0.0,0.0,0.0,0.0,0.0,0.0,0.0,0.0,0.0,0.0,0.0,0.0,0.0,0.0,0.0,0.7517,0.7529,0.7455,0.7293,0.7363,0.7363,0.7297,0.6812,0.6717,0.7106,0.6401,0.6089,0.6116,0.6026,0.6217,0.659,0.6617,0.638,0.5973,0.6141,0.5381,0.4067,0.3744,0.3328,0.0,0.0,0.0,0.0,0.0,0.0,0.0,0.0,0.0458,0.0451,0.0369,0.0288,0.0172,0.0087,0.0263,0.0467,0.0311,0.0058,-0.0245,-0.0701,0.0,0.0,-0.3188,-0.335,-0.3344,-0.3836,-0.4497,0.0,0.0,0.0,0.0,0.0,0.0,0.0,0.0,0.0,0.0,0.0,0.0,0.0,0.0,0.0,0.0,0.0,0.0,0.0,0.0,0.0,0.0,0.0,-1.6177,-1.6213,-1.6544,-1.636,-1.678,-1.7725,-1.72,-1.7223,-1.7785,-1.7785,-1.8334,-1.9293,-1.9977,-2.0484,-2.0808,-2.1454,-2.1696,-2.1696,-2.1696,-2.1731,-2.183,-2.183,-2.1874,-2.1909,0.0,0.0,0.0,0.0,0.0,0.0,0.0,0.0,0.0,0.0,0.0,0.0,0.0,0.0,0.0,0.0,0.0,0.0,0.7507,0.7558,0.757,0.7512,0.7297,0.7297,0.7489,0.6653,0.6425,0.6876,0.6561,0.6219,0.5899,0.6116,0.6278,0.6417,0.6404,0.6281,0.6104,0.616,0.588,0.5274,0.3804,0.3444,0.3561,0.0,0.0,0.0,0.0,0.0,0.0,0.0,0.0598,0.0561,0.0274,0.0192,0.0134,-0.0111,-0.0287,-0.0438,-0.0651,-0.0575,-0.0629,0.0,0.0,0.0,-0.3161,-0.3154,-0.3327,-0.5238,0.0,0.0,0.0,0.0,0.0,0.0,0.0,0.0,0.0,0.0,0.0,0.0,0.0,0.0,0.0,0.0,0.0,0.0,0.0,0.0,0.0,0.0,0.0,0.0,-1.5752,-1.6147,-1.7696,-1.7157,-1.7588,-1.8916,-1.8718,-1.868,-1.8834,-1.8834,-1.9384,-2.0294,-2.0294,-2.0853,-2.1696,-2.1696,-2.1696,-2.1696,-2.1696,-2.1874,-2.2097,-2.2097,-2.222,-2.2353,0.0,0.0,0.0,0.0,0.0,0.0,0.0,0.0,0.0,0.0,0.0,0.0,0.0,0.0,0.0,0.0,0.0,0.0,0.7852,0.7506,0.7367,0.7489,0.7171,0.6975,0.6937,0.6685,0.6397,0.6069,0.6273,0.6375,0.6318,0.6346,0.6501,0.6733,0.6654,0.6572,0.6498,0.6297,0.564,0.4696,0.394,0.307,0.2199,0.0,0.0,0.0,0.0,0.0,0.0,0.0,0.0,0.0,0.028,0.0196,0.0135,-0.0114,-0.0173,-0.017,-0.0422,-0.1265,0.0,-0.2189,0.0,0.0,0.0,-0.401,0.0,0.0,0.0,0.0,0.0,0.0,0.0,0.0,0.0,0.0,0.0,0.0,0.0,0.0,0.0,0.0,0.0,0.0,0.0,0.0,0.0,0.0,0.0,0.0,0.0,0.0,-1.6296,-1.6611,-1.7689,-1.7679,-1.8244,-1.9411,-1.9633,-1.9628,-1.9418,-1.9418,-1.9952,-2.0879,-2.0879,-2.1271,-2.2008,-2.2132,-2.2176,-2.2176,-2.2176,-2.2264,-2.2309,-2.2309,-2.2353,-2.2397,0.0,0.0,0.0,0.0,0.0,0.0,0.0,0.0,0.0,0.0,0.0,0.0,0.0,0.0,0.0,0.0,0.0,0.0,0.0,0.7385,0.7182,0.726,0.6975,0.6745,0.6581,0.6675,0.6533,0.6189,0.631,0.6429,0.6459,0.6433,0.6412,0.6476,0.6547,0.6429,0.6115,0.5711,0.5045,0.4232,0.3403,0.2543,0.173,0.0,0.0,0.0,0.0,0.0,0.0,0.0,0.0,0.0,0.033,0.0273,0.0158,-0.0501,-0.0669,-0.0802,-0.158,0.0,0.0,-0.3558,-0.4418,-0.5274,-0.57,0.0,0.0,0.0,0.0,0.0,0.0,0.0,0.0,0.0,0.0,0.0,0.0,0.0,0.0,0.0,0.0,0.0,0.0,0.0,0.0,0.0,0.0,0.0,0.0,0.0,0.0,0.0,-1.6427,-1.696,-1.8103,-1.8123,-1.8797,-2.0099,-2.0095,-2.0119,-2.0281,-2.0439,-2.0775,-2.1355,-2.1443,-2.1766,-2.222,-2.2353,-2.2397,-2.2397,-2.2397,-2.2485,-2.2574,-2.2574,-2.2618,-2.2662,0.0,0.0,0.0,0.0,0.0,0.0,0.0,0.0,0.0,0.0,0.7488,0.0,0.0,0.0,0.0,0.0,0.0,0.0,0.0,0.7222,0.7012,0.6905,0.6745,0.6576,0.642,0.6581,0.6745,0.6848,0.6585,0.6441,0.6424,0.6412,0.616,0.5808,0.6156,0.5923,0.5155,0.4687,0.425,0.3729,0.2486,0.1959,0.1847,0.1149,0.0,0.0,0.0,0.0,0.0,0.0,0.0,0.0,0.0449,0.0416,0.0177,-0.0945,-0.1436,-0.1936,-0.3361,0.0,0.0,-0.5324,0.0,0.0,0.0,0.0,0.0,0.0,0.0,0.0,0.0,0.0,0.0,0.0,0.0,0.0,0.0,0.0,0.0,0.0,0.0,0.0,0.0,0.0,0.0,0.0,0.0,0.0,0.0,0.0,0.0,-1.6337,-1.6509,-1.7326,-1.8785,-1.8571,-1.9186,-2.0699,-2.0218,-2.0356,-2.1062,-2.1376,-2.1566,-2.1575,-2.1878,-2.218,-2.2385,-2.2385,-2.2448,-2.2476,-2.2476,-2.2618,-2.2847,-2.2847,-2.2925,-2.3057,0.0,0.0,0.0,0.0,0.0,0.0,0.0,0.0,0.0,0.0,0.0,0.0,0.0,0.0,0.0,0.0,0.0,0.0,0.0,0.7061,0.6833,0.6913,0.6511,0.6346,0.6387,0.6453,0.6482,0.6519,0.6683,0.6737,0.6623,0.638,0.6055,0.5737,0.5803,0.5307,0.4426,0.4493,0.3757,0.2543,0.2153,0.1708,0.1261,0.1009,0.0902,0.0,0.0,0.0,0.0,0.0,0.0,0.0,0.0462,0.0444,0.0367,-0.0157,-0.0947,-0.1832,-0.2546,-0.4084,0.0,0.0,0.0,0.0,0.0,0.0,0.0,0.0,0.0,0.0,0.0,0.0,0.0,0.0,0.0,0.0,0.0,0.0,0.0,0.0,0.0,0.0,0.0,0.0,0.0,0.0,0.0,0.0,0.0,0.0,0.0,-1.831,-1.8287,-1.8585,-1.9399,-1.9511,-1.9716,0.0,-2.0283,-2.0484,-2.064,-2.0378,-2.0352,-2.0578,-2.1147,-2.1731,-2.227,-2.2389,-2.2669,-2.2969,-2.2969,-2.296,-2.3057,-2.3057,-2.3047,-2.3091,0.0,0.0,0.0,0.0,0.0,0.0,0.0,0.0,0.0,0.0,0.0,0.0,0.0,0.0,0.0,0.0,0.0,0.0,0.0,0.0,0.6548,0.6581,0.6346,0.6142,0.6064,0.6222,0.6213,0.6065,0.6223,0.6282,0.6211,0.6049,0.5753,0.5417,0.5385,0.4882,0.4076,0.3598,0.2837,0.1939,0.1612,0.1298,0.101,0.0926,0.0898,0.0898,0.084,0.0,0.0,0.0,0.0,0.0,0.0,0.0,0.0385,-0.02,-0.0842,-0.1713,-0.3276,0.0,0.0,-0.717,0.0,0.0,0.0,0.0,0.0,0.0,0.0,0.0,0.0,0.0,0.0,0.0,0.0,0.0,0.0,0.0,0.0,0.0,0.0,0.0,0.0,0.0,0.0,0.0,0.0,0.0,0.0,-1.6345,-1.6624,-1.7868,-1.7876,-1.8175,-1.8825,-1.9352,-1.9692,-1.9893,-1.9934,-1.9934,-1.9943,-2.0127,-2.0375,-2.0705,-2.1046,-2.1524,-2.2068,-2.2389,-2.2604,-2.2818,-2.3013,-2.3091,-2.3091,-2.3091,-2.3091,-2.3091,0.0,0.0,0.0,0.0,0.0,0.0,0.0,0.0,0.0,0.0,0.0,0.0,0.0,0.0,0.0,0.0,0.0,0.0,0.0,0.0,0.0,0.6148,0.6085,0.5906,0.5642,0.5864,0.584,0.5548,0.5577,0.5559,0.5566,0.5627,0.5371,0.4839,0.4867,0.4399,0.357,0.2572,0.1937,0.1568,0.1091,0.0921,0.0946,0.0896,0.0898,0.0872,0.0781,0.0804,0.0,0.0,0.0,0.0,0.0,0.0,0.0426,-0.0332,-0.0785,-0.1598,-0.4005,0.0,-0.6284,-0.805,0.0,0.0,0.0,0.0,0.0,0.0,0.0,0.0,0.0,0.0,0.0,0.0,0.0,0.0,0.0,0.0,0.0,0.0,0.0,0.0,0.0,0.0,0.0,0.0,0.0,0.0,-1.7423,-1.6617,-1.646,-1.7188,-1.7359,-1.7683,-1.8198,-1.8935,-1.9476,-1.9774,-1.9467,-1.9301,-1.932,-2.0049,-2.0601,-2.0964,-2.1005,-2.131,-2.1807,-2.2236,-2.2451,-2.2549,-2.2925,-2.3091,-2.3091,-2.3091,-2.3091,-2.3091,0.0,0.0,0.0,0.0,0.0,0.0,0.0,0.0,0.0,0.0,0.0,0.0,0.0,0.0,0.0,0.0,0.0,0.0,0.0,0.0,0.0,0.5954,0.5557,0.5378,0.5424,0.5253,0.5111,0.5009,0.5078,0.5062,0.5009,0.5297,0.4844,0.383,0.4167,0.3475,0.2099,0.2034,0.1708,0.1171,0.0985,0.0962,0.105,0.0943,0.0898,0.0898,0.0874,0.0873,0.0,0.0,0.0,0.0,0.0,0.0,0.0,0.0565,-0.0388,-0.1572,0.0,0.0,-0.7025,0.0,0.0,0.0,0.0,0.0,0.0,0.0,0.0,0.0,0.0,0.0,0.0,0.0,0.0,0.0,0.0,0.0,0.0,0.0,0.0,0.0,0.0,0.0,0.0,0.0,0.0,0.0,-1.8141,-1.802,-1.8359,-1.9192,-1.9231,-1.9192,-1.9134,-1.9222,-1.9329,-1.9384,-1.9329,-1.9301,-1.9311,-1.9589,-1.9844,-2.0072,-2.031,-2.0768,-2.1317,-2.1787,-2.2187,-2.2549,-2.2925,-2.3091,-2.3091,-2.3091,-2.3091,-2.3091,0.0,0.0,0.0,0.0,0.0,0.0,0.0,0.0,0.0,0.0,0.0,0.0,0.0,0.0,0.0,0.0,0.0,0.0,0.0,0.0,0.0,0.5628,0.5428,0.5217,0.5012,0.4998,0.4829,0.4493,0.4652,0.4432,0.3889,0.4309,0.4289,0.3867,0.325,0.2559,0.1879,0.1566,0.1254,0.0984,0.0886,0.0603,0.0296,0.0741,0.0609,0.0241,0.0,0.0,0.0,0.0,0.0,0.0,0.0,0.0,0.0,0.0,-0.0349,0.0,-0.3318,-0.5447,-0.741,0.0,0.0,0.0,0.0,0.0,0.0,0.0,0.0,0.0,0.0,0.0,0.0,0.0,0.0,0.0,0.0,0.0,0.0,0.0,0.0,0.0,0.0,0.0,0.0,0.0,0.0,-1.8318,-1.9164,-1.863,-1.843,-1.8696,-1.8807,-1.8767,-1.8567,-1.9054,-1.9301,-1.9301,-1.9301,-1.9301,-1.9301,-1.9627,-1.9833,-1.9902,-2.0186,-2.0527,-2.0918,-2.1602,-2.1992,-2.2227,-2.2838,-2.3091,-2.3178,-2.3691,-2.356,-2.3266,0.0,0.0,0.0,0.0,0.0,0.0,0.0,0.0,0.0,0.0,0.0,0.0,0.0,0.0,0.0,0.0,0.0,0.0,0.0,0.0,0.0,0.5213,0.514,0.4982,0.4697,0.4765,0.4604,0.4193,0.4156,0.3798,0.3101,0.3105,0.323,0.3423,0.2467,0.1894,0.1637,0.12,0.0935,0.0799,0.0586,0.0115,-0.0411,0.0208,0.0,-0.0604,0.0377,0.0,0.0,0.0,0.0,0.0,0.0,0.0,0.0,0.0,0.0,0.0,0.0,0.0,0.0,0.0,0.0,0.0,0.0,0.0,0.0,0.0,0.0,0.0,0.0,0.0,0.0,0.0,0.0,0.0,0.0,0.0,0.0,0.0,0.0,0.0,0.0,0.0,0.0,0.0,0.0,-1.9301,-1.9784,-1.9125,-1.859,-1.8407,-1.8559,-1.8559,-1.8407,-1.9015,-1.9301,-1.9301,-1.9301,-1.9341,-1.939,-1.9745,-1.9942,-2.002,-2.0264,-2.045,-2.0674,-2.1564,-2.1885,-2.1973,-2.2812,-2.3091,-2.3178,-2.3897,-2.3864,-2.3647,0.0,0.0,0.0,0.0,0.0,0.0,0.0,0.0,0.0,0.0,0.0,0.0,0.7171,0.6609,0.628,0.6383,0.6086,0.5723,0.5283,0.492,0.4751,0.4742,0.4436,0.0,0.4691,0.4414,0.4227,0.4193,0.3514,0.3145,0.3071,0.1818,0.1405,0.1756,0.2062,0.165,0.0792,0.1013,0.0904,0.0564,-0.0088,-0.049,-0.068,0.0,0.0,0.0,0.0,0.0,0.0,0.0,0.0,0.0,0.0,0.0,0.0,0.0,0.0,0.0,0.0,0.0,0.0,0.0,0.0,0.0,0.0,0.0,0.0,0.0,0.0,0.0,0.0,0.0,0.0,0.0,0.0,0.0,0.0,0.0,0.0,0.0,0.0,0.0,0.0,0.0,0.0,0.0,0.0,-2.0029,-1.9645,-1.9745,-1.9706,-1.9518,-1.9518,-1.9518,-1.9527,-1.939,-1.9301,-1.9301,-1.9301,-1.939,-1.9597,-1.9784,-2.002,-2.0303,-2.0489,-2.0605,-2.0674,-2.1564,-2.1885,-2.1973,-2.2812,-2.3091,-2.3101,-2.3135,-2.3691,-2.4456,0.0,0.0,0.0,0.0,0.0,0.0,0.0,0.0,0.0,0.0,0.0,0.0,0.0,0.6548,0.6317,0.628,0.5723,0.5308,0.5154,0.4945,0.4783,0.4716,0.4575,0.4528,0.4576,0.4243,0.4024,0.3938,0.3378,0.281,0.2258,0.1695,0.1159,0.0718,0.0946,0.0913,0.0704,0.0659,0.0593,0.0,0.0,0.0,0.0,0.0,0.0,0.0,0.0,0.0,0.0,0.0,0.0,0.0,0.0,-0.0776,-0.0924,-0.144,-0.1994,0.0,0.0,0.0,0.0,0.0,0.0,0.0,0.0,0.0,0.0,0.0,0.0,0.0,0.0,0.0,0.0,0.0,0.0,0.0,0.0,0.0,0.0,0.0,0.0,0.0,0.0,0.0,0.0,0.0,0.0,0.0,-2.0029,-1.9833,-1.9715,-1.9784,-1.9685,-1.9557,-1.9429,-1.9341,-1.9341,-1.9478,-1.9478,-1.9597,-1.9794,-2.0069,-2.0225,-2.0323,-2.079,-2.083,-2.0674,-2.1564,-2.1885,-2.1973,-2.2812,-2.3091,-2.3222,-2.4392,-2.4691,-2.4744,0.0,0.0,0.0,0.0,0.0,0.0,0.0,0.0,0.0,0.7297,0.0,0.0,0.0,0.0,0.6043,0.5792,0.529,0.4942,0.49,0.4763,0.4604,0.4476,0.4502,0.4484,0.4411,0.403,0.3783,0.3658,0.2762,0.2012,0.1415,0.1074,0.0623,0.0058,0.0145,0.0319,0.052,0.0,0.0,0.0113,0.0,0.0,-0.2784,0.0,0.0,0.0,0.0,0.0,0.0,0.0,0.0,0.0,0.0,-0.2095,-0.185,-0.2252,-0.256,0.0,-0.3643,0.0,0.0,0.0,0.0,0.0,0.0,0.0,0.0,0.0,0.0,0.0,0.0,0.0,0.0,0.0,0.0,0.0,0.0,0.0,0.0,0.0,0.0,0.0,0.0,0.0,0.0,0.0,0.0,0.0,-2.0303,-1.999,-1.9833,-1.9902,-1.9872,-1.9715,-1.9499,-1.9499,-1.9587,-1.9715,-1.9715,-1.9833,-2.002,-2.0225,-2.0342,-2.044,-2.0965,-2.1064,-2.0859,-2.1738,-2.21,-2.2168,-2.2818,-2.3309,-2.3734,-2.4904,-2.5368,-2.5663,0.0,0.0,0.0,0.0,0.0,0.0,0.0,0.0,0.6957,0.7377,0.0,0.0,0.0,0.0,0.0,0.4925,0.4775,0.4629,0.4478,0.4295,0.4107,0.3965,0.4079,0.4166,0.4166,0.3702,0.3428,0.3357,0.162,0.0757,0.067,-0.0056,-0.0336,-0.0196,-0.0196,-0.0056,0.0196,0.0,0.0224,-0.0171,0.0,-0.2797,-0.259,0.0,0.0,0.0,-0.3259,-0.3563,0.0,0.0,0.0,0.0,0.0,-0.3648,-0.2732,-0.2868,-0.2891,0.0,0.0,0.0,0.0,0.0,0.0,0.0,0.0,0.0,0.0,0.0,0.0,0.0,0.0,0.0,0.0,0.0,0.0,0.0,0.0,0.0,0.0,0.0,0.0,0.0,0.0,0.0,0.0,0.0,0.0,-2.0489,-2.0303,-2.0303,-2.0186,-1.9902,-2.0147,-2.0186,-1.9902,-1.9902,-1.9902,-1.9902,-1.9902,-2.0059,-2.0303,-2.0303,-2.042,-2.0625,-2.1045,-2.124,-2.1318,-2.2168,-2.251,-2.2601,-2.2978,-2.3734,-2.4541,-2.4584,-2.5673,-2.7185,0.0,0.0,0.0,0.0,0.0,0.5808,0.5999,0.5492,0.5151,0.0,0.0,0.0,0.475,0.4805,0.4719,0.4431,0.4594,0.4499,0.4023,0.3841,0.3544,0.3072,0.31,0.3128,0.3128,0.2573,0.227,0.2237,0.1082,0.05,0.0476,-0.0028,-0.0224,-0.0196,-0.0191,-0.0162,-0.0081,-0.0166,0.0,0.0,-0.2453,-0.3698,0.0,0.0,0.0,0.0,0.0,-0.7676,0.0,0.0,-0.7964,-0.6147,0.0,0.0,0.0,-0.2821,0.0,0.0,-0.2834,0.0,0.0,0.0,0.0,0.0,0.0,0.0,0.0,0.0,0.0,0.0,0.0,0.0,0.0,0.0,0.0,0.0,0.0,0.0,0.0,0.0,0.0,0.0,0.0,0.0,0.0,0.0,-2.0459,-2.042,-2.0489,-2.0527,-2.0333,-1.9902,-2.0147,-2.0186,-1.9902,-1.9902,-1.9981,-2.0186,-2.0186,-2.0303,-2.0527,-2.0527,-2.0527,-2.0625,-2.1045,-2.1759,-2.2645,-2.2527,-2.2872,-2.3491,-2.3939,-2.4659,-2.5537,-2.6216,-2.6764,-2.7307,0.0,0.0,0.0,0.0,0.0,0.49,0.5093,0.4564,0.4199,0.0,0.0,0.0,0.374,0.3728,0.3722,0.3614,0.372,0.3663,0.3367,0.3218,0.2973,0.2629,0.2681,0.2597,0.2402,0.1929,0.1654,0.1593,0.0607,0.0138,0.0224,-0.0252,-0.0449,-0.042,-0.0467,0.0,0.0,0.0,0.0,0.0,-0.3078,0.0,0.0,-0.6421,-0.8115,0.0,0.0,0.0,-0.9762,-1.1146,-0.9895,0.0,0.0,0.0,0.0,0.0,0.0,0.0,0.0,0.0,0.0,0.0,0.0,0.0,0.0,-0.8242,0.0,0.0,0.0,0.0,0.0,0.0,0.0,0.0,0.0,0.0,0.0,0.0,0.0,0.0,0.0,0.0,0.0,0.0,0.0,-2.0605,-2.0489,-2.0459,-2.045,-2.0566,-2.045,-2.0069,-2.0303,-2.0333,-2.0177,-2.0177,-2.0255,-2.042,-2.042,-2.0498,-2.0605,-2.0605,-2.0605,-2.0625,-2.1382,-2.2261,-2.3204,-2.3227,-2.3639,-2.4344,-2.4851,-2.546,-2.6132,-2.6942,-2.7429,-2.7805,0.0,0.0,0.4915,0.4645,0.4424,0.4372,0.4575,0.3964,0.3625,0.0,0.3537,0.3121,0.2977,0.2749,0.2641,0.2717,0.2593,0.2521,0.2581,0.2442,0.233,0.2269,0.2403,0.2289,0.1869,0.1559,0.1337,0.1181,0.019,-0.0218,-0.0084,-0.0645,-0.0842,-0.0729,-0.0835,0.0,0.0,0.0,0.0,-0.0768,-0.3861,-0.4839,0.0,0.0,-0.8749,0.0,-0.9546,-0.9764,-1.0326,-1.2242,-1.1233,0.0,0.0,0.0,0.0,0.0,-0.305,0.0,0.0,0.0,0.0,0.0,0.0,0.0,-0.7764,-0.8219,-0.8831,0.0,0.0,0.0,0.0,0.0,0.0,0.0,0.0,0.0,0.0,0.0,0.0,0.0,0.0,0.0,0.0,-2.0303,-2.0566,-2.0566,-2.0605,-2.0527,-2.0342,-2.0489,-2.0527,-2.0342,-2.0489,-2.0605,-2.0605,-2.0605,-2.0605,-2.0605,-2.0605,-2.0605,-2.0605,-2.0683,-2.0712,-2.0809,-2.1978,-2.2843,-2.3421,-2.4036,-2.4628,-2.5193,-2.5661,-2.6158,-2.6615,-2.7163,-2.7846,-2.851,0.0,0.4042,0.3641,0.2797,0.2571,0.2532,0.2617,0.2343,0.2107,0.2132,0.1839,0.1619,0.1599,0.1829,0.2033,0.2223,0.2385,0.2316,0.1849,0.1625,0.1309,0.0818,0.1,0.106,0.097,0.0793,0.0637,0.0496,-0.0085,-0.0446,-0.0561,-0.0785,-0.0898,-0.0867,-0.0714,0.0,0.0,0.0,0.0,-0.2588,-0.3995,0.0,-0.6508,-0.853,-1.0318,-1.1818,-1.2367,-1.2824,-1.3118,0.0,-1.1639,-1.0509,0.0,0.0,0.0,0.0,0.0,0.0,0.0,0.0,0.0,0.0,0.0,0.0,-0.6542,-0.6842,-0.7385,0.0,0.0,0.0,0.0,0.0,0.0,0.0,0.0,0.0,0.0,0.0,0.0,0.0,0.0,0.0,0.0,-2.0168,-2.0342,-2.0342,-2.0489,-2.0566,-2.0527,-2.0566,-2.0566,-2.0527,-2.0566,-2.0605,-2.0605,-2.0605,-2.0605,-2.0605,-2.0605,-2.0605,-2.0605,-2.128,-2.1576,-2.1614,-2.2493,-2.3512,-2.4562,-2.4714,-2.5297,-2.6149,-2.6251,-2.6757,-2.7505,-2.8068,-2.8339,-2.851,0.0,0.3177,0.2647,0.2051,0.1916,0.1916,0.1944,0.159,0.1326,0.1383,0.1165,0.1039,0.1102,0.1277,0.1457,0.1604,0.1647,0.1541,0.1325,0.1158,0.094,0.071,0.0803,0.0766,0.0604,0.0535,0.0409,0.0259,-0.0198,-0.0396,-0.0345,-0.0735,-0.0962,-0.1118,-0.1248,0.0,0.0,0.0,-0.3114,-0.4329,-0.5373,0.0,-0.7887,-1.0148,-1.1794,-1.3009,-1.3639,-1.4104,-1.4197,-1.2917,-1.1737,0.0,0.0,-0.8522,-0.7531,0.0,-0.6335,-0.6519,0.0,0.0,0.0,-0.6079,0.0,0.0,0.0,-0.7087,-0.7315,0.0,0.0,0.0,0.0,0.0,0.0,0.0,0.0,0.0,0.0,0.0,0.0,0.0,0.0,0.0,0.0,-1.9401,-1.9764,-2.0081,-2.0401,-2.0605,-2.0605,-2.0605,-2.0605,-2.0605,-2.0605,-2.0605,-2.0605,-2.0605,-2.0605,-2.0605,-2.1021,-2.1203,-2.1242,-2.2021,-2.2397,-2.2435,-2.3206,-2.4065,-2.4918,-2.5043,-2.5565,-2.6291,-2.6831,-2.7162,-2.739,-2.8222,-2.851,-2.851,0.0,0.2561,0.1967,0.1748,0.1758,0.1735,0.1647,0.1236,0.1004,0.1129,0.0855,0.0661,0.0713,0.049,0.033,0.0304,0.0033,0.0033,0.0,0.0,0.0455,0.0874,0.0898,0.0791,0.0501,0.0524,0.0428,0.025,-0.0083,-0.0252,-0.0231,-0.0792,-0.1222,-0.1601,-0.2368,-0.2669,0.0,0.0,0.0,-0.606,0.0,-0.8043,-0.8969,-1.1341,-1.2753,-1.3519,-1.4314,-1.4657,-1.458,-1.3432,0.0,-1.0704,-1.0778,-0.962,0.0,0.0,0.0,0.0,0.0,0.0,0.0,0.0,0.0,-0.6503,0.0,0.0,0.0,0.0,0.0,0.0,0.0,0.0,0.0,0.0,0.0,0.0,0.0,0.0,0.0,0.0,0.0,0.0,0.0,-1.8337,-1.8929,-1.9681,-2.0011,-2.0235,-2.0468,-2.0556,-2.0605,-2.0605,-2.0605,-2.0673,-2.0828,-2.0828,-2.0905,-2.1049,-2.1718,-2.2021,-2.2059,-2.2835,-2.3206,-2.3243,-2.4011,-2.4568,-2.5001,-2.5326,-2.5709,-2.6202,-2.7188,-2.727,-2.7018,-2.8086,-2.851,-2.8538,0.2004,0.1919,0.1719,0.1404,0.1558,0.1562,0.106,0.1091,0.1131,0.1041,0.0472,-0.0032,0.0,0.0,0.0,0.0,0.0,0.0,-0.142,0.0,-0.0936,0.0484,0.0564,0.0548,0.0501,0.0612,0.0591,0.0375,0.0337,-0.0156,-0.1075,-0.1381,-0.1877,-0.2621,-0.4408,0.0,0.0,0.0,-0.6747,0.0,-0.8572,-0.9118,0.0,-1.1184,-1.2448,-1.3561,-1.4831,-1.5173,-1.4878,0.0,-1.2995,-1.2405,0.0,-1.0814,0.0,0.0,0.0,0.0,0.0,0.0,0.0,0.0,-0.6997,0.0,0.0,0.0,0.0,0.0,0.0,0.0,0.0,0.0,0.0,0.0,0.0,0.0,0.0,0.0,0.0,0.0,0.0,0.0,0.0,0.0,-1.7739,-1.9014,-1.8764,-1.8981,-1.9951,-2.0352,-2.0605,-2.0605,-2.0605,-2.0944,-2.1652,-2.1652,-2.2021,-2.2734,-2.2809,-2.2883,-2.2883,-2.3647,-2.3975,-2.4011,-2.4826,-2.5194,-2.5278,-2.5805,-2.6045,-2.6154,-2.6741,-2.6946,-2.7018,-2.8086,-2.8618,-2.8764,0.1431,0.1515,0.0,0.1122,0.1154,0.115,0.0943,0.0913,0.0864,0.0738,0.0468,0.0,0.0,0.0,0.0,0.0,0.0,-0.2245,0.0,0.0,0.0,0.0,0.0,0.0,0.0745,0.0683,0.0553,0.0413,-0.0102,-0.0597,-0.1042,-0.1661,-0.2246,-0.2914,-0.4936,0.0,-0.5166,0.0,0.0,0.0,0.0,0.0,0.0,-1.2474,-1.3808,-1.4622,-1.5215,-1.5257,-1.5025,0.0,-1.3293,0.0,0.0,0.0,0.0,0.0,0.0,0.0,0.0,0.0,0.0,0.0,0.0,0.0,0.0,0.0,-0.6704,0.0,0.0,0.0,0.0,0.0,0.0,0.0,0.0,0.0,0.0,0.0,0.0,0.0,0.0,0.0,0.0,0.0,0.0,0.0,-1.8174,-1.8466,-1.9816,-2.0088,-2.0523,-2.127,-2.1318,-2.169,-2.251,-2.251,-2.266,-2.2995,-2.3427,-2.3647,-2.3647,-2.4456,-2.4791,-2.4826,-2.5158,-2.5312,-2.5348,-2.5877,-2.6093,-2.6178,-2.7018,-2.7354,-2.745,-2.8234,-2.855,-2.8657,0.0532,0.0,0.0,0.0,0.06,0.0699,0.0824,0.0795,0.0685,0.0,0.0,0.0,0.0277,-0.039,0.0,0.0,0.0,-0.3099,0.0,0.0,-0.1477,0.0,0.0,0.0,0.0,0.0,0.0279,0.0146,-0.0586,-0.1117,-0.1415,-0.2088,-0.2716,-0.3345,0.0,-0.6638,-0.6945,0.0,0.0,-0.975,-0.9803,-1.0434,-1.1627,-1.3639,-1.4824,-1.5423,-1.5665,-1.5624,-1.5455,-1.5379,-1.4131,0.0,-1.4652,0.0,0.0,0.0,0.0,0.0,-0.9904,0.0,0.0,0.0,0.0,0.0,0.0,0.0,0.0,0.0,0.0,0.0,0.0,0.0,0.0,0.0,0.0,0.0,0.0,0.0,0.0,0.0,0.0,0.0,0.0,0.0,0.0,-1.767,-1.7287,-1.7802,-1.9739,-2.0073,-2.0754,-2.1859,-2.206,-2.2499,-2.3279,-2.3316,-2.339,-2.3658,-2.4156,-2.4409,-2.4456,-2.5052,-2.5312,-2.5312,-2.5312,-2.5312,-2.5348,-2.5877,-2.619,-2.6418,-2.7356,-2.7774,-2.7981,-2.8366,-2.855,-2.8618,-0.1118,-0.0531,0.0,0.0,0.0,0.017,0.0645,0.0825,0.0,0.0,0.0,0.0,0.0,0.0,0.0,0.0,0.0,-0.7412,-0.5139,0.0,-0.3551,0.0,0.0,-0.0142,0.0,0.0,0.0,-0.0472,-0.0899,-0.1614,-0.2647,-0.2871,-0.3409,-0.4256,-0.6615,-0.7358,-0.7043,-0.9189,-1.0936,-1.2196,-1.2483,-1.2954,-1.3567,0.0,-1.4824,-1.5506,-1.6345,0.0,0.0,-1.6121,-1.5965,0.0,0.0,0.0,0.0,0.0,0.0,0.0,0.0,0.0,0.0,-0.8361,0.0,0.0,0.0,0.0,-0.7682,0.0,0.0,0.0,0.0,0.0,0.0,0.0,0.0,0.0,0.0,0.0,0.0,0.0,0.0,0.0,0.0,0.0,0.0,-1.6094,-1.5723,-1.6651,-1.9548,-2.0571,-2.1403,-2.215,-2.268,-2.3316,-2.4047,-2.4047,-2.4456,-2.5241,-2.5229,-2.5276,-2.5276,-2.5276,-2.5312,-2.5312,-2.5312,-2.5312,-2.5348,-2.5877,-2.6418,-2.6922,-2.7474,-2.8041,-2.8486,-2.8498,-2.8618,-2.8803,0.0,0.0,0.0,0.0,0.0,0.0,0.0,0.0228,0.0,0.0,0.0,0.0,0.0,0.0,-0.4874,0.0,0.0,-0.6491,-0.5237,-0.4949,0.0,0.0,0.0,-0.1482,0.0,0.0,0.0,0.0,0.0,-0.2388,-0.2841,-0.339,-0.3866,-0.4271,0.0,-0.762,0.0,0.0,0.0,0.0,0.0,-1.2271,-1.3604,0.0,0.0,-1.5219,-1.6926,-1.744,0.0,-1.7175,-1.6509,-1.5802,-1.658,-1.5646,-1.4529,-1.5634,-1.5229,0.0,0.0,0.0,-1.4362,-1.1767,0.0,0.0,0.0,0.0,0.0,0.0,0.0,0.0,0.0,0.0,0.0,0.0,0.0,0.0,0.0,0.0,0.0,0.0,0.0,0.0,0.0,0.0,0.0,-1.5939,-1.6333,-1.7412,-1.9586,-2.0755,-2.1874,-2.295,-2.346,-2.4084,-2.4898,-2.4898,-2.5052,-2.5312,-2.5312,-2.5312,-2.5312,-2.5312,-2.5312,-2.5312,-2.5312,-2.5312,-2.5384,-2.6237,-2.6729,-2.6982,-2.8041,-2.8527,-2.8685,-2.8685,-2.8724,-2.8843,-0.2993,0.0,0.0,0.0,0.0,0.0,0.0,0.0,0.0,0.0,-0.272,0.0,-0.4063,0.0,-0.5761,0.0,-0.7521,-0.7494,-0.6255,-0.6434,0.0,-0.4686,-0.3935,0.0,0.0,0.0,0.0,0.0,0.0,-0.3177,-0.3306,-0.3806,-0.4083,-0.4262,0.0,0.0,0.0,0.0,-1.149,0.0,0.0,-1.2262,0.0,0.0,-1.4683,-1.5111,0.0,-1.8367,-1.8296,-1.8536,-1.7986,-1.738,-1.8426,-1.7383,-1.5995,-1.7345,-1.6798,-1.5658,-1.5248,-1.5901,0.0,-1.3729,-1.3643,0.0,-1.1207,0.0,0.0,0.0,0.0,0.0,0.0,0.0,0.0,0.0,0.0,0.0,0.0,0.0,0.0,0.0,0.0,0.0,0.0,0.0,-1.3997,-1.5714,-1.6313,-1.7461,0.0,0.0,-2.2433,-2.3513,-2.4178,-2.4791,-2.53,-2.5312,-2.5312,-2.5312,-2.5312,-2.5312,-2.5312,-2.5312,-2.5312,-2.5312,-2.5312,-2.5312,-2.536,-2.6033,-2.6549,-2.7007,-2.7888,-2.8463,-2.8791,-2.8882,-2.8922,-2.8961,0.0,0.0,0.0,0.0,-0.1114,0.0,0.0,0.0,-0.0995,0.0,-0.3085,-0.3434,-0.4532,-0.6632,-0.7978,-0.7978,-0.9991,0.0,-0.8157,-0.8784,0.0,0.0,-0.7328,-0.7618,-0.9062,0.0,0.0,0.0,0.0,0.0,-0.4059,-0.4171,-0.4251,-0.4335,-0.5239,0.0,-0.9355,-1.0431,-1.2705,-1.5368,-1.3479,-1.3002,-1.3458,-1.4146,-1.4635,-1.529,-1.83,-1.9341,-1.946,-2.0108,-2.0264,-2.0186,-1.9764,-1.9597,-1.9557,-1.9341,-1.9301,-1.8927,-1.7262,-1.6773,-1.6262,-1.4305,0.0,0.0,0.0,0.0,-1.2435,0.0,0.0,0.0,0.0,0.0,0.0,0.0,0.0,0.0,0.0,0.0,0.0,0.0,0.0,0.0,0.0,-1.207,-1.2668,-1.5292,-1.5633,-1.6823,0.0,0.0,-2.2998,-2.3773,-2.4771,-2.5312,-2.5312,-2.5312,-2.5312,-2.5312,-2.5312,-2.5312,-2.5312,-2.5312,-2.5312,-2.5312,-2.5312,-2.5312,-2.5312,-2.5336,-2.5973,-2.6935,-2.716,-2.7918,-2.8882,-2.9052,-2.9131,-2.917,-0.3024,-0.2835,-0.2627,0.0,-0.1735,-0.1266,0.0,0.0,0.0,0.0,-0.6005,-0.7066,-0.9277,-1.0043,-1.04,-1.04,-1.0952,0.0,0.0,0.0,0.0,-0.9995,-0.9337,-0.9347,-1.0221,-0.7903,0.0,-0.6256,0.0,0.0,-0.4834,-0.5491,-0.5774,-0.5696,0.0,0.0,-0.9035,-0.9328,-1.0823,-1.3029,-1.321,-1.3241,0.0,0.0,-1.6197,-1.664,-1.9315,-2.0177,-2.0069,-2.0225,-2.0069,-1.9764,-1.9645,-1.9518,-1.939,-1.9301,-1.9301,-1.9198,-1.8761,-1.8635,-1.8357,-1.7222,-1.6668,-1.606,0.0,0.0,0.0,0.0,0.0,0.0,0.0,0.0,0.0,0.0,0.0,0.0,0.0,0.0,0.0,0.0,0.0,0.0,0.0,-1.2272,-1.3415,-1.5486,-1.5921,-1.7419,0.0,0.0,0.0,-2.3749,-2.4771,-2.5312,-2.5312,-2.5312,-2.5312,-2.5312,-2.5312,-2.5312,-2.5312,-2.5312,-2.5312,-2.5312,-2.5312,-2.5312,-2.5336,-2.5733,-2.6371,-2.7172,-2.7762,-2.8656,-2.9546,-2.9392,-2.9443,-2.9624,-0.2878,0.0,0.0,-0.247,0.0,0.0,-0.314,0.0,0.0,-0.6696,-0.7345,0.0,-1.0034,-1.1218,-1.1929,-1.1929,-1.2272,0.0,0.0,0.0,0.0,-1.1157,-1.1569,-1.1902,-1.2193,-1.034,0.0,-0.826,0.0,0.0,-0.5681,-0.6116,-0.6285,0.0,0.0,-0.7439,0.0,-1.0928,-1.2079,-1.2748,-1.4212,0.0,0.0,-1.6316,-1.7358,-1.8319,-1.9792,-2.0216,-2.0147,-2.0147,-1.9872,-1.9606,-1.9606,-1.9478,-1.9301,-1.9301,-1.9301,-1.9301,-1.9301,-1.9301,-1.9191,-1.8751,-1.8355,-1.7749,-1.6633,-1.608,-1.5805,0.0,0.0,0.0,0.0,0.0,0.0,0.0,0.0,0.0,0.0,0.0,0.0,0.0,0.0,0.0,0.0,-1.2428,-1.3599,-1.5358,-1.5704,0.0,0.0,0.0,0.0,-2.2987,-2.42,-2.5013,-2.5312,-2.5013,-2.5013,-2.5312,-2.5312,-2.5312,-2.5312,-2.5312,-2.5312,-2.5312,-2.5312,-2.5312,-2.5324,-2.5708,-2.6396,-2.7321,-2.8369,-2.9183,-2.9792,-2.965,-2.965,-2.9792,0.0,0.0,0.0,0.0,0.0,0.0,0.0,-0.4476,0.0,-0.7777,0.0,-0.8562,-0.9478,-1.1573,-1.2875,-1.2875,0.0,-1.35,-1.2095,-1.3313,-1.35,-1.2126,-1.3659,-1.4442,-1.4148,-1.3077,0.0,0.0,0.0,0.0,-0.6564,-0.6517,0.0,0.0,0.0,0.0,0.0,-1.3255,-1.4304,0.0,-1.5732,-1.6837,-1.7179,-1.7183,-1.8262,-1.9824,-1.9863,-1.9863,-1.9902,-1.9902,-1.9754,-1.9606,-1.9606,-1.9478,-1.9301,-1.9301,-1.9301,-1.9301,-1.9301,-1.9301,-1.9301,-1.9301,-1.9301,-1.904,-1.8042,-1.7805,-1.758,-1.6767,-1.6786,-1.7165,0.0,0.0,0.0,0.0,0.0,0.0,0.0,0.0,0.0,0.0,0.0,0.0,0.0,0.0,0.0,0.0,0.0,0.0,0.0,0.0,0.0,-2.2209,-2.3645,-2.4609,-2.506,0.0,-2.4621,-2.5072,-2.5204,-2.5312,-2.5312,-2.5347,-2.5312,-2.5312,-2.5347,-2.5347,-2.5347,-2.5535,-2.6274,-2.742,-2.8881,-2.9599,-2.9792,-2.9792,-2.9792,-2.9792,0.0,0.0,0.0,0.0,0.0,-0.6299,-0.7943,-0.7933,-0.8468,-1.0558,-1.0825,-1.1438,-1.3038,-1.3604,-1.387,-1.387,-1.4004,0.0,0.0,0.0,0.0,-1.4031,-1.4599,-1.4743,-1.4449,-1.3916,-1.2674,0.0,0.0,0.0,0.0,0.0,0.0,0.0,0.0,0.0,-1.0687,-1.1806,0.0,-1.4055,-1.6261,-1.7066,-1.7095,-1.8568,-1.9245,-1.942,-1.9597,-1.9754,-1.9902,-1.9902,-1.9754,-1.9606,-1.9606,-1.9478,-1.9301,-1.9301,-1.9301,-1.9301,-1.9301,-1.9301,-1.9301,-1.9301,-1.9301,-1.9265,-1.904,-1.9012,-1.8976,-1.8791,-1.9295,-1.9647,-1.915,0.0,0.0,0.0,0.0,0.0,0.0,0.0,0.0,0.0,0.0,0.0,0.0,0.0,0.0,0.0,0.0,0.0,0.0,0.0,0.0,0.0,-2.4544,0.0,0.0,0.0,-2.4679,-2.3835,-2.4821,-2.5312,-2.5312,-2.5465,-2.5465,-2.5312,-2.55,-2.5535,-2.5535,-2.5571,-2.6417,-2.7829,-2.9187,-2.9753,-2.9792,-2.9792,-2.9792,-2.9792,0.0,0.0,0.0,0.0,0.0,0.0,0.0,-1.0889,0.0,-1.1613,-1.1613,-1.1916,-1.2766,-1.3594,-1.4088,-1.4088,-1.4088,-1.4088,-1.4088,-1.4088,-1.4148,-1.4289,-1.4998,0.0,-1.4965,-1.5342,-1.4337,-1.1777,0.0,0.0,0.0,0.0,0.0,0.0,0.0,-1.0415,0.0,0.0,0.0,-1.5556,-1.7527,-1.8274,-1.8249,-1.9125,-1.9381,-1.9341,-1.9518,-1.9597,-1.9578,-1.9715,-1.9597,-1.9478,-1.9557,-1.9478,-1.9301,-1.9301,-1.9301,-1.9301,-1.9301,-1.9301,-1.9301,-1.9301,-1.9608,-1.9923,-1.9923,-2.0265,-2.0605,-2.0605,-2.0914,-2.0911,-2.0076,-1.9273,0.0,0.0,0.0,0.0,0.0,0.0,0.0,0.0,0.0,0.0,0.0,0.0,0.0,0.0,0.0,0.0,0.0,0.0,0.0,0.0,0.0,0.0,0.0,0.0,0.0,-2.4429,-2.5036,-2.5312,-2.5312,-2.5382,-2.5382,-2.5312,-2.55,-2.5606,-2.5654,-2.6417,-2.721,-2.81,-2.9314,-2.9792,-2.9792,-2.9792,-2.9792,-2.9792,0.0,-0.3404,0.0,0.0,-0.8042,0.0,-1.1317,-1.3157,-1.3862,-1.2397,-1.2223,-1.2223,-1.2223,-1.3326,-1.4173,-1.4377,-1.4377,-1.4454,-1.4664,-1.4657,-1.4657,-1.4657,-1.5574,-1.597,-1.5684,-1.6831,-1.6071,0.0,0.0,0.0,0.0,0.0,0.0,0.0,0.0,0.0,0.0,0.0,-1.6877,-1.7362,-1.8761,-1.9301,-1.9301,-1.9341,-1.9341,-1.9341,-1.9518,-1.9469,-1.9301,-1.9478,-1.9429,-1.9341,-1.9478,-1.9429,-1.9301,-1.9301,-1.9301,-1.9301,-1.9301,-1.9301,-1.9301,-1.9301,-1.9766,-2.0304,-2.0459,-2.1029,-2.1576,-2.1756,-2.1956,-2.1775,-2.0938,-2.0803,0.0,0.0,0.0,0.0,0.0,0.0,0.0,0.0,0.0,0.0,0.0,0.0,0.0,0.0,0.0,0.0,0.0,0.0,0.0,0.0,0.0,-2.4168,-2.4535,0.0,-2.4656,-2.4905,-2.5168,-2.5312,-2.5347,-2.5347,-2.5347,-2.5382,-2.5571,-2.5688,-2.5844,-2.7271,-2.795,-2.821,-2.9352,-2.9792,-2.9792,-2.9792,-2.9792,-2.9792,0.0,0.0,0.0,0.0,0.0,0.0,0.0,-1.4144,-1.4956,-1.401,-1.3878,-1.3878,-1.3878,-1.3993,-1.4412,-1.5193,-1.5276,-1.5594,-1.6412,-1.6453,-1.6453,-1.6453,-1.6773,-1.6839,-1.6583,-1.7747,-1.7414,0.0,0.0,0.0,0.0,0.0,0.0,0.0,0.0,0.0,0.0,-1.646,-1.7492,-1.9067,-1.9216,-1.9301,-1.9301,-1.9518,-1.9478,-1.9341,-1.9518,-1.9469,-1.9301,-1.9301,-1.9301,-1.9301,-1.9301,-1.9301,-1.9301,-1.9301,-1.9301,-1.9301,-1.9301,-1.9301,-1.9301,-1.9301,-1.9341,-1.9608,-2.0343,-2.0576,-2.0847,-2.1652,-2.2381,-2.2622,-2.184,-2.2104,-2.1924,0.0,0.0,0.0,0.0,0.0,0.0,0.0,0.0,0.0,0.0,0.0,0.0,0.0,0.0,0.0,0.0,0.0,0.0,-2.1959,0.0,-2.2638,-2.204,-2.4132,-2.4679,-2.3671,-2.4785,-2.5382,-2.5571,-2.5571,-2.5571,-2.5571,-2.5793,-2.598,-2.6253,-2.7549,-2.806,-2.821,-2.9352,-2.9792,-2.9792,-2.9792,-2.9792,-2.9792,0.0,0.0,0.0,0.0,0.0,0.0,0.0,-1.5734,-1.6049,-1.5718,-1.4741,-1.4496,-1.556,-1.5193,-1.5235,-1.6083,-1.6165,-1.6329,-1.6698,-1.6698,-1.6698,-1.6698,-1.7319,-1.7573,-1.7472,-1.8475,-1.8114,0.0,0.0,0.0,0.0,0.0,0.0,0.0,0.0,-1.7078,-1.8668,-1.9377,-2.0124,-2.0798,-2.0798,-2.0798,-2.0798,-2.0885,-2.0885,-2.0847,-2.1039,-2.0653,-2.004,-2.0196,-1.9893,-1.9478,-1.9341,-1.9381,-1.9478,-1.9341,-1.9301,-1.942,-1.9883,-2.004,-2.0148,-2.0682,-2.1145,-2.1614,-2.1918,-2.2371,-2.282,-2.3165,-2.3519,-2.3627,-2.3293,-2.2948,-2.2708,0.0,0.0,0.0,0.0,0.0,0.0,0.0,0.0,0.0,0.0,0.0,0.0,0.0,0.0,0.0,0.0,0.0,0.0,-2.089,0.0,-2.3797,-2.2799,-2.4475,-2.506,-2.4595,-2.5189,-2.5699,-2.6082,-2.5746,-2.5688,-2.5828,-2.6427,-2.6577,-2.6483,-2.8048,-2.8448,-2.8259,-2.9857,-3.0203,-2.9856,-3.0317,-3.0444,-3.0444,-1.2037,0.0,-1.2482,0.0,-1.5125,-1.5413,-1.6855,-1.7058,-1.7058,-1.7058,-1.5801,-1.5311,-1.6576,-1.6165,-1.6124,-1.7025,-1.7058,-1.718,-1.7464,-1.7472,-1.7472,-1.7472,-1.8037,0.0,-1.8709,-1.9323,-1.918,-1.8184,-1.7339,0.0,0.0,0.0,0.0,0.0,-1.9175,-1.9897,-2.0511,-2.1426,-2.1794,-2.1794,-2.1794,-2.1794,-2.1794,-2.1794,-2.1794,-2.1842,-2.1945,-2.1527,-2.0924,-2.1088,-2.0779,-2.0245,-1.9805,-1.9932,-2.0206,-2.0079,-2.0031,-2.0148,-2.0731,-2.0885,-2.1029,-2.1642,-2.2258,-2.2756,-2.2964,-2.3482,-2.3995,-2.4236,-2.4345,-2.4381,-2.4381,-2.3851,-2.3537,-2.3991,0.0,0.0,0.0,0.0,0.0,0.0,0.0,-2.028,-1.9587,0.0,0.0,0.0,0.0,0.0,0.0,0.0,0.0,0.0,0.0,0.0,0.0,-2.4691,-2.5312,-2.5312,-2.5453,-2.5769,-2.622,-2.5921,-2.5968,-2.6302,-2.6926,-2.704,-2.6892,-2.8446,-2.896,-2.8875,-3.034,-3.0733,-3.0508,-3.0796,-3.1044,-3.123,-1.4713,-1.3655,-1.3819,-1.8413,-1.7719,-1.6816,-1.7826,-1.7997,-1.7997,-1.7997,-1.7229,-1.6698,-1.6698,-1.6698,-1.7025,-1.7917,-1.7997,-1.8367,-1.9222,-1.9262,-1.9262,0.0,0.0,-1.9648,-2.0459,-2.0459,-2.0914,-2.1735,0.0,0.0,-1.9471,0.0,-1.9243,-2.0673,-2.0684,-2.1089,-2.1773,-2.1794,-2.1794,-2.1794,-2.1794,-2.1794,-2.1794,-2.1794,-2.1794,-2.1794,-2.1794,-2.1794,-2.1794,-2.1804,-2.1907,-2.1869,-2.0808,-2.1068,-2.1766,-2.1766,-2.1766,-2.1766,-2.1794,-2.1794,-2.1804,-2.1794,-2.1897,-2.2199,-2.2841,-2.3165,-2.3522,-2.4334,-2.4646,-2.479,-2.479,-2.4945,-2.4613,-2.3232,0.0,0.0,0.0,0.0,0.0,0.0,-2.1751,-2.1373,-2.207,0.0,0.0,0.0,0.0,0.0,0.0,0.0,0.0,-2.2614,-2.2774,0.0,-2.3516,-2.4691,-2.5312,-2.5312,-2.5312,-2.5535,-2.591,-2.6097,-2.6555,-2.7196,-2.7196,-2.7317,-2.7575,-2.8643,-2.957,-3.0329,-3.0745,-3.1378,-3.1965,-3.118,-3.1415,-3.1965,-1.7843,-1.7503,-1.7563,-1.9058,-1.8825,-1.8503,-1.8841,-1.8895,-1.8895,-1.8895,-1.8647,-1.8487,-1.8487,-1.7957,-1.7957,0.0,-1.8895,-1.9244,0.0,-2.0109,-2.0382,-2.0991,-2.0991,-2.1106,-2.1385,-2.1375,-2.1691,-2.2271,0.0,0.0,0.0,-2.1064,-2.1616,-2.3086,-2.3086,-2.3218,-2.3434,-2.3434,-2.3434,-2.3434,-2.3434,-2.3434,-2.3434,-2.3434,-2.3434,-2.3434,-2.3434,-2.3091,-2.2617,-2.2617,-2.2644,-2.2654,-2.2306,-2.2107,-2.1983,-2.1832,-2.1794,-2.1918,-2.2456,-2.2617,-2.2756,-2.3287,-2.3471,-2.3545,-2.3776,-2.3849,-2.4032,-2.4418,-2.4538,-2.4646,-2.4754,-2.4861,-2.4779,-2.4495,-2.4849,0.0,0.0,0.0,0.0,0.0,-2.0783,-2.0354,0.0,-1.9507,0.0,0.0,0.0,0.0,0.0,0.0,0.0,0.0,-2.3463,0.0,-2.3494,-2.4691,-2.5312,-2.5312,-2.5571,-2.6094,-2.6837,-2.7848,-2.841,-2.8559,-2.876,-2.886,-2.8966,-3.0106,-3.0467,-3.0418,-3.1883,-3.2326,-3.211,-3.2384,-3.2635,-3.2826,-1.9301,-1.9301,-1.9301,-1.9301,-1.9301,-1.942,-1.9687,-1.9766,-1.9883,-2.0187,-2.0226,-2.0226,-2.0226,-1.9737,0.0,-1.9726,-1.9766,-2.0109,-2.0914,-2.1001,-2.1221,-2.1794,-2.1794,-2.1956,-2.222,0.0,0.0,-2.3123,-2.2641,-2.2718,-2.3405,-2.3138,-2.3557,-2.4464,-2.4464,-2.4372,-2.42,-2.42,-2.42,-2.42,-2.42,-2.42,-2.42,-2.42,-2.42,-2.42,-2.42,-2.3861,-2.3446,-2.3446,-2.3446,-2.3446,-2.3446,-2.3176,-2.2857,-2.2745,-2.2708,-2.282,-2.3298,-2.3519,-2.3666,-2.42,-2.4418,-2.455,-2.455,-2.455,-2.4586,-2.4706,-2.4766,-2.4838,-2.4945,-2.4992,-2.5016,-2.5147,-2.5182,-2.5074,-2.4783,0.0,0.0,0.0,0.0,0.0,0.0,-2.086,0.0,0.0,0.0,0.0,0.0,0.0,0.0,-2.2603,-2.4355,0.0,-2.4168,-2.4905,-2.5347,-2.5418,-2.6094,-2.679,-2.7617,-2.8814,-2.9485,-2.9704,-2.9861,-3.0071,-3.0295,-3.1001,-3.1394,-3.1601,-3.2765,-3.3087,-3.2981,-3.3157,-3.3402,-3.3604,-1.9301,-1.9341,0.0,0.0,-1.9411,0.0,-2.0459,-2.0576,-2.0885,-2.169,-2.1794,-2.1794,-2.1794,-2.1794,-2.1499,-2.0731,0.0,0.0,0.0,-2.188,-2.1907,-2.1956,-2.1956,-2.2333,-2.3075,-2.3075,-2.3468,-2.4246,-2.4281,-2.451,-2.4912,-2.4912,-2.49,-2.4866,-2.4866,-2.4613,-2.42,-2.42,-2.42,-2.42,-2.42,-2.42,-2.42,-2.42,-2.42,-2.42,-2.42,-2.42,-2.42,-2.42,-2.42,-2.42,-2.42,-2.42,-2.42,-2.42,-2.42,-2.4236,-2.4236,-2.4381,-2.4538,-2.4538,-2.4802,-2.5087,-2.5087,-2.5087,-2.5087,-2.5123,-2.5218,-2.5276,-2.5312,-2.5312,-2.5312,-2.5312,-2.5216,-2.4831,-2.3938,0.0,0.0,0.0,0.0,0.0,0.0,-2.336,-2.3628,0.0,0.0,0.0,0.0,0.0,-2.2428,-2.5228,-2.5312,-2.5312,-2.5312,-2.5312,-2.5453,-2.5711,-2.679,-2.7663,-2.8392,-2.9255,-3.0029,-3.0697,-3.0612,-3.0964,-3.1632,-3.1448,-3.2212,-3.3496,-3.3348,-3.3742,-3.4298,-3.3555,-3.3742,-3.4298,0.0,0.0,-2.0235,-2.0235,-2.0769,-2.126,-2.1451,-2.1489,-2.1565,-2.1766,-2.1794,-2.1794,-2.1794,-2.1794,-2.1956,-2.2381,-2.1842,-2.1842,-2.2654,-2.2729,-2.299,-2.3618,-2.3629,-2.374,-2.3897,-2.3934,-2.4189,-2.474,-2.5153,-2.5199,-2.4912,-2.4912,-2.4717,-2.4372,-2.4372,-2.4303,-2.42,-2.42,-2.42,-2.42,-2.42,-2.42,-2.42,-2.42,-2.42,-2.42,-2.42,-2.42,-2.42,-2.42,-2.42,-2.42,-2.42,-2.42,-2.42,-2.42,-2.4309,-2.4418,-2.4418,-2.4574,-2.4718,-2.4718,-2.479,-2.4861,-2.4861,-2.4861,-2.4921,-2.5087,-2.5111,-2.5182,-2.5276,-2.5312,-2.5312,-2.5312,-2.4234,-2.3481,-2.3749,-2.2651,0.0,0.0,-2.2123,-2.2499,-2.3697,-2.3553,-2.3391,0.0,0.0,0.0,0.0,-2.3075,-2.3645,-2.5264,-2.5312,-2.5312,-2.5312,-2.5453,-2.5978,-2.6824,-2.7604,-2.8652,-2.9993,-3.069,-3.1668,-3.2739,-3.1711,-3.1942,-3.2998,-3.2443,-3.2713,-3.3529,-3.3936,-3.423,-3.438,-3.4196,-3.423,-3.4366,-1.9301,-1.9962,-2.0498,-2.0498,-2.1231,-2.1918,-2.2295,-2.2344,-2.2494,-2.2868,-2.2905,-2.2905,-2.2905,-2.2905,-2.3217,-2.4084,-2.3132,-2.2782,-2.3482,-2.3641,-2.3897,-2.4309,-2.4635,-2.4707,-2.449,-2.4778,-2.4872,-2.4738,-2.5583,-2.5633,-2.496,-2.496,-2.482,-2.4527,-2.4298,-2.42,-2.42,-2.4309,-2.4345,-2.4345,-2.4345,-2.4345,-2.4309,-2.4236,-2.42,-2.42,-2.42,-2.42,-2.42,-2.42,-2.42,-2.42,-2.42,-2.42,-2.42,-2.42,-2.4273,-2.4381,-2.4502,-2.4646,-2.4825,-2.4992,-2.5016,-2.5016,-2.5016,-2.5016,-2.5052,-2.5182,-2.5182,-2.5218,-2.5276,-2.5312,-2.5312,-2.5312,-2.3888,-2.305,-2.3701,-2.2296,0.0,-2.2787,-2.2875,-2.3251,-2.4374,-2.4402,-2.4214,-2.3948,-2.4166,0.0,-2.3948,-2.4166,-2.4619,-2.5288,-2.5312,-2.5347,-2.543,-2.6035,-2.662,-2.7196,-2.8325,-2.9273,-3.0129,-3.1056,-3.1903,-3.2556,-3.215,-3.2542,-3.3474,-3.3093,-3.3325,-3.3935,-3.4283,-3.4414,-3.4414,-3.4414,-3.4414,-3.4414,-1.9524,-2.0187,-2.0711,-2.0757,-2.1524,-2.2371,-2.3075,-2.3187,-2.342,-2.4116,-2.4261,-2.4334,-2.4334,-2.4406,-2.4767,-2.5568,-2.4529,-2.4059,-2.4563,-2.479,-2.4862,-2.4862,-2.5405,-2.551,-2.5123,-2.5662,-2.558,-2.4862,-2.5928,-2.6055,-2.5276,-2.5276,-2.5276,-2.5276,-2.4802,-2.4539,-2.4394,-2.4586,-2.4598,-2.4454,-2.4454,-2.4454,-2.4454,-2.4273,-2.4236,-2.4236,-2.42,-2.4236,-2.4309,-2.4273,-2.4273,-2.4309,-2.4309,-2.4309,-2.4309,-2.4309,-2.4309,-2.4345,-2.449,-2.4718,-2.4957,-2.5241,-2.5312,-2.5312,-2.5312,-2.5312,-2.5312,-2.5312,-2.5312,-2.5312,-2.5312,-2.5312,-2.5252,-2.5107,-2.3649,-2.2779,-2.346,0.0,-2.1815,-2.358,-2.3938,-2.435,-2.5228,-2.5312,-2.5312,-2.5312,-2.5312,-2.5312,-2.5312,-2.5312,-2.537,-2.5499,-2.5418,-2.5523,-2.5838,-2.6756,-2.7317,-2.7584,-2.8949,-2.9752,-3.0075,-3.1061,-3.1627,-3.1845,-3.2309,-3.2875,-3.3503,-3.3503,-3.3848,-3.4414,-3.4414,-3.4414,-3.4414,-3.4414,-3.4414,-3.4414,-2.0559,-2.1196,-2.1669,-2.1912,-2.2963,-2.3849,-2.397,-2.4007,-2.4043,-2.4189,-2.4599,-2.4874,-2.4874,-2.5335,-2.5814,-2.6227,-2.6205,-2.6261,-2.6476,-2.651,-2.651,-2.651,-2.6646,-2.6646,-2.6591,-2.668,-2.6646,-2.651,-2.6714,-2.6748,-2.6612,-2.6612,-2.6612,-2.6612,-2.651,-2.603,-2.5287,-2.5322,-2.4933,-2.4236,-2.4236,-2.4236,-2.4236,-2.42,-2.4309,-2.4418,-2.4273,-2.4418,-2.4682,-2.449,-2.4574,-2.4718,-2.4718,-2.4718,-2.4718,-2.4718,-2.4718,-2.4718,-2.4754,-2.4981,-2.5241,-2.5276,-2.5312,-2.5312,-2.5312,-2.5312,-2.5312,-2.5312,-2.5312,-2.5312,-2.5312,-2.5312,-2.5023,-2.4179,-2.2488,-2.1549,-2.2335,0.0,-2.1716,-2.358,-2.4542,-2.5131,-2.5288,-2.5312,-2.5312,-2.5312,-2.5312,-2.5312,-2.5312,-2.5312,-2.5639,-2.6364,-2.5861,-2.6013,-2.6926,-2.7129,-2.7881,-2.9233,-2.9484,-3.0469,-3.2035,-3.1666,-3.2121,-3.3169,-3.2701,-3.2875,-3.3503,-3.3503,-3.3848,-3.4414,-3.4414,-3.4414,-3.4414,-3.4414,-3.4414,-3.4414,-2.1336,-2.196,-2.2504,-2.2611,-2.3509,-2.42,-2.42,-2.4442,-2.4635,-2.4635,-2.5123,-2.5569,-2.572,-2.601,-2.6526,-2.7358,-2.7504,-2.7802,-2.8312,-2.7531,-2.7064,-2.7064,-2.7445,-2.7677,-2.7749,-2.7749,-2.7518,-2.7064,-2.7743,-2.7822,-2.7345,-2.7345,-2.7245,-2.7056,-2.6761,-2.6296,-2.5732,-2.5836,-2.5744,-2.5534,-2.5347,-2.5276,-2.5229,-2.5358,-2.5099,-2.4706,-2.4993,-2.4933,-2.4801,-2.4682,-2.4718,-2.479,-2.479,-2.479,-2.479,-2.479,-2.4897,-2.4957,-2.4957,-2.5111,-2.5312,-2.5312,-2.5312,-2.5312,-2.5312,-2.5312,-2.5312,-2.5312,-2.5312,-2.5312,-2.5312,-2.5312,-2.4928,-2.3829,-2.2714,0.0,0.0,-2.2349,-2.2631,-2.441,-2.5023,-2.5312,-2.5312,-2.5312,-2.5312,-2.5312,-2.5312,-2.5347,-2.5465,-2.5453,-2.5849,-2.6739,-2.6921,-2.7224,-2.7736,-2.8228,-2.9036,-3.0084,-3.0444,-3.1288,-3.2466,-3.1799,-3.2034,-3.2933,-3.2643,-3.2875,-3.3532,-3.3833,-3.4153,-3.4414,-3.4414,-3.4414,-3.4414,-3.4414,-3.4414,-3.4414,-2.212,-2.2606,-2.3005,-2.308,-2.3806,-2.4406,-2.4406,-2.4838,-2.5229,-2.5229,-2.5721,-2.6195,-2.6548,-2.6718,-2.7237,-2.8384,-2.8495,-2.8785,-2.954,-2.8454,-2.7756,-2.7756,-2.8306,-2.8643,-2.873,-2.8776,-2.8441,-2.7756,-2.8753,-2.8849,-2.813,-2.813,-2.8012,-2.7749,-2.7324,-2.6888,-2.6471,-2.662,-2.671,-2.6718,-2.6471,-2.6321,-2.6308,-2.6467,-2.6045,-2.543,-2.5894,-2.5674,-2.5171,-2.5135,-2.5028,-2.4921,-2.4921,-2.4921,-2.4921,-2.4921,-2.5016,-2.5147,-2.5147,-2.5206,-2.5312,-2.5312,-2.5312,-2.5312,-2.5312,-2.5312,-2.5312,-2.5312,-2.5312,-2.5312,-2.5312,-2.5312,-2.4928,-2.3762,0.0,0.0,0.0,-2.3236,-2.3544,-2.5096,-2.5312,-2.5312,-2.5312,-2.5312,-2.5312,-2.5312,-2.5312,-2.5382,-2.5535,-2.5535,-2.6035,-2.7124,-2.7808,-2.8298,-2.8538,-2.9219,-2.9995,-3.0729,-3.1262,-3.1946,-3.2716,-3.2063,-3.2121,-3.2745,-3.2745,-3.3021,-3.3547,-3.4153,-3.4414,-3.4414,-3.4414,-3.4414,-3.4414,-3.4414,-3.4414,-3.4414,-2.3071,-2.3134,-2.308,-2.3332,-2.4248,-2.4945,-2.4945,-2.5429,-2.5826,-2.5826,-2.6289,-2.6782,-2.7095,-2.7656,-2.8262,-2.8972,-2.9035,-2.9194,-2.9571,-2.9477,-2.9432,-2.9432,-2.9477,-2.9509,-2.9509,-2.9509,-2.9477,-2.9432,-2.9509,-2.954,-2.9477,-2.9477,-2.9446,-2.9401,-2.9369,-2.8912,-2.8111,-2.8157,-2.7657,-2.6883,-2.6849,-2.6849,-2.6849,-2.6849,-2.693,-2.701,-2.6862,-2.6569,-2.6242,-2.6057,-2.5687,-2.5276,-2.5276,-2.5276,-2.5276,-2.5276,-2.5276,-2.5276,-2.5276,-2.5276,-2.5312,-2.5312,-2.5312,-2.5312,-2.5312,-2.5312,-2.5312,-2.5312,-2.5312,-2.5312,-2.5312,-2.5312,-2.4975,-2.3929,0.0,0.0,-2.3761,-2.3592,-2.3895,-2.5144,-2.5312,-2.5312,-2.5312,-2.5312,-2.5312,-2.5312,-2.5312,-2.5312,-2.5312,-2.5312,-2.6114,-2.7855,-2.8117,-2.8634,-2.9484,-2.956,-3.0213,-3.1418,-3.148,-3.2179,-3.3402,-3.273,-3.2788,-3.3431,-3.3431,-3.346,-3.3547,-3.4153,-3.4414,-3.4414,-3.4414,-3.4414,-3.4414,-3.4414,-3.4414,-3.4414,-2.3746,-2.3863,-2.3921,-2.4314,-2.5055,-2.5546,-2.5546,-2.6035,-2.6461,-2.6688,-2.7209,-2.7769,-2.8333,-2.8573,-2.8908,-2.9383,-2.9415,-2.9446,-2.9571,-2.9602,-2.9602,-2.9602,-2.9602,-2.9602,-2.9602,-2.9602,-2.9602,-2.9602,-2.9602,-2.9602,-2.9602,-2.9602,-2.9477,-2.9289,-2.9289,-2.9004,-2.8476,-2.8476,-2.8398,-2.826,-2.8045,-2.792,-2.7926,-2.8149,-2.7901,-2.7425,-2.7762,-2.7544,-2.7082,-2.7002,-2.6833,-2.6663,-2.6663,-2.6663,-2.6561,-2.6139,-2.5652,-2.5312,-2.5312,-2.5312,-2.5312,-2.5312,-2.5312,-2.5312,-2.5312,-2.5312,-2.5312,-2.5312,-2.5312,-2.5312,-2.5312,-2.5312,-2.494,-2.3795,0.0,-2.4391,-2.3723,-2.4178,-2.4797,-2.5264,-2.5312,-2.5312,-2.5312,-2.5312,-2.5312,-2.5312,-2.5312,-2.5347,-2.55,-2.6514,-2.7478,-2.8266,-2.9205,-2.9856,-3.0221,-3.0221,-3.0875,-3.2104,-3.2104,-3.2817,-3.4037,-3.3398,-3.3456,-3.4037,-3.3663,-3.3721,-3.408,-3.4312,-3.4414,-3.4414,-3.4414,-3.4414,-3.4414,-3.4414,-3.4414,-3.4414,-2.4336,-2.433,-2.4394,-2.4902,-2.5324,-2.5658,-2.5853,-2.6435,-2.7015,-2.7417,-2.7934,-2.8522,-2.9243,-2.9194,-2.9338,-2.9991,-2.9758,-2.9727,-3.0021,-2.9898,-2.9758,-2.9602,-2.9602,-2.9602,-2.9602,-2.9602,-2.9602,-2.9602,-2.9602,-2.9602,-2.9602,-2.9602,-2.9477,-2.9257,-2.9257,-2.9131,-2.8908,-2.8908,-2.9035,-2.9226,-2.9004,-2.8881,-2.8885,-2.9149,-2.8785,-2.8208,-2.868,-2.8409,-2.7802,-2.7802,-2.767,-2.7517,-2.7517,-2.7517,-2.7417,-2.6879,-2.6402,-2.5953,-2.5721,-2.5664,-2.5581,-2.5382,-2.5312,-2.5312,-2.5312,-2.5312,-2.5312,-2.5312,-2.5312,-2.5312,-2.5312,-2.5312,-2.5036,-2.4191,-2.4773,-2.5024,-2.4168,-2.4785,-2.5312,-2.5312,-2.5312,-2.5312,-2.5312,-2.5312,-2.5312,-2.5312,-2.5312,-2.5476,-2.5896,-2.7577,-2.8602,-2.8762,-2.9948,-3.0699,-3.0872,-3.0699,-3.1235,-3.2481,-3.2481,-3.3148,-3.4399,-3.3964,-3.4008,-3.4385,-3.3949,-3.4008,-3.4414,-3.4414,-3.4414,-3.4414,-3.4414,-3.4414,-3.4414,-3.4414,-3.4414,-3.4414,-2.4881,-2.4496,-2.4287,-2.4884,-2.5015,-2.521,-2.5729,-2.6602,-2.7418,-2.8032,-2.8406,-2.8926,-2.9716,-2.9387,-2.9605,-3.0881,-3.0144,-2.9991,-3.094,-3.0553,-3.0113,-2.9634,-2.9602,-2.9602,-2.9602,-2.9602,-2.9602,-2.9602,-2.9602,-2.9602,-2.9602,-2.9602,-2.9602,-2.9602,-2.9602,-2.9602,-2.9602,-2.9602,-2.9602,-2.9602,-2.9602,-2.9602,-2.9602,-2.9602,-2.9602,-2.9602,-2.9602,-2.9121,-2.8524,-2.8524,-2.8084,-2.7517,-2.7517,-2.7517,-2.7517,-2.7517,-2.7517,-2.7351,-2.662,-2.6414,-2.6242,-2.5488,-2.5312,-2.5312,-2.5312,-2.5312,-2.5312,-2.5312,-2.5312,-2.5312,-2.5312,-2.5312,-2.5312,-2.5312,-2.5312,-2.5312,-2.5312,-2.5312,-2.5312,-2.5312,-2.5312,-2.5312,-2.5312,-2.5312,-2.5312,-2.5312,-2.5312,-2.5709,-2.6557,-2.833,-2.931,-2.931,-3.016,-3.0872,-3.148,-3.0901,-3.1235,-3.2495,-3.2481,-3.3148,-3.4414,-3.4414,-3.4414,-3.4414,-3.4414,-3.4414,-3.4414,-3.4414,-3.4414,-3.4414,-3.4414,-3.4414,-3.4414,-3.4414,-3.4414,-3.4414,-2.422,-2.4261,-2.4356,-2.4891,-2.5672,-2.6419,-2.7053,-2.781,-2.8647,-2.9524,-2.9825,-3.0101,-3.0598,-3.0509,-3.0583,-3.097,-3.0732,-3.0703,-3.097,-3.0881,-3.0732,-3.0583,-2.996,-2.9602,-2.9602,-2.9602,-2.9602,-2.9602,-2.9602,-2.9602,-2.9602,-2.9602,-2.9602,-2.9602,-2.9602,-2.9602,-2.9602,-2.9602,-2.9602,-2.9602,-2.9602,-2.9602,-2.9602,-2.9602,-2.9602,-2.9602,-2.9602,-2.9477,-2.9261,-2.9261,-2.9135,-2.8976,-2.8976,-2.8629,-2.8214,-2.8214,-2.7855,-2.7438,-2.725,-2.7183,-2.6879,-2.5616,-2.5312,-2.5312,-2.5312,-2.5312,-2.5312,-2.5312,-2.5312,-2.5312,-2.5312,-2.5312,-2.5312,-2.5312,-2.5312,-2.5312,-2.5312,-2.5312,-2.5312,-2.5312,-2.5312,-2.5312,-2.5312,-2.5312,-2.5534,-2.6171,-2.6807,-2.7345,-2.771,-2.8744,-2.9373,-2.9529,-3.0221,-3.0872,-3.148,-3.1322,-3.1888,-3.3213,-3.273,-3.3148,-3.4399,-3.3949,-3.3993,-3.4414,-3.4414,-3.4414,-3.4414,-3.4414,-3.4414,-3.4414,-3.4414,-3.4414,-3.4414,-3.4414,-3.4414,-3.4414,-2.4325,-2.4299,-2.4391,-2.5167,-2.573,-2.6326,-2.7242,-2.8085,-2.8969,-2.9867,-3.0394,-3.0866,-3.1234,-3.1117,-3.1146,-3.1508,-3.1537,-3.1393,-3.1029,-3.1175,-3.1204,-3.0999,-3.0463,-3.0144,-3.0144,-3.0144,-3.0144,-3.0144,-2.996,-2.9867,-2.9867,-2.9696,-2.9602,-2.9602,-2.9602,-2.9602,-2.9602,-2.9602,-2.9602,-2.9602,-2.9602,-2.9602,-2.9602,-2.9602,-2.9602,-2.9602,-2.9602,-2.9602,-2.9602,-2.9602,-2.9602,-2.9602,-2.9602,-2.9293,-2.8949,-2.8949,-2.8661,-2.8274,-2.7966,-2.7887,-2.7624,-2.6458,-2.6161,-2.6161,-2.6161,-2.6161,-2.6161,-2.6161,-2.6161,-2.6092,-2.5791,-2.5721,-2.5652,-2.5347,-2.5312,-2.5312,-2.5312,-2.5312,-2.5312,-2.5312,-2.5312,-2.5384,-2.56,-2.5898,-2.6449,-2.7242,-2.8432,-2.8961,-2.8551,-2.982,-3.0509,-3.0347,-3.1007,-3.1642,-3.228,-3.2034,-3.244,-3.3503,-3.3079,-3.3427,-3.4399,-3.4008,-3.4051,-3.4414,-3.4414,-3.4414,-3.4414,-3.4414,-3.4414,-3.4414,-3.4414,-3.4414,-3.4414,-3.4414,-3.4414,-3.4414,-2.4883,-2.4478,-2.4432,-2.5538,-2.5373,-2.5506,-2.6778,-2.781,-2.8725,-2.9464,-3.0426,-3.1173,-3.153,-3.126,-3.139,-3.225,-3.2367,-3.2048,-3.116,-3.1523,-3.1581,-3.1146,-3.1146,-3.1146,-3.1146,-3.1058,-3.0999,-3.0999,-3.0583,-3.0342,-3.0282,-2.9867,-2.9634,-2.9602,-2.9602,-2.9602,-2.9602,-2.9602,-2.9602,-2.9602,-2.9602,-2.9602,-2.9602,-2.9602,-2.9602,-2.9602,-2.9602,-2.9602,-2.9602,-2.9602,-2.9602,-2.9602,-2.9602,-2.9602,-2.9602,-2.9602,-2.9602,-2.9463,-2.8776,-2.8602,-2.8441,-2.7835,-2.7683,-2.7637,-2.755,-2.7517,-2.7517,-2.7517,-2.7556,-2.7369,-2.662,-2.6487,-2.6248,-2.5584,-2.5371,-2.5324,-2.5443,-2.5442,-2.543,-2.5572,-2.5584,-2.579,-2.6324,-2.7115,-2.7892,-2.857,-3.0119,-3.0535,-2.9364,-3.1325,-3.2205,-3.1596,-3.2162,-3.2817,-3.3489,-3.289,-3.2919,-3.359,-3.3474,-3.3746,-3.4414,-3.4356,-3.4356,-3.4414,-3.4414,-3.4414,-3.4414,-3.4414,-3.4414,-3.4414,-3.4414,-3.4414,-3.4414,-3.4414,-3.4414,-3.4414,-2.4295,-2.4204,-2.4326,-2.5054,-2.5425,-2.6103,-2.748,-2.8361,-2.9143,-2.9951,-3.0779,-3.117,-3.0719,-3.1048,-3.1408,-3.1597,-3.209,-3.2299,-3.2104,-3.2203,-3.2203,-3.2104,-3.2104,-3.2104,-3.2104,-3.1364,-3.0999,-3.0999,-3.0911,-3.0673,-3.0282,-3.0205,-2.996,-2.9602,-2.9602,-2.9602,-2.9602,-2.9602,-2.9602,-2.9602,-2.9602,-2.9602,-2.9602,-2.9602,-2.9602,-2.9602,-2.9602,-2.9602,-2.9602,-2.9602,-2.9602,-2.9602,-2.9602,-2.9602,-2.9602,-2.9602,-2.9602,-2.9571,-2.9401,-2.9369,-2.9338,-2.918,-2.9135,-2.8881,-2.7749,-2.7517,-2.7517,-2.7517,-2.7871,-2.8007,-2.7361,-2.7169,-2.7055,-2.6808,-2.5967,-2.5669,-2.6652,-2.6412,-2.6531,-2.7606,-2.7726,-2.7945,-2.8547,-2.9371,-3.0004,-3.0343,-3.1331,-3.1886,-3.1743,-3.2225,-3.2423,-3.2278,-3.2408,-3.2817,-3.3489,-3.3358,-3.3572,-3.4196,-3.3195,-3.3325,-3.4385,-3.3891,-3.3935,-3.4414,-3.4414,-3.4414,-3.4414,-3.4414,-3.4414,-3.4414,-3.4414,-3.4414,-3.4414,-3.4414,-3.4414,-3.4414,-2.4708,-2.4679,-2.4893,-2.5769,-2.6188,-2.6782,-2.7865,-2.8636,-2.9281,-2.9746,-3.0452,-3.0797,-3.0432,-3.072,-3.1043,-3.1378,-3.1705,-3.2044,-3.2367,-3.2398,-3.2398,-3.2398,-3.2398,-3.2398,-3.2398,-3.1908,-3.168,-3.168,-3.1437,-3.1204,-3.097,-3.0523,-3.0174,-2.9929,-2.9696,-2.9602,-2.9602,-2.9602,-2.9602,-2.9602,-2.9602,-2.9602,-2.9602,-2.9602,-2.9602,-2.9602,-2.9602,-2.9602,-2.9602,-2.9602,-2.9602,-2.9602,-2.9602,-2.9602,-2.9602,-2.9602,-2.9602,-2.9602,-2.9602,-2.9602,-2.9602,-2.9602,-2.9602,-2.9401,-2.8675,-2.8731,-2.8934,-2.8934,-2.9442,-2.9666,-2.9006,-2.8818,-2.8543,-2.7888,-2.744,-2.7233,-2.7318,-2.7601,-2.7928,-2.8368,-2.8638,-2.924,-3.0314,-3.1128,-3.1681,-3.1831,-3.2616,-3.2908,-3.2413,-3.3028,-3.3282,-3.2977,-3.3267,-3.3587,-3.392,-3.3649,-3.3823,-3.4399,-3.3713,-3.3775,-3.4399,-3.4066,-3.4095,-3.4414,-3.4414,-3.4414,-3.4414,-3.4414,-3.4414,-3.4414,-3.4414,-3.4414,-3.4414,-3.4414,-3.4414,-3.4414,-2.5453,-2.5412,-2.5659,-2.6745,-2.7045,-2.7367,-2.8073,-2.866,-2.9077,-2.9218,-2.9802,-3.0186,-3.0063,-3.0156,-3.0432,-3.0997,-3.1285,-3.1655,-3.2182,-3.2336,-3.2398,-3.2398,-3.2398,-3.2398,-3.2398,-3.2398,-3.2398,-3.2398,-3.2007,-3.1796,-3.1682,-3.0911,-3.0493,-3.0403,-3.0021,-2.9851,-2.9851,-2.9851,-2.9789,-2.9727,-2.9727,-2.9665,-2.9602,-2.9602,-2.9602,-2.9602,-2.9602,-2.9602,-2.9602,-2.9602,-2.9602,-2.9602,-2.9602,-2.9602,-2.9602,-2.9602,-2.9602,-2.9602,-2.9602,-2.9602,-2.9602,-2.9602,-2.9602,-2.9645,-2.9743,-3.0119,-3.0498,-3.0498,-3.112,-3.1431,-3.0725,-3.0562,-3.0193,-2.908,-2.9109,-2.9022,-2.8236,-2.8924,-2.9389,-2.9122,-2.9656,-3.0554,-3.1875,-3.2541,-3.2954,-3.3111,-3.3724,-3.3667,-3.2695,-3.3781,-3.4167,-3.3678,-3.4138,-3.4414,-3.4414,-3.3891,-3.3891,-3.4414,-3.4414,-3.4414,-3.4414,-3.4414,-3.4414,-3.4414,-3.4414,-3.4414,-3.4414,-3.4414,-3.4414,-3.4414,-3.4414,-3.4414,-3.4414,-3.4414,-3.4414,-3.4414,-2.589,-2.5903,-2.6133,-2.6927,-2.7097,-2.7367,-2.8073,-2.8287,-2.8373,-2.8526,-2.911,-2.9294,-2.8735,-2.9196,-2.9556,-2.9648,-3.072,-3.1455,-3.1547,-3.2074,-3.2398,-3.2398,-3.2398,-3.2398,-3.2398,-3.2398,-3.2398,-3.2398,-3.2342,-3.2092,-3.171,-3.1552,-3.1292,-3.0911,-3.0851,-3.0822,-3.0822,-3.0822,-3.0583,-3.0205,-3.0205,-2.996,-2.9602,-2.9602,-2.9602,-2.9602,-2.9602,-2.9602,-2.9602,-2.9602,-2.9602,-2.9602,-2.9602,-2.9602,-2.9602,-2.9602,-2.9602,-2.9602,-2.9602,-2.9602,-2.9602,-2.9602,-2.9602,-2.9757,-3.0245,-3.0427,-3.0498,-3.0498,-3.1471,-3.2083,-3.1469,-3.124,-3.1078,-3.0856,-2.9954,-2.9619,-3.0575,-3.0423,-3.0658,-3.1735,-3.2541,-3.3156,-3.3567,-3.3687,-3.3805,-3.3945,-3.4051,-3.409,-3.4134,-3.4293,-3.437,-3.4283,-3.437,-3.4414,-3.4414,-3.4327,-3.4327,-3.4414,-3.4414,-3.4414,-3.4414,-3.4414,-3.4414,-3.4414,-3.4414,-3.4414,-3.4414,-3.4414,-3.4414,-3.4414,-3.4414,-3.4414,-3.4414,-3.4414,-3.4414,-3.4414,-2.6823,-2.6808,-2.6923,-2.7595,-2.7785,-2.7949,-2.8259,-2.8323,-2.8323,-2.8387,-2.8673,-2.8735,-2.8442,-2.8673,-2.8996,-2.9381,-2.995,-3.0443,-3.0828,-3.112,-3.1289,-3.1289,-3.1628,-3.1828,-3.1828,-3.2198,-3.2398,-3.2398,-3.2398,-3.2287,-3.2092,-3.1809,-3.1596,-3.1379,-3.1117,-3.0999,-3.0999,-3.0999,-3.0881,-3.0673,-3.0403,-3.0174,-2.996,-2.9696,-2.9602,-2.9602,-2.9602,-2.9602,-2.9602,-2.9602,-2.9602,-2.9602,-2.9602,-2.9602,-2.9602,-2.9602,-2.9602,-2.9602,-2.9602,-2.9855,-3.0091,-3.0091,-3.0389,-3.0726,-3.1007,-3.1331,-3.1569,-3.1569,-3.23,-3.2834,-3.2553,-3.2465,-3.2312,-3.1931,-3.1673,-3.1507,-3.1384,-3.1757,-3.2236,-3.2841,-3.3401,-3.3793,-3.3896,-3.4054,-3.421,-3.4264,-3.4264,-3.4312,-3.4414,-3.4414,-3.4414,-3.4414,-3.4414,-3.4414,-3.4414,-3.4414,-3.4414,-3.4414,-3.4414,-3.4414,-3.4414,-3.4414,-3.4414,-3.4414,-3.4414,-3.4414,-3.4414,-3.4414,-3.4414,-3.4414,-3.4414,-3.4414,-3.4414,-3.4414,-3.4414,-3.4414]},{"header":{"parameterUnit":"m.s-1","parameterCategory":1,"la1":30.6,"la2":28.766,"lo1":-90.7593,"lo2":-88.6598,"dy":0.0162,"dx":0.0183,"nx":116,"ny":114,"refTime":"2023-04-05T06:00:00:Z","depth":0,"parameterNumber":3,"parameterNumberName":"V-component_of_WINDS"},"data":[0.0,0.0,0.0,0.0,0.0,0.0,0.0,0.0,0.0,0.0,0.0,0.0,0.0,0.0,0.0,0.0,0.0,0.0,0.0,0.0,0.0,0.0,0.0,0.0,0.0,0.0,0.0,0.0,0.0,0.0,0.0,0.0,0.0,0.0,0.0,0.0,0.0,0.0,0.0,0.0,0.0,0.0,0.0,0.0,0.0,0.0,0.0,0.0,0.0,0.0,0.0,0.0,0.0,0.0,0.0,0.0,0.0,0.0,0.0,0.0,0.0,0.0,0.0,0.0,0.0,0.0,0.0,0.0,0.0,0.0,0.0,0.0,0.0,0.0,0.0,0.0,0.0,0.0,0.0,0.0,0.0,0.0,0.0,0.0,0.0,0.0,0.0,0.0,0.0,0.0,0.0,0.0,0.0,0.0,0.0,0.0,0.0,0.0,0.0,0.0,0.0,0.0,0.0,0.0,0.0,0.0,0.0,0.0,0.0,0.0,0.0,0.0,0.0,0.0,0.0,0.0,0.0,0.0,0.0,0.0,0.0,0.0,0.0,0.0,0.0,0.0,0.0,0.0,0.0,0.0,0.0,0.0,0.0,0.0,0.0,0.0,0.0,0.0,0.0,0.0,0.0,0.0,0.0,0.0,0.0,0.0,0.0,0.0,0.0,0.0,0.0,0.0,0.0,0.0,0.0,0.0,0.0,0.0,0.0,0.0,0.0,0.0,0.0,0.0,0.0,0.0,0.0,0.0,0.0,0.0,0.0,0.0,0.0,0.0,0.0,0.0,0.0,0.0,0.0,0.0,0.0,0.0,0.0,0.0,0.0,0.0,0.0,0.0,0.0,0.0,0.0,0.0,0.0,0.0,0.0,0.0,0.0,0.0,0.0,0.0,0.0,0.0,0.0,0.0,0.0,0.0,0.0,0.0,0.0,0.0,0.0,0.0,0.0,0.0,0.0,0.0,0.0,0.0,0.0,0.0,0.0,0.0,0.0,0.0,0.0,0.0,0.0,0.0,0.0,0.0,0.0,0.0,0.0,0.0,0.0,0.0,0.0,0.0,0.0,0.0,0.0,0.0,0.0,0.0,0.0,0.0,0.0,0.0,0.0,0.0,0.0,0.0,0.0,0.0,0.0,0.0,0.0,0.0,0.0,0.0,0.0,0.0,0.0,0.0,0.0,0.0,0.0,0.0,0.0,0.0,0.0,0.0,0.0,0.0,0.0,0.0,0.0,0.0,0.0,0.0,0.0,0.0,0.0,0.0,0.0,0.0,0.0,0.0,0.0,0.0,0.0,0.0,0.0,0.0,0.0,0.0,0.0,0.0,0.0,0.0,0.0,0.0,0.0,0.0,0.0,0.0,0.0,0.0,0.0,0.0,0.0,0.0,0.0,0.0,0.0,0.0,0.0,0.0,0.0,0.0,0.0,0.0,0.0,0.0,0.0,0.0,0.0,0.0,0.0,0.0,0.0,0.0,0.0,0.0,0.0,0.0,0.0,0.0,0.0,0.0,0.0,0.0,0.0,0.0,0.0,0.0,0.0,0.0,0.0,0.0,0.0,0.0,0.0,0.0,0.0,0.0,0.0,0.0,0.0,0.0,0.0,0.0,0.0,0.0,0.0,0.0,0.0,0.0,0.0,0.0,0.0,0.0,0.0,0.0,0.0,0.0,0.0,0.0,0.0,0.0,0.0,0.0,0.0,0.0,0.0,0.0,0.0,0.0,0.0,0.0,0.0,0.0,0.0,0.0,0.0,0.0,0.0,0.0,0.0,0.0,0.0,0.0,0.0,0.0,0.0,0.0,0.0,0.0,0.0,0.0,0.0,0.0,0.0,0.0,0.0,0.0,0.0,0.0,0.0,0.0,0.0,0.0,0.0,0.0,0.0,0.0,0.0,0.0,0.0,0.0,0.0,0.0,0.0,0.0,0.0,0.0,0.0,0.0,0.0,0.0,0.0,0.0,0.0,0.0,0.0,0.0,0.0,0.0,0.0,0.0,0.0,0.0,0.0,0.0,0.0,0.0,0.0,0.0,0.0,0.0,0.0,0.0,0.0,0.0,0.0,0.0,0.0,0.0,0.0,0.0,0.0,0.0,0.0,0.0,0.0,0.0,0.0,0.0,0.0,0.0,0.0,0.0,0.0,0.0,0.0,0.0,0.0,0.0,0.0,0.0,0.0,0.0,0.0,0.0,0.0,0.0,0.0,0.0,0.0,0.0,0.0,0.0,0.0,0.0,0.0,0.0,0.0,0.0,0.0,0.0,0.0,0.0,0.0,0.0,0.0,0.0,0.0,0.0,0.0,0.0,0.0,0.0,0.0,0.0,0.0,0.0,0.0,0.0,0.0,0.0,0.0,0.0,0.0,0.0,0.0,0.0,0.0,0.0,0.0,0.0,0.0,0.0,0.0,0.0,0.0,0.0,0.0,0.0,0.0,0.0,0.0,0.0,0.0,0.0,0.0,0.0,0.0,0.0,0.0,0.0,0.0,0.0,0.0,0.0,0.0,0.0,0.0,0.0,0.0,0.0,0.0,0.0,0.0,0.0,0.0,0.0,0.0,0.0,0.0,0.0,0.0,0.0,0.0,0.0,0.0,0.0,0.0,0.0,0.0,0.0,0.0,0.0,0.0,0.0,0.0,0.0,0.0,0.0,0.0,0.0,0.0,0.0,0.0,0.0,0.0,0.0,0.0,0.0,0.0,0.0,0.0,0.0,0.0,0.0,0.0,0.0,0.0,0.0,0.0,0.0,0.0,0.0,0.0,0.0,0.0,0.0,0.0,0.0,0.0,0.0,0.0,0.0,0.0,0.0,0.0,0.0,0.0,0.0,0.0,0.0,0.0,0.0,0.0,0.0,0.0,0.0,0.0,0.0,0.0,0.0,0.0,0.0,0.0,0.0,0.0,0.0,0.0,0.0,0.0,0.0,0.0,0.0,0.0,0.0,0.0,0.0,0.0,0.0,0.0,0.0,0.0,0.0,0.0,0.0,0.0,0.0,0.0,0.0,0.0,0.0,0.0,0.0,0.0,0.0,0.0,0.0,0.0,0.0,0.0,0.0,0.0,0.0,0.0,0.0,0.0,0.0,0.0,0.0,0.0,0.0,0.0,0.0,0.0,0.0,0.0,0.0,0.0,0.0,0.0,0.0,0.0,0.0,0.0,0.0,0.0,0.0,0.0,0.0,0.0,0.0,0.0,0.0,0.0,0.0,0.0,0.0,0.0,0.0,0.0,0.0,0.0,0.0,0.0,0.0,0.0,0.0,0.0,0.0,0.0,0.0,0.0,0.0,0.0,0.0,0.0,0.0,0.0,0.0,0.0,0.0,0.0,0.0,0.0,0.0,0.0,0.0,0.0,0.0,0.0,0.0,0.0,0.0,0.0,0.0,0.0,0.0,0.0,0.0,0.0,0.0,0.0,0.0,0.0,0.0,0.0,0.0,0.0,0.0,0.0,0.0,0.0,0.0,0.0,0.0,0.0,0.0,0.0,0.0,0.0,0.0,0.0,0.0,0.0,0.0,0.0,0.0,0.0,0.0,0.0,0.0,0.0,0.0,0.0,0.0,0.0,0.0,0.0,0.0,0.0,0.0,0.0,0.0,0.0,0.0,0.0,0.0,0.0,0.0,0.0,0.0,0.0,0.0,0.0,0.0,0.0,0.0,0.0,0.0,0.0,0.0,0.0,0.0,0.0,0.0,0.0,0.0,0.0,0.0,0.0,0.0,0.0,0.0,0.0,0.0,0.0,0.0,0.0,0.0,0.0,0.0,0.0,0.0,0.0,0.0,0.0,0.0,0.0,0.0,0.0,0.0,0.0,0.0,0.0,0.0,0.0,0.0,0.0,0.0,0.0,0.0,0.0,0.0,0.0,0.0,0.0,0.0,0.0,0.0,0.0,0.0,0.0,0.0,0.0,0.0,0.0,0.0,0.0,0.0,0.0,0.0,0.0,0.0,0.0,0.0,0.0,0.0,0.0,0.0,0.0,0.0,0.0,0.0,0.0,0.0,0.0,0.0,0.0,0.0,0.0,0.0,0.0,0.0,0.0,0.0,0.0,0.0,0.0,0.0,0.0,0.0,0.0,0.0,0.0,0.0,0.0,0.0,0.0,0.0,0.0,0.0,0.0,0.0,0.0,0.0,0.0,0.0,0.0,0.0,0.0,0.0,0.0,0.0,0.0,0.0,0.0,0.0,0.0,0.0,0.0,0.0,0.0,0.0,0.0,0.0,0.0,0.0,0.0,0.0,0.0,0.0,0.0,0.0,0.0,0.0,0.0,0.0,0.0,0.0,0.0,0.0,0.0,0.0,0.0,0.0,0.0,0.0,0.0,0.0,0.0,0.0,0.0,0.0,0.0,0.0,0.0,0.0,0.0,0.0,0.0,0.0,0.0,0.0,0.0,0.0,0.0,0.0,0.0,0.0,0.0,0.0,0.0,0.0,0.0,0.0,0.0,0.0,0.0,0.0,0.0,0.0,0.0,0.0,0.0,0.0,0.0,0.0,0.0,0.0,0.0,0.0,0.0,0.0,0.0,0.0,0.0,0.0,0.0,0.0,0.0,0.0,0.0,0.0,0.0,0.0,0.0,0.0,0.0,0.0,0.0,0.0,0.0,0.0,0.0,0.0,0.0,0.0,0.0,0.0,0.0,0.0,0.0,0.0,0.0,0.0,0.0,0.0,0.0,0.0,0.0,0.0,0.0,0.0,0.0,0.0,0.0,0.0,0.0,0.0,0.0,0.0,0.0,0.0,0.0,0.0,0.0,0.0,0.0,0.0,0.0,0.0,0.0,0.0,0.0,0.0,0.0,0.0,0.0,0.0,0.0,0.0,0.0,0.0,0.0,0.0,0.0,0.0,0.0,0.0,0.0,0.0,0.0,0.0,0.0,0.0,0.0,0.0,0.0,0.0,0.0,0.0,0.0,0.0,0.0,0.0,0.0,0.0,0.0,0.0,0.0,0.0,0.0,0.0,0.0,0.0,0.0,0.0,0.0,0.0,0.0,0.0,0.0,0.0,0.0,0.0,0.0,0.0,0.0,0.0,0.0,0.0,0.0,0.0,0.0,0.0,0.0,0.0,0.0,0.0,0.0,0.0,0.0,0.0,0.0,0.0,0.0,0.0,0.0,0.0,0.0,0.0,0.0,0.0,0.0,0.0,0.0,0.0,0.0,0.0,0.0,0.0,0.0,0.0,0.0,0.0,0.0,0.0,0.0,0.0,0.0,0.0,0.0,0.0,0.0,0.0,0.0,0.0,0.0,0.0,0.0,0.0,0.0,0.0,0.0,0.0,0.0,0.0,0.0,0.0,0.0,0.0,0.0,0.0,0.0,0.0,0.0,0.0,0.0,0.0,0.0,0.0,0.0,0.0,0.0,0.0,0.0,0.0,0.0,0.0,0.0,0.0,0.0,0.0,0.0,0.0,0.0,0.0,0.0,0.0,0.0,0.0,0.0,0.0,0.0,0.0,0.0,0.0,0.0,0.0,0.0,0.0,0.0,0.0,0.0,0.0,0.0,0.0,0.0,0.0,0.0,0.0,0.0,0.0,0.0,0.0,0.0,0.0,0.0,0.0,0.0,0.0,0.0,0.0,0.0,0.0,0.0,0.0,0.0,0.0,0.0,0.0,0.0,0.0,0.0,0.0,0.0,0.0,0.0,0.0,0.0,0.0,0.0,0.0,0.0,0.0,0.0,0.0,0.0,0.0,0.0,0.0,0.0,0.0,0.0,0.0,0.0,0.0,0.0,0.0,0.0,0.0,0.0,0.0,0.0,0.0,0.0,0.0,0.0,0.0,0.0,0.0,0.0,0.0,0.0,0.0,0.0,0.0,0.0,0.0,0.0,0.0,0.0,0.0,0.0,0.0,0.0,0.0,0.0,0.0,0.0,0.0,0.0,0.0,0.0,0.0,0.0,0.0,0.0,0.0,0.0,0.0,0.0,0.0,0.0,0.0,0.0,0.0,0.0,0.0,0.0,0.0,0.0,0.0,0.0,0.0,0.0,0.0,0.0,0.0,0.0,0.0,0.0,0.0,0.0,0.0,0.0,0.0,0.0,0.0,0.0,0.0,0.0,0.0,0.0,0.0,0.0,0.0,0.0,0.0,0.0,0.0,2.8708,0.0,0.0,0.0,0.0,0.0,0.0,0.0,0.0,0.0,0.0,0.0,0.0,0.0,0.0,0.0,0.0,0.0,0.0,0.0,0.0,0.0,0.0,0.0,0.0,0.0,0.0,0.0,0.0,0.0,0.0,0.0,0.0,0.0,0.0,0.0,0.0,0.0,0.0,0.0,2.3252,2.4198,2.5278,2.5315,2.5032,2.4483,0.0,0.0,0.0,0.0,0.0,0.0,0.0,0.0,0.0,0.0,0.0,0.0,0.0,0.0,0.0,0.0,0.0,0.0,0.0,0.0,0.0,0.0,0.0,0.0,0.0,0.0,0.0,0.0,0.0,0.0,0.0,0.0,0.0,0.0,0.0,0.0,0.0,0.0,0.0,0.0,0.0,0.0,0.0,0.0,0.0,0.0,0.0,0.0,0.0,0.0,0.0,0.0,0.0,0.0,0.0,0.0,0.0,0.0,0.0,0.0,0.0,0.0,0.0,0.0,0.0,0.0,0.0,0.0,0.0,0.0,0.0,3.0769,0.0,0.0,0.0,0.0,0.0,0.0,0.0,0.0,0.0,0.0,0.0,0.0,0.0,0.0,0.0,0.0,0.0,0.0,0.0,0.0,0.0,0.0,0.0,0.0,2.1167,2.1119,2.1214,2.1166,0.0,0.0,0.0,0.0,0.0,0.0,0.0,2.1434,2.2198,2.3583,2.4461,2.5852,2.7715,2.8992,2.8421,2.6326,2.6727,0.0,0.0,0.0,0.0,0.0,0.0,0.0,0.0,0.0,0.0,0.0,0.0,0.0,0.0,0.0,0.0,0.0,0.0,0.0,0.0,0.0,0.0,0.0,0.0,0.0,0.0,0.0,0.0,0.0,0.0,0.0,0.0,0.0,0.0,0.0,0.0,0.0,0.0,0.0,0.0,0.0,0.0,0.0,0.0,0.0,0.0,0.0,0.0,0.0,0.0,0.0,0.0,0.0,0.0,0.0,0.0,0.0,0.0,0.0,0.0,0.0,0.0,0.0,3.5926,3.5741,3.5022,3.6148,3.5891,3.4652,3.5923,3.4508,3.1254,0.0,0.0,0.0,0.0,0.0,0.0,0.0,0.0,0.0,0.0,0.0,0.0,0.0,0.0,0.0,0.0,0.0,0.0,0.0,0.0,0.0,0.0,2.1619,2.145,2.1215,2.166,2.172,0.0,0.0,0.0,0.0,0.0,0.0,2.1039,2.1183,2.2005,2.3517,2.704,2.9326,3.0396,3.0933,3.1016,3.0639,3.0039,2.9682,2.9488,0.0,0.0,0.0,0.0,0.0,0.0,0.0,0.0,0.0,0.0,0.0,0.0,0.0,0.0,0.0,0.0,0.0,0.0,0.0,0.0,0.0,0.0,0.0,0.0,0.0,0.0,0.0,0.0,0.0,0.0,0.0,0.0,0.0,0.0,0.0,0.0,0.0,0.0,0.0,0.0,0.0,3.7747,3.6291,0.0,0.0,0.0,0.0,0.0,0.0,0.0,0.0,0.0,0.0,0.0,0.0,0.0,3.5122,3.5374,3.4913,3.4293,3.3573,3.5979,3.7053,3.7012,3.9339,4.0275,4.0077,4.027,0.0,3.3896,3.1611,0.0,0.0,0.0,0.0,0.0,0.0,0.0,0.0,0.0,0.0,0.0,0.0,0.0,0.0,0.0,0.0,0.0,0.0,0.0,0.0,0.0,2.1972,2.2322,2.249,2.3765,2.3979,2.2604,2.3259,0.0,0.0,0.0,2.1465,2.1385,2.2295,2.4413,2.7775,3.112,3.3019,3.3544,3.4594,3.5009,3.4779,3.4202,3.2749,3.0671,2.9952,0.0,0.0,0.0,0.0,0.0,0.0,0.0,0.0,0.0,0.0,0.0,0.0,0.0,0.0,0.0,0.0,0.0,0.0,0.0,0.0,0.0,0.0,0.0,0.0,0.0,0.0,0.0,0.0,0.0,0.0,0.0,0.0,0.0,0.0,0.0,0.0,0.0,0.0,0.0,3.6228,3.7168,3.4005,3.4567,3.3993,0.0,0.0,0.0,0.0,0.0,0.0,0.0,0.0,0.0,3.6565,3.7809,3.8529,3.8653,3.9338,3.9472,3.9104,3.9827,4.0168,4.0187,4.0811,4.1092,4.1094,4.1058,3.9951,3.7983,3.5384,3.3455,3.205,0.0,0.0,0.0,0.0,3.0605,3.0604,0.0,0.0,0.0,0.0,0.0,0.0,0.0,0.0,0.0,0.0,0.0,0.0,2.1795,2.2794,2.367,2.417,2.5766,2.6018,2.4338,2.4595,0.0,0.0,2.1732,2.1748,2.199,2.4282,2.7403,3.1375,3.4258,3.5851,3.6208,3.7358,3.7772,3.7516,3.7205,3.5345,3.242,3.1729,3.0996,3.0202,0.0,0.0,0.0,0.0,0.0,0.0,0.0,0.0,0.0,0.0,0.0,0.0,0.0,0.0,0.0,0.0,0.0,0.0,0.0,0.0,0.0,0.0,0.0,0.0,0.0,0.0,0.0,0.0,0.0,0.0,0.0,0.0,0.0,0.0,0.0,0.0,0.0,3.5757,3.6993,3.2654,3.4468,3.4847,0.0,0.0,0.0,0.0,0.0,0.0,3.553,3.7883,3.9318,3.9494,4.1031,4.1958,4.2094,4.2941,4.3377,4.3364,4.2485,4.2058,4.2025,4.1367,4.1071,4.1066,4.1011,4.0981,4.0776,3.8168,3.5983,3.4209,3.3556,3.3151,3.3035,3.3637,3.3845,3.3809,0.0,0.0,0.0,0.0,0.0,0.0,0.0,0.0,0.0,0.0,0.0,2.2079,2.2835,2.4315,2.5519,2.6114,2.6884,2.6963,2.6031,2.4762,2.3637,2.2686,2.2042,2.2024,2.2731,2.7199,3.0328,3.2051,3.5183,3.7094,3.7804,3.7872,3.7889,3.7862,3.7855,3.7086,3.5754,3.3939,3.2893,3.2256,3.0121,0.0,0.0,0.0,0.0,0.0,0.0,0.0,0.0,0.0,0.0,0.0,0.0,0.0,0.0,0.0,0.0,0.0,0.0,0.0,0.0,0.0,0.0,0.0,0.0,0.0,0.0,0.0,0.0,0.0,0.0,0.0,0.0,0.0,0.0,0.0,0.0,0.0,0.0,3.4681,3.6518,0.0,0.0,0.0,0.0,3.8828,3.8349,3.7966,3.8107,4.0581,4.2058,4.2206,4.3892,4.4793,4.4795,4.3253,4.2468,4.2441,4.1582,4.1131,4.1074,4.1034,4.1014,4.1,4.0994,4.0953,4.0707,3.8143,3.7021,3.6663,3.423,3.2786,3.2069,3.2114,3.2057,3.1942,0.0,0.0,0.0,0.0,0.0,0.0,0.0,0.0,2.1825,2.184,2.2378,2.3215,2.4353,2.6197,2.7922,2.9384,3.0293,3.018,2.8727,2.7166,2.5479,2.3621,2.2321,2.3143,2.6406,3.0098,3.3249,3.5819,3.8845,4.0223,4.0037,4.051,4.0476,3.9986,3.9039,3.8367,3.7846,3.5922,3.4885,3.4384,3.2738,3.134,0.0,0.0,0.0,0.0,0.0,0.0,0.0,0.0,0.0,0.0,0.0,0.0,0.0,0.0,0.0,0.0,0.0,0.0,0.0,0.0,0.0,0.0,0.0,0.0,0.0,0.0,0.0,0.0,0.0,0.0,0.0,0.0,0.0,0.0,0.0,0.0,0.0,3.7007,3.9151,0.0,3.7476,3.702,3.7408,3.8679,4.0078,4.0883,4.0942,4.3424,4.4857,4.491,4.5517,4.5823,4.5777,4.4605,4.4004,4.3993,4.2568,4.1861,4.1812,4.1257,4.0995,4.101,4.0941,4.092,4.083,3.992,3.9544,3.9455,3.856,3.8006,3.766,3.7148,3.6863,3.674,0.0,0.0,0.0,0.0,0.0,0.0,0.0,0.0,2.188,2.1961,2.3038,2.4366,2.5849,2.8171,3.0303,3.1994,3.2679,3.2135,3.0065,2.8206,2.6114,2.367,2.3506,2.544,2.9621,3.2744,3.5891,3.9022,4.0967,4.1931,4.1965,4.2185,4.2033,4.1525,4.0544,4.0135,4.01,3.8565,3.7321,3.628,3.4976,3.3158,3.1185,0.0,0.0,0.0,0.0,0.0,0.0,0.0,0.0,0.0,0.0,0.0,0.0,0.0,0.0,0.0,0.0,0.0,0.0,0.0,0.0,0.0,0.0,0.0,0.0,0.0,0.0,0.0,0.0,0.0,0.0,0.0,0.0,0.0,0.0,0.0,3.9883,3.8283,4.0563,4.1536,3.9667,3.9607,4.0042,4.0922,4.2694,4.3723,4.3723,4.5363,4.63,4.63,4.63,4.6277,4.6191,4.5332,4.4898,4.4855,4.3119,4.229,4.2234,4.1351,4.0976,4.0953,4.0915,4.0907,4.0907,4.0907,4.0907,4.0869,4.0597,4.0325,3.9956,3.9073,3.8688,3.8612,0.0,0.0,0.0,0.0,0.0,0.0,0.0,2.1792,2.1817,2.2247,2.3785,2.5503,2.7273,3.0208,3.2511,3.3755,3.3681,3.249,2.9972,2.7654,2.5295,2.2899,2.5716,2.8907,3.2202,3.5222,3.8282,4.1322,4.1356,4.21,4.3443,4.2743,4.2405,4.2388,4.2354,4.2431,4.2607,4.1818,4.0192,3.8026,3.6765,3.542,3.3913,0.0,0.0,0.0,0.0,0.0,0.0,0.0,0.0,0.0,0.0,0.0,0.0,0.0,0.0,0.0,0.0,0.0,0.0,0.0,0.0,0.0,0.0,0.0,0.0,0.0,0.0,0.0,0.0,0.0,0.0,0.0,0.0,0.0,3.3422,3.8443,4.1248,3.8666,4.083,4.2477,4.2338,4.2446,4.3567,4.6105,4.63,4.63,4.63,4.63,4.63,4.63,4.6302,4.6277,4.6191,4.5332,4.4869,4.4773,4.3094,4.2257,4.2175,4.1296,4.0907,4.0907,4.0907,4.0907,4.0907,4.0907,4.0907,4.0825,4.0009,3.9179,3.8315,3.7274,3.6853,3.6877,0.0,0.0,0.0,0.0,0.0,0.0,0.0,2.1059,2.1378,2.2264,2.4295,2.6535,2.8825,3.1344,3.3451,3.4914,3.3757,3.2176,3.0351,2.7328,2.5462,2.5173,2.8746,3.242,3.6024,3.9142,4.1685,4.3684,4.4739,4.5196,4.5077,4.4857,4.4773,4.4722,4.3606,4.3337,4.3734,4.3313,4.2326,4.0951,3.9766,3.7952,3.5921,0.0,0.0,0.0,0.0,0.0,0.0,0.0,0.0,0.0,0.0,0.0,0.0,0.0,0.0,0.0,0.0,0.0,0.0,0.0,0.0,0.0,0.0,0.0,0.0,0.0,0.0,0.0,0.0,0.0,0.0,0.0,0.0,3.999,3.9715,4.1209,4.2763,4.3902,4.4745,4.5203,4.5172,4.5201,4.5539,4.6241,4.63,4.63,4.63,4.63,4.63,4.63,4.6242,4.6211,4.6196,4.5293,4.4826,4.4778,4.3048,4.2218,4.2175,4.1296,4.0907,4.0907,4.0907,4.0907,4.0907,4.0907,4.0873,4.0743,4.001,3.9495,3.9004,3.7466,3.6792,3.6664,0.0,0.0,0.0,0.0,0.0,0.0,0.0,2.1052,2.1606,2.242,2.4828,2.7107,2.8795,3.1259,3.3034,3.3643,3.2257,3.0546,2.8614,2.6688,2.6526,2.8529,3.232,3.6013,3.9488,4.231,4.4468,4.5974,4.6836,4.7039,4.6633,4.6633,4.6464,4.6126,4.5461,4.5282,4.5447,4.5193,4.4667,4.3883,4.2552,4.0293,3.7714,3.7493,3.6349,3.486,3.4903,3.5132,3.5411,3.5206,0.0,0.0,0.0,0.0,0.0,0.0,0.0,0.0,0.0,0.0,0.0,0.0,0.0,0.0,0.0,0.0,0.0,0.0,0.0,0.0,0.0,0.0,0.0,0.0,3.982,4.268,4.3758,4.3981,4.4602,4.6124,4.63,4.63,4.63,4.63,4.63,4.63,4.63,4.63,4.63,4.63,4.63,4.63,4.6227,4.6208,4.6202,4.5627,4.534,4.5297,4.3918,4.3102,4.2714,4.184,4.1257,0.0,4.0907,4.0907,4.0903,4.0873,4.0846,0.0,0.0,0.0,0.0,0.0,3.615,3.6013,0.0,0.0,0.0,0.0,0.0,0.0,0.0,2.1392,2.2087,2.2631,2.5195,2.724,2.793,3.0395,3.1744,3.1162,2.9964,2.8297,2.6122,2.6392,2.846,3.2555,3.6198,3.964,4.2861,4.4993,4.6802,4.8261,4.8261,4.8261,4.8261,4.8261,4.7936,4.7306,4.7671,4.775,4.7573,4.7281,4.6962,4.6504,4.5073,4.2556,3.9552,3.8827,3.808,3.7457,3.7453,3.7213,3.6978,3.7494,0.0,0.0,0.0,0.0,0.0,0.0,0.0,0.0,0.0,0.0,0.0,0.0,0.0,0.0,0.0,0.0,0.0,0.0,0.0,0.0,0.0,0.0,0.0,0.0,4.0975,4.3677,4.6105,4.6456,4.6417,4.63,4.63,4.63,4.63,4.63,4.63,4.63,4.63,4.63,4.63,0.0,0.0,0.0,0.0,4.6205,4.6197,4.6125,4.6067,4.5982,4.5084,4.4248,4.3466,4.25,4.1626,4.0907,4.0898,4.0893,4.0888,4.0804,4.0718,4.0455,3.8816,3.8072,3.7726,3.601,3.5304,3.5209,0.0,0.0,0.0,0.0,0.0,0.0,0.0,2.108,2.1574,2.2641,2.4787,2.6685,2.7869,2.9556,3.0584,3.0557,2.8777,2.7489,2.7114,2.8901,3.1934,3.6343,3.9649,4.3088,4.6722,4.7834,4.9086,5.0543,5.0543,5.0543,5.0543,5.0543,5.0507,5.0335,4.973,4.9649,4.9969,4.917,4.8313,4.7446,4.7138,4.5131,4.2268,4.1522,4.0826,4.0235,4.0282,4.0689,4.1025,3.9822,3.9909,4.0115,3.7923,3.6823,0.0,0.0,0.0,0.0,0.0,0.0,0.0,0.0,0.0,0.0,0.0,0.0,0.0,0.0,0.0,0.0,0.0,0.0,0.0,4.0127,4.3262,4.5966,4.7176,4.7352,4.71,4.6378,4.63,4.63,4.63,4.63,4.63,4.63,4.63,4.63,4.63,4.63,4.6273,4.6229,4.6205,4.6175,4.6122,4.6039,4.6003,4.5982,0.0,0.0,4.3447,4.1879,4.1063,4.0903,4.0837,4.0823,4.0818,4.0681,4.0188,3.9415,3.8368,3.7526,3.676,3.5653,3.5226,3.5209,0.0,0.0,0.0,0.0,0.0,0.0,0.0,2.122,2.172,2.2314,2.4021,2.5338,2.5659,2.7065,2.7736,2.7101,2.6094,2.6205,2.7929,3.0692,3.4403,3.9185,4.2361,4.5043,4.731,4.9171,5.0473,5.1185,5.1978,5.2147,5.1758,5.1758,5.1555,5.1216,5.1368,5.1392,5.1294,5.1444,5.0506,4.8926,4.8545,4.7068,4.4928,4.367,4.2811,4.2254,4.2338,4.2402,4.2336,4.1559,4.141,4.1271,3.9573,3.8549,3.7705,0.0,0.0,0.0,0.0,0.0,0.0,0.0,0.0,0.0,0.0,0.0,0.0,0.0,0.0,3.6542,0.0,0.0,4.1163,4.2094,4.4885,4.7237,4.8076,4.8193,4.8037,4.7608,4.7198,4.712,4.751,4.7198,4.6944,4.6944,4.6944,4.6768,4.6319,4.6276,4.6227,4.6191,4.6165,4.6134,4.6102,4.6032,4.6002,4.5982,4.4734,4.3918,4.3466,4.2151,4.1296,4.0842,4.0818,4.0751,4.0701,4.0552,4.0199,3.9653,3.8791,3.768,3.6438,3.5531,3.5209,3.5209,0.0,0.0,0.0,0.0,0.0,0.0,0.0,2.1397,2.1819,2.205,2.3271,2.3975,2.3526,2.4655,2.4885,2.3541,2.3768,2.5511,2.9073,3.2397,3.651,4.1634,4.4468,4.6329,4.7208,4.9847,5.1252,5.1388,5.2824,5.3179,5.2536,5.2536,5.2281,5.1864,5.281,5.2955,5.2586,5.354,5.279,5.0846,4.9962,4.8719,4.7253,4.5386,4.4272,4.3698,4.3454,4.2785,4.2055,4.235,4.1961,4.126,4.0816,4.0169,3.9173,3.731,3.6079,0.0,0.0,0.0,0.0,0.0,0.0,0.0,0.0,0.0,3.8383,3.9221,3.9398,3.9272,3.8906,4.0705,4.2668,4.3968,4.6115,4.7938,4.8915,4.9052,4.9052,4.9052,4.8193,4.784,4.8505,4.7822,4.7489,4.7801,4.7684,4.7297,4.6563,4.6482,4.6367,4.6187,4.6133,4.6091,4.6076,4.6022,4.6002,4.5982,4.5181,4.4335,4.3426,4.2558,4.1657,4.077,4.0732,4.0641,4.0534,4.0433,4.0353,4.0205,3.9336,3.8144,3.6792,3.5804,3.5318,3.5132,0.0,0.0,0.0,0.0,0.0,0.0,0.0,0.0,2.1139,2.22,2.2819,2.3324,2.3793,2.3995,2.3628,2.2477,2.3789,2.6599,3.1166,3.4572,3.877,4.4005,4.5788,4.7327,4.8731,5.0371,5.1539,5.2181,5.3078,5.345,5.3365,5.3365,5.3596,5.4052,5.4062,5.4335,5.4732,5.4814,5.4311,5.3358,5.1883,5.0443,4.8882,4.6522,4.5187,4.4397,4.3031,4.1523,4.0344,4.1302,4.1067,4.0504,4.1362,4.111,4.0002,3.7642,0.0,3.3475,3.2585,3.3091,3.412,3.5023,3.6407,3.8065,0.0,0.0,4.0289,3.9844,3.9744,3.9937,4.0577,4.1613,4.3151,4.5533,4.6876,4.8152,4.9733,4.9948,4.9948,4.9948,4.8562,4.7645,4.7723,4.6944,4.7061,4.8545,4.7998,4.7523,4.7362,4.7363,4.6964,4.6147,4.6109,4.6064,4.6017,4.6007,4.6002,4.5982,4.5181,4.427,4.3284,4.2431,4.1506,4.0621,4.05,4.0411,4.0337,4.0319,4.032,4.0205,3.9336,3.8747,3.8209,3.685,3.5756,3.4926,0.0,0.0,0.0,0.0,0.0,0.0,0.0,0.0,0.0,2.1249,2.1889,2.2329,2.237,2.2384,2.1696,1.9957,2.2735,2.6098,2.9699,3.3996,3.8454,4.3047,4.5111,4.665,4.7699,4.9171,5.0287,5.1014,5.1792,5.2164,5.2164,5.2164,5.2709,5.3732,5.3585,5.4098,5.5107,5.5044,5.4049,5.2498,5.1937,5.0252,4.7844,4.5938,4.445,4.3162,4.1574,4.0311,0.0,3.9349,3.95,3.9835,4.0802,3.9956,3.8332,3.6763,3.4626,0.0,3.4318,3.4642,3.5208,0.0,3.891,3.9965,4.1857,4.2311,4.256,4.3405,4.3574,4.3689,4.4016,4.4823,4.5939,0.0,4.8463,4.948,5.0692,5.0416,4.9909,4.9403,4.8308,4.7977,4.8953,4.8271,4.8057,4.8759,4.8486,4.7836,4.6797,4.6734,4.6554,4.6102,4.6052,4.6027,4.6002,4.6002,4.6002,4.6002,4.5113,4.4193,4.3272,4.237,4.1405,4.0477,4.0386,4.0327,4.0301,4.0301,4.0301,4.0253,3.9718,3.915,3.8403,3.6834,3.5883,3.5294,0.0,0.0,0.0,0.0,0.0,0.0,0.0,0.0,0.0,0.0,2.1037,2.1357,2.1371,2.103,2.0316,1.916,2.1891,2.5144,2.8648,3.2917,3.7224,4.1508,4.3859,4.5415,4.616,4.7834,4.8968,4.9492,5.0236,5.0655,5.0813,5.1048,5.1754,5.2811,5.3113,5.37,5.442,5.4617,5.3663,5.1934,5.1425,4.9715,4.7223,4.4998,4.2896,4.0956,3.9537,3.8253,3.711,3.6377,3.6439,3.7044,3.824,3.7488,3.5967,3.4824,3.2946,3.1795,3.44,0.0,0.0,3.9777,4.1391,4.2519,4.3837,4.435,4.489,4.6058,4.63,4.6378,4.6612,4.6983,4.7666,4.8954,4.9481,5.0046,5.0926,5.0494,4.9694,4.8603,4.7959,4.8074,4.9284,4.8623,4.8291,4.8779,4.8573,4.7983,4.6951,4.6656,4.6493,4.6438,4.6158,4.6002,4.6002,4.6002,4.5986,4.5964,4.5273,4.4357,4.3181,4.199,4.1053,4.0358,4.0309,4.0301,4.0301,4.0225,4.0186,4.0166,3.9892,3.9362,3.8565,3.7133,3.6186,3.5521,0.0,0.0,0.0,0.0,0.0,0.0,0.0,0.0,0.0,0.0,0.0,0.0,0.0,2.0312,2.0017,2.136,2.1668,2.4001,2.9226,3.1913,3.5346,3.9977,4.2286,4.3859,4.4649,4.6819,4.7922,4.7956,4.8714,4.9311,4.986,5.0629,5.1207,5.1625,5.3182,5.3423,5.2745,5.3645,5.3634,5.2758,5.056,4.919,4.8034,4.4005,4.0585,3.7813,3.6939,3.4947,3.2697,3.2082,3.1332,3.1025,3.2989,3.3621,0.0,3.1704,2.9944,0.0,0.0,0.0,3.7351,4.0186,4.3529,4.6147,4.6197,4.6862,4.7253,4.6456,4.63,4.6554,4.7391,4.6885,4.7159,4.9655,4.9364,4.915,5.0026,5.0124,4.9499,4.782,4.7606,4.7625,0.0,4.6885,4.7042,4.8681,4.8022,4.7869,4.8587,4.7819,4.7334,4.7264,4.6449,4.6002,4.6002,4.6002,4.5978,4.5906,4.5861,4.4861,4.2939,4.1158,4.0329,4.0291,4.0301,4.0301,4.0291,4.0017,3.9914,3.9892,3.9623,3.9344,3.898,3.8143,3.6824,3.5417,0.0,0.0,0.0,0.0,0.0,0.0,0.0,0.0,0.0,0.0,0.0,0.0,0.0,0.0,0.0,0.0,2.1458,2.3341,2.5588,2.9507,3.2858,3.5397,3.8719,4.0832,4.1602,4.3284,4.4567,4.5384,4.6144,4.6797,4.7282,4.7561,4.823,4.918,4.9287,4.9962,5.0969,5.0399,5.0321,5.0364,4.7553,4.5955,4.4813,4.0855,3.7678,3.5036,0.0,3.0805,2.9502,2.8753,2.8799,2.9448,3.1233,0.0,0.0,2.7516,0.0,0.0,0.0,0.0,3.9264,4.3292,4.5204,4.6274,4.6935,4.7362,4.7352,4.6475,4.4851,4.3702,4.4077,4.4317,4.4933,4.6418,4.8344,4.9753,5.0065,5.0104,4.948,4.7801,4.7606,0.0,0.0,0.0,0.0,4.7906,4.8203,4.7961,4.7017,4.7242,4.7092,4.6468,4.6157,4.6002,4.6002,4.596,4.5912,4.59,4.5125,4.4387,4.3618,4.1887,4.1094,4.1074,4.053,4.0196,4.0027,3.9935,3.9804,3.9611,3.935,3.9178,3.9036,3.8596,3.7749,3.6717,0.0,0.0,0.0,0.0,0.0,0.0,0.0,0.0,0.0,0.0,0.0,0.0,0.0,0.0,0.0,0.0,0.0,2.2309,2.3342,2.6914,2.9796,3.1587,3.4668,3.6695,3.7443,3.8649,3.9627,4.0425,4.1564,4.2378,4.2873,4.3745,4.4599,4.5337,4.5494,4.6197,4.7215,4.6371,4.6339,4.6596,4.3719,4.2132,4.1091,3.778,3.5021,0.0,2.965,2.7913,2.688,2.6254,2.653,0.0,0.0,0.0,0.0,0.0,0.0,0.0,0.0,3.8285,4.1081,4.568,4.7096,4.7373,4.7414,4.7735,4.7608,4.6144,4.3648,4.1782,4.192,4.1541,4.1623,4.2871,4.4957,4.6858,4.8092,4.8014,4.7877,4.8016,4.7781,0.0,0.0,0.0,0.0,4.7051,4.7811,4.7792,4.6631,4.7061,4.7096,4.6487,4.6157,4.5986,4.5953,4.5912,4.5859,4.5734,4.4647,4.3944,4.351,4.2125,4.1342,4.1036,4.0511,4.0196,4.0027,3.9848,3.9658,3.9458,3.9101,3.8964,3.8935,3.8765,3.8377,3.7808,0.0,0.0,0.0,0.0,0.0,0.0,0.0,0.0,0.0,0.0,0.0,0.0,0.0,0.0,0.0,0.0,0.0,0.0,2.2585,2.4363,2.6354,2.8586,3.0458,3.177,3.2451,3.3222,3.3654,3.3674,3.5356,3.6472,3.7031,3.9402,4.0353,4.0166,4.1833,4.2214,4.1628,4.1735,4.184,4.169,3.9271,3.7966,3.7173,3.4847,3.2681,3.0555,2.8286,2.6458,2.5076,0.0,0.0,0.0,0.0,0.0,0.0,0.0,0.0,3.2007,3.9544,4.1722,4.2904,4.7279,4.9057,4.9318,4.7726,4.8044,4.7939,4.5342,4.2576,4.0655,0.0,0.0,3.7692,3.9504,4.0067,4.1423,4.4729,4.4553,4.5258,0.0,0.0,0.0,0.0,0.0,0.0,4.6386,0.0,4.7445,4.7396,4.7388,4.7337,4.724,4.6419,4.5953,4.59,4.5886,4.5754,4.5485,4.4527,4.3663,4.2908,4.1972,4.1151,4.0416,4.0339,4.0272,4.0225,3.9705,3.9471,3.9414,3.891,3.8707,3.8707,3.8707,3.8707,3.8597,0.0,0.0,0.0,0.0,0.0,0.0,0.0,0.0,0.0,0.0,0.0,0.0,0.0,0.0,0.0,0.0,0.0,0.0,2.2291,2.3932,2.5157,2.5733,2.7928,2.9231,2.942,3.0672,3.1488,3.1795,3.2842,3.3583,3.4011,3.4701,3.4946,3.4885,3.6056,3.6495,3.6397,3.7226,3.7653,3.7599,3.5293,3.471,3.489,3.1967,3.0555,2.9996,2.8744,2.7711,0.0,0.0,0.0,0.0,0.0,0.0,3.1056,0.0,0.0,3.7298,4.0568,4.3311,4.5869,4.8475,4.8905,4.8608,4.834,4.7579,4.6025,4.276,3.9396,3.6674,0.0,0.0,0.0,3.9491,4.3565,0.0,4.7703,4.8757,0.0,0.0,0.0,4.9296,4.8846,4.8594,0.0,0.0,4.8253,4.8055,4.7359,4.7936,4.7667,4.6366,4.6071,4.5925,4.59,4.5708,4.5522,4.535,4.5088,4.4857,4.4609,4.3138,4.2354,4.2087,4.0836,4.0077,3.9693,3.9563,3.9272,3.8896,3.875,3.8707,3.8707,3.8707,3.8707,3.867,0.0,0.0,0.0,0.0,0.0,0.0,0.0,0.0,0.0,0.0,0.0,0.0,0.0,0.0,0.0,0.0,0.0,0.0,0.0,2.2977,2.3813,2.3813,2.5224,2.6021,2.6021,2.6838,2.7535,2.8125,2.8989,2.9688,3.0235,3.0666,3.0874,3.0862,3.1498,3.1978,3.2383,3.3069,3.3694,0.0,0.0,3.1875,3.2564,3.0141,2.9553,2.9927,2.9131,2.9098,0.0,0.0,0.0,3.2076,3.3049,3.3588,3.4358,3.6627,0.0,4.0894,4.403,4.6262,4.7989,4.9076,4.9107,4.8418,4.6708,4.542,4.3484,3.9626,3.5964,0.0,0.0,0.0,0.0,0.0,0.0,0.0,4.6921,4.7975,4.8933,0.0,5.0041,0.0,4.9941,4.9541,4.9428,0.0,4.9442,4.8665,4.7381,4.8133,4.7786,4.5999,4.5932,4.5833,4.5731,4.5522,4.538,4.5307,4.5307,4.5105,4.4685,4.3274,4.2432,4.1984,0.0,3.9781,3.9483,3.9357,3.9156,3.8903,3.9136,3.9239,3.9276,3.9625,3.9753,3.9698,0.0,0.0,0.0,0.0,0.0,0.0,0.0,0.0,0.0,0.0,2.1352,2.1799,0.0,0.0,0.0,0.0,0.0,0.0,0.0,0.0,2.2764,2.2777,2.3008,2.3126,2.3139,2.3139,2.3497,2.4217,2.5027,2.5778,2.6436,2.7241,2.762,2.7638,2.7875,2.8451,2.928,2.9587,3.024,3.096,2.9573,2.9626,3.0396,0.0,2.9313,3.0152,2.958,0.0,0.0,0.0,3.4629,3.4873,3.5215,3.58,3.716,4.1242,4.2428,4.344,4.8079,4.9345,4.9335,4.9332,4.9312,4.823,4.4166,4.2536,4.0627,3.6138,0.0,3.0665,3.1365,3.1712,3.2616,3.4764,0.0,4.1538,4.5022,4.5609,4.7096,5.0933,5.0738,5.0566,5.1307,5.0574,5.0385,5.1148,5.0497,4.9352,4.7731,4.8133,4.7641,4.5938,4.5866,4.5731,4.5476,4.536,4.5307,4.5307,4.5307,4.4885,4.4069,4.3027,4.2117,4.1313,4.0258,0.0,3.9745,3.9508,3.9389,3.9425,3.9881,4.0065,4.0139,4.0838,4.1095,4.0967,0.0,0.0,0.0,0.0,0.0,0.0,0.0,0.0,0.0,0.0,2.1338,2.1806,0.0,0.0,0.0,0.0,0.0,0.0,0.0,0.0,0.0,2.3193,2.3241,2.3313,2.3436,2.3436,2.3552,2.3799,2.3977,2.4162,2.4407,2.4573,2.4624,2.461,2.539,2.6213,2.7024,2.79,2.8491,2.8829,2.8668,2.882,2.9129,2.9,0.0,0.0,0.0,0.0,0.0,3.494,3.6889,3.881,4.0217,4.1274,4.2403,4.4503,4.5118,4.5764,4.8744,4.9544,4.9543,4.9538,4.8623,4.6765,4.3225,4.0733,0.0,0.0,3.0619,2.951,2.8966,3.0567,0.0,3.7183,0.0,0.0,0.0,0.0,4.9765,0.0,0.0,0.0,0.0,0.0,0.0,0.0,0.0,5.0526,4.9499,4.823,4.699,4.5765,4.5635,4.5495,4.5348,4.5317,4.5307,4.5307,4.5307,4.5085,4.4633,4.377,4.3152,4.2714,4.1854,0.0,4.1151,4.1092,4.0947,4.0754,4.0871,4.0875,4.0912,4.104,4.1095,4.0967,0.0,0.0,0.0,0.0,0.0,0.0,0.0,2.0307,2.0661,2.1644,2.2289,2.2669,2.2691,2.2638,2.2607,0.0,0.0,0.0,0.0,0.0,0.0,0.0,0.0,0.0,2.3505,2.3505,0.0,0.0,0.0,0.0,0.0,0.0,0.0,0.0,0.0,2.5081,2.5958,2.6979,2.7829,2.8454,2.8482,2.8924,0.0,0.0,0.0,0.0,0.0,0.0,0.0,0.0,3.6363,3.9902,4.1669,4.3069,4.4325,4.5623,4.6654,4.7694,4.9277,5.0047,5.0169,4.9304,4.8176,4.5944,4.0779,0.0,0.0,0.0,2.8434,2.8151,2.8142,0.0,0.0,0.0,0.0,0.0,0.0,0.0,0.0,0.0,0.0,0.0,0.0,0.0,0.0,0.0,0.0,5.0328,4.9926,4.8102,4.6629,4.5629,4.5467,4.536,4.5307,4.5307,4.5307,4.5297,4.5121,4.4957,4.4769,4.364,4.303,4.2837,4.1898,0.0,4.1298,4.1298,4.1222,4.1132,4.157,4.1735,4.1791,4.2194,4.2359,4.2231,0.0,0.0,0.0,0.0,0.0,0.0,2.096,2.1055,2.1551,2.2747,2.348,2.3705,2.3233,2.2979,2.2781,0.0,0.0,0.0,0.0,0.0,0.0,0.0,0.0,0.0,0.0,0.0,0.0,0.0,0.0,0.0,0.0,0.0,0.0,0.0,0.0,0.0,0.0,2.7024,2.798,0.0,0.0,0.0,0.0,0.0,0.0,0.0,0.0,0.0,0.0,0.0,3.4237,3.778,3.9613,4.1912,4.4156,4.5313,4.6748,4.824,4.9521,5.05,5.0762,4.9064,4.7864,4.5354,3.8711,3.5895,0.0,0.0,2.7167,2.7414,2.823,0.0,0.0,0.0,0.0,0.0,0.0,0.0,0.0,0.0,0.0,0.0,0.0,0.0,0.0,0.0,0.0,0.0,4.9334,4.7758,4.6446,4.5523,4.537,4.5307,4.5307,4.5307,4.5256,4.5184,4.4934,4.4739,4.4593,4.3482,4.2949,4.282,4.1979,0.0,0.0,4.1625,4.1625,4.168,4.2304,4.2561,4.2635,4.3276,4.3515,4.3386,0.0,0.0,0.0,0.0,0.0,0.0,2.1776,2.1842,2.2445,2.4245,2.4509,2.4586,2.4771,2.4071,2.3577,0.0,0.0,0.0,0.0,0.0,0.0,0.0,0.0,0.0,0.0,0.0,0.0,0.0,0.0,0.0,0.0,0.0,0.0,0.0,0.0,0.0,0.0,0.0,0.0,0.0,0.0,0.0,0.0,0.0,0.0,0.0,0.0,0.0,0.0,0.0,0.0,3.057,3.2466,3.6896,4.1758,4.3362,0.0,0.0,4.9198,5.0714,5.0957,4.922,4.7572,4.4784,3.8607,0.0,0.0,2.8907,2.7983,2.8244,2.9125,2.9536,3.0797,0.0,0.0,3.7249,0.0,0.0,0.0,0.0,0.0,0.0,0.0,0.0,0.0,0.0,0.0,0.0,4.7475,4.7006,4.6406,4.5523,4.537,4.5307,4.5307,4.5307,4.5151,4.4856,4.48,4.4533,4.4079,4.3943,4.3717,4.342,4.3313,0.0,0.0,4.3277,4.3277,4.3277,4.3368,4.3404,4.3387,4.3478,4.3515,4.3386,0.0,0.0,0.0,0.0,0.0,0.0,2.1613,2.2072,2.304,2.4711,2.4596,2.4572,2.5176,2.4509,2.3917,2.3714,0.0,0.0,0.0,0.0,0.0,0.0,0.0,0.0,0.0,0.0,0.0,0.0,0.0,0.0,0.0,0.0,0.0,0.0,0.0,0.0,0.0,0.0,0.0,0.0,0.0,0.0,0.0,0.0,0.0,0.0,0.0,0.0,0.0,0.0,0.0,0.0,2.8385,3.0853,0.0,0.0,4.1476,4.4033,4.6955,4.915,5.0208,4.8496,4.6364,4.3368,3.8341,0.0,3.2094,2.8775,2.8524,2.8985,2.9272,2.9775,3.0567,3.1938,0.0,0.0,0.0,0.0,0.0,0.0,0.0,0.0,0.0,0.0,0.0,0.0,0.0,0.0,4.773,4.7567,4.6868,4.5418,4.5338,4.5194,4.5011,4.5194,4.5053,4.4559,4.4559,4.436,4.3989,4.3798,4.3632,4.3515,4.3515,0.0,0.0,4.3515,4.3515,4.3515,4.3515,4.3515,4.3515,4.3515,4.3515,4.346,0.0,0.0,0.0,0.0,0.0,2.2327,2.1848,2.2571,2.3752,2.5335,2.5165,2.5126,2.5686,2.4804,2.4103,2.3919,2.3951,0.0,0.0,0.0,0.0,0.0,0.0,0.0,0.0,0.0,2.453,2.4736,0.0,0.0,0.0,0.0,0.0,0.0,0.0,0.0,0.0,0.0,0.0,0.0,0.0,0.0,0.0,0.0,0.0,0.0,0.0,0.0,0.0,0.0,0.0,0.0,0.0,0.0,0.0,0.0,3.7937,4.1476,4.4309,4.7164,4.9022,4.7567,4.5191,4.2161,0.0,0.0,3.1697,2.933,2.9334,2.9732,2.9692,3.0199,3.0595,3.0593,0.0,3.2915,0.0,0.0,0.0,0.0,0.0,0.0,0.0,0.0,0.0,0.0,0.0,0.0,0.0,4.7702,4.6866,4.5345,4.5307,4.5184,4.4946,4.5068,4.4898,4.4397,4.4318,4.4132,4.3846,4.3599,4.3515,4.3515,0.0,0.0,0.0,4.3515,4.3515,4.3515,4.3515,4.3515,4.3515,4.3515,4.3427,4.3322,0.0,0.0,0.0,0.0,0.0,0.0,2.2758,2.3572,2.4681,2.6382,2.6583,2.6583,2.6583,2.5094,2.4171,2.4376,2.4143,0.0,0.0,0.0,0.0,0.0,0.0,0.0,0.0,0.0,2.5178,2.5973,2.6068,2.6937,0.0,0.0,0.0,0.0,0.0,0.0,0.0,0.0,0.0,0.0,0.0,0.0,0.0,0.0,0.0,0.0,0.0,0.0,0.0,0.0,0.0,0.0,0.0,0.0,0.0,0.0,3.3849,3.801,4.1495,4.4983,4.7411,4.6534,4.4294,4.1418,0.0,0.0,3.2683,3.0942,3.0577,3.0598,3.0598,3.0598,3.0607,3.0595,3.0619,0.0,0.0,0.0,0.0,0.0,0.0,0.0,0.0,0.0,0.0,0.0,0.0,0.0,0.0,4.6978,4.6137,4.5326,4.5307,4.5297,4.5297,4.4969,4.4663,4.4402,4.4136,4.383,4.3515,4.3515,4.3515,0.0,0.0,0.0,0.0,4.3515,4.3515,4.3515,4.3515,4.3515,4.3515,4.3515,4.325,4.2901,0.0,0.0,0.0,0.0,0.0,0.0,2.295,2.3534,2.4429,2.5552,2.5191,2.5032,2.5581,2.4795,2.4238,2.4266,2.4311,0.0,0.0,0.0,0.0,0.0,0.0,0.0,0.0,0.0,2.5842,2.6144,2.7259,2.7807,2.7815,2.8966,2.8914,0.0,0.0,0.0,0.0,0.0,0.0,0.0,0.0,0.0,0.0,0.0,0.0,0.0,0.0,0.0,0.0,0.0,0.0,0.0,0.0,0.0,0.0,2.4943,2.9334,0.0,3.7169,4.0023,4.1992,4.1112,3.9364,3.7416,3.5748,0.0,3.1273,3.0713,3.0602,3.0598,3.0598,3.0598,3.0394,2.9801,2.9749,0.0,0.0,0.0,0.0,0.0,0.0,0.0,0.0,0.0,0.0,0.0,0.0,0.0,0.0,4.6653,4.6137,4.5326,4.5307,4.5098,4.4682,4.4751,4.4465,4.3793,4.3923,4.383,4.3515,4.3515,0.0,0.0,0.0,0.0,0.0,4.3515,4.3515,4.3515,4.3515,4.3339,4.3105,4.3105,4.2807,4.2418,0.0,0.0,0.0,0.0,0.0,0.0,2.3305,2.3668,2.4277,2.5111,2.4772,2.4634,2.5152,2.4649,2.4275,2.4266,2.473,0.0,0.0,0.0,0.0,0.0,0.0,0.0,2.4893,2.5383,2.5977,2.6642,2.7691,2.8233,2.8358,2.9466,2.9273,2.799,2.8018,0.0,0.0,0.0,0.0,0.0,0.0,0.0,2.8568,0.0,0.0,0.0,0.0,0.0,0.0,0.0,0.0,0.0,0.0,0.0,0.0,0.0,2.6844,3.0681,0.0,3.6556,3.8627,3.8079,3.6641,0.0,0.0,0.0,3.0141,3.0141,3.0141,3.0234,3.0539,3.0623,3.0455,2.9928,2.9865,0.0,0.0,0.0,0.0,0.0,0.0,0.0,0.0,0.0,0.0,0.0,0.0,0.0,0.0,4.617,4.5718,4.4984,4.5065,4.4922,4.4546,4.4525,4.4231,4.3699,4.3781,4.3699,4.3515,4.3515,0.0,0.0,0.0,0.0,0.0,4.3515,4.341,4.3268,4.3268,4.3013,4.2634,4.2634,4.2338,4.1927,0.0,0.0,0.0,0.0,0.0,0.0,0.0,2.3907,2.4169,2.4914,2.5055,2.5116,2.5126,2.4574,2.4294,2.4491,2.5415,0.0,0.0,0.0,0.0,0.0,0.0,0.0,2.4908,2.4965,2.5778,2.7415,2.752,2.8389,2.9905,3.0023,2.9626,2.8806,2.8876,2.7993,2.6542,2.7434,2.8766,3.0292,3.0241,2.9243,0.0,0.0,0.0,0.0,0.0,0.0,0.0,0.0,0.0,0.0,0.0,0.0,0.0,0.0,0.0,0.0,0.0,3.4075,0.0,0.0,0.0,0.0,0.0,0.0,0.0,2.9462,2.9443,2.9633,3.0453,3.0649,3.0675,3.062,3.0608,0.0,0.0,0.0,0.0,0.0,0.0,0.0,0.0,0.0,0.0,0.0,0.0,0.0,0.0,4.5525,4.4976,4.443,4.4624,4.4739,4.4739,4.425,4.3989,4.3958,4.3649,4.3515,4.3515,4.3515,0.0,0.0,0.0,0.0,0.0,4.348,4.325,4.29,4.2863,4.2557,4.2136,4.2136,4.1864,4.1468,0.0,0.0,0.0,0.0,0.0,0.0,0.0,0.0,0.0,0.0,2.4148,2.419,2.4341,2.4303,2.4632,0.0,0.0,0.0,0.0,0.0,0.0,0.0,0.0,0.0,2.5076,2.5664,2.6488,2.7544,2.8186,2.8992,2.9972,3.0003,2.9589,2.8812,2.8815,2.8642,2.839,2.8668,2.9363,3.026,2.9631,2.8754,0.0,0.0,0.0,0.0,2.5376,2.6416,0.0,0.0,0.0,0.0,0.0,0.0,0.0,0.0,2.5031,2.6906,2.7712,0.0,3.1316,3.1971,3.184,3.1428,0.0,0.0,0.0,0.0,0.0,0.0,0.0,3.0616,3.0416,2.9813,2.9743,0.0,0.0,0.0,0.0,0.0,0.0,0.0,0.0,0.0,0.0,0.0,0.0,0.0,0.0,4.4789,4.4552,4.4397,4.4265,4.4196,4.4196,4.4064,4.3878,4.3615,4.3549,4.3515,4.3515,4.3515,0.0,0.0,0.0,0.0,4.348,4.3178,4.2994,4.2863,4.2498,4.2074,4.167,4.167,4.1401,4.1041,0.0,0.0,0.0,0.0,0.0,0.0,0.0,0.0,0.0,0.0,2.4368,2.4667,2.4791,2.4912,2.537,0.0,0.0,0.0,0.0,0.0,0.0,0.0,0.0,2.5892,2.512,2.5926,2.6745,2.7544,2.8391,2.9198,2.9956,3.0022,2.9798,2.9342,2.8994,2.9134,2.957,2.9218,2.9537,3.0228,2.9396,0.0,0.0,0.0,0.0,0.0,2.5402,2.6316,0.0,2.5832,2.5948,2.6445,0.0,0.0,0.0,0.0,2.5015,2.6093,2.609,2.7666,2.9399,2.9882,3.0296,3.0395,2.964,0.0,0.0,0.0,0.0,0.0,0.0,0.0,0.0,0.0,0.0,0.0,0.0,0.0,0.0,0.0,0.0,0.0,0.0,0.0,0.0,0.0,0.0,0.0,0.0,4.4388,4.4246,4.3992,4.3936,4.3939,4.4005,4.3846,4.3682,4.3515,4.3515,4.3515,4.3515,4.3515,4.3515,0.0,0.0,0.0,4.3214,4.2976,4.2653,4.2218,4.1969,4.1622,4.1214,4.1214,4.1088,4.0912,0.0,0.0,0.0,0.0,0.0,0.0,0.0,0.0,0.0,0.0,0.0,0.0,0.0,0.0,0.0,0.0,0.0,0.0,0.0,0.0,0.0,0.0,2.6662,2.6256,2.5316,2.6136,2.6942,2.769,2.8434,2.9163,2.9897,3.0038,3.0076,3.0019,2.9395,2.957,3.0273,2.9525,2.964,3.0235,2.9219,0.0,0.0,0.0,0.0,0.0,0.0,0.0,0.0,2.6598,2.6524,2.6613,2.7239,0.0,0.0,0.0,0.0,0.0,2.5545,2.7495,2.9453,2.9326,2.9952,3.0238,2.8818,0.0,0.0,0.0,0.0,0.0,0.0,0.0,0.0,0.0,0.0,0.0,0.0,0.0,0.0,0.0,0.0,0.0,0.0,0.0,0.0,0.0,0.0,0.0,0.0,4.4072,4.3934,4.3462,4.3629,4.3793,4.391,4.3632,4.3515,4.3515,4.3515,4.3515,4.3515,4.3515,4.3515,0.0,0.0,0.0,4.2882,4.2825,4.2279,4.1494,4.1423,4.1209,4.0912,4.0912,4.0912,4.0912,0.0,0.0,0.0,0.0,0.0,0.0,0.0,0.0,0.0,0.0,0.0,0.0,0.0,0.0,0.0,0.0,0.0,0.0,0.0,0.0,0.0,2.7574,2.8132,2.7788,2.6225,2.6941,2.7742,2.8601,2.8677,2.9109,2.9897,3.0038,3.0159,3.026,3.0196,3.0257,3.0375,3.0249,3.0263,3.0235,2.862,0.0,0.0,0.0,0.0,0.0,0.0,0.0,0.0,2.6011,2.5734,2.5579,2.4975,0.0,0.0,0.0,0.0,0.0,2.6236,2.8326,3.0146,2.9479,2.9954,3.0522,3.0268,0.0,0.0,0.0,0.0,0.0,0.0,0.0,0.0,0.0,0.0,0.0,0.0,0.0,0.0,0.0,0.0,0.0,0.0,0.0,0.0,0.0,0.0,0.0,0.0,4.3511,4.3321,4.3251,4.3375,4.3481,4.3481,4.3497,4.3515,4.3515,4.3515,4.3515,4.3515,4.3515,4.3515,4.3515,0.0,4.3268,4.2863,4.2458,4.199,4.1468,4.1117,4.0965,4.0912,4.0912,4.0912,4.0912,0.0,0.0,0.0,0.0,0.0,0.0,0.0,0.0,0.0,0.0,0.0,0.0,0.0,0.0,0.0,0.0,0.0,0.0,0.0,0.0,2.9543,2.8394,2.9089,2.8736,2.7075,2.7813,2.8385,2.8753,2.9197,2.9376,2.9315,2.9405,2.9746,3.0241,3.0279,3.0303,3.0344,3.0316,3.0086,2.9641,0.0,0.0,0.0,0.0,0.0,0.0,0.0,0.0,0.0,0.0,2.5554,2.5437,2.5079,0.0,0.0,0.0,0.0,0.0,2.6033,2.7235,2.8737,2.9752,3.1682,3.3232,3.2805,0.0,0.0,0.0,0.0,0.0,0.0,0.0,0.0,0.0,0.0,0.0,0.0,0.0,0.0,0.0,0.0,0.0,0.0,0.0,0.0,0.0,0.0,0.0,0.0,0.0,4.316,4.3214,4.3215,4.3287,4.3394,4.3429,4.3463,4.3515,4.3515,4.3515,4.3515,4.3515,4.3515,4.3497,0.0,4.292,4.2478,4.2011,4.1578,4.1163,4.0965,4.0912,4.0912,4.0912,4.0912,4.0912,0.0,0.0,0.0,0.0,0.0,0.0,0.0,0.0,0.0,0.0,0.0,0.0,0.0,0.0,0.0,0.0,0.0,0.0,0.0,2.9972,2.9768,2.9217,2.9703,2.9338,2.7916,2.8647,2.9026,2.8987,2.9478,2.9418,2.8848,2.8883,2.9377,3.0253,3.0221,3.0254,3.0296,3.0241,2.9821,2.9102,0.0,0.0,0.0,0.0,0.0,0.0,0.0,0.0,0.0,0.0,0.0,0.0,0.0,0.0,0.0,2.5707,2.6168,2.6644,2.5994,2.6746,2.8175,3.0131,3.2448,0.0,0.0,0.0,0.0,0.0,0.0,0.0,0.0,0.0,0.0,0.0,0.0,0.0,0.0,0.0,0.0,0.0,0.0,0.0,0.0,0.0,0.0,0.0,0.0,0.0,0.0,0.0,4.2886,4.3123,4.2741,4.2796,4.3305,4.3158,4.3228,4.3515,4.3515,4.3515,4.3515,4.3515,4.3444,4.3339,4.3032,4.2557,4.2011,4.1648,4.126,4.0912,4.0912,4.0912,4.0912,4.0912,4.0912,4.0912,0.0,0.0,0.0,0.0,0.0,0.0,0.0,0.0,0.0,0.0,0.0,0.0,0.0,0.0,0.0,0.0,0.0,0.0,0.0,3.0022,3.0076,3.0026,3.0,2.9589,2.8723,2.9436,2.9821,2.9821,2.9198,2.8912,2.8983,2.8923,2.9423,3.0381,3.0327,3.0296,3.0302,3.0296,2.9819,2.904,2.8227,0.0,0.0,0.0,0.0,0.0,0.0,0.0,0.0,0.0,0.0,0.0,0.0,0.0,2.4699,2.5314,2.6123,2.6792,2.6724,2.8526,3.0468,3.0644,3.0265,0.0,3.4726,3.3828,0.0,3.395,0.0,0.0,0.0,0.0,0.0,0.0,0.0,0.0,0.0,0.0,0.0,0.0,0.0,0.0,0.0,0.0,0.0,0.0,0.0,0.0,0.0,0.0,0.0,4.2902,4.1578,4.1614,4.3123,4.2431,4.2554,4.3515,4.3515,4.3515,4.3515,4.3515,4.3304,4.2939,4.2901,4.2398,4.1539,4.1516,4.126,4.0912,4.0912,4.0912,4.0912,4.0912,4.0912,4.0912,0.0,0.0,0.0,0.0,0.0,0.0,0.0,0.0,0.0,0.0,0.0,0.0,0.0,0.0,0.0,0.0,0.0,0.0,0.0,2.9948,2.9988,3.003,2.9972,2.9804,2.9551,2.9323,2.9467,2.9964,2.9275,2.8924,2.8937,2.8957,2.9416,3.0208,3.0195,3.0209,3.0203,2.9666,2.9014,2.8287,2.7424,2.6649,0.0,0.0,0.0,0.0,0.0,0.0,0.0,0.0,2.5115,2.4646,2.6027,2.6263,2.6069,2.6353,2.6636,2.6745,2.6257,2.761,2.9277,2.9823,2.9705,0.0,0.0,3.6677,3.6811,3.6913,3.7053,0.0,0.0,0.0,0.0,0.0,0.0,0.0,0.0,0.0,0.0,0.0,0.0,0.0,0.0,0.0,0.0,0.0,0.0,0.0,0.0,0.0,0.0,4.1415,4.0872,4.0925,4.1596,4.134,4.1541,4.2268,4.3048,4.3322,4.3142,4.3142,4.2883,4.2438,4.2157,4.1821,4.149,4.1214,4.1041,4.0912,4.0912,4.0912,4.0912,4.0912,4.0912,4.0912,0.0,0.0,0.0,0.0,0.0,0.0,0.0,0.0,0.0,0.0,0.0,0.0,0.0,0.0,0.0,0.0,0.0,0.0,2.9869,2.9645,2.9623,2.9945,2.9948,2.9948,2.9964,2.9216,2.9238,3.003,2.9329,2.8957,2.8931,2.897,2.9249,2.9727,3.0002,2.9853,2.9359,2.9045,2.8341,2.7415,2.685,2.6156,0.0,0.0,0.0,0.0,0.0,0.0,0.0,0.0,2.4703,2.4293,2.6032,2.6405,2.623,2.6504,2.6756,2.6754,2.5916,2.6738,2.8085,2.921,0.0,0.0,3.5992,3.7821,3.8703,3.9384,3.9471,0.0,0.0,0.0,0.0,0.0,0.0,0.0,0.0,0.0,0.0,0.0,0.0,0.0,0.0,0.0,0.0,0.0,0.0,0.0,0.0,0.0,0.0,0.0,4.0039,4.0003,4.0438,4.0239,4.051,4.1256,4.2174,4.2629,4.2673,4.2673,4.2418,4.1969,4.1648,4.1423,4.1283,4.0995,4.0912,4.0912,4.0912,4.0871,4.084,4.084,4.0817,4.0776,0.0,0.0,0.0,0.0,0.0,0.0,0.0,0.0,0.0,0.0,0.0,0.0,0.0,0.0,0.0,0.0,0.0,0.0,2.9832,2.9093,2.9009,2.9851,2.9964,2.9964,2.9897,2.9253,2.9284,3.0083,2.9294,2.8949,2.8996,2.8931,2.8916,2.8946,2.9808,2.9235,2.7675,2.8522,2.7963,2.6512,2.6644,2.6161,2.5337,0.0,0.0,0.0,0.0,0.0,0.0,0.0,2.3821,2.3392,2.5155,2.5116,2.457,2.5449,2.6326,2.6793,2.5929,2.6341,2.7434,0.0,0.0,0.0,3.6131,3.6505,3.7097,4.1172,0.0,0.0,0.0,0.0,0.0,0.0,0.0,0.0,0.0,0.0,0.0,0.0,0.0,0.0,0.0,0.0,0.0,0.0,0.0,0.0,0.0,0.0,0.0,0.0,3.8989,3.8742,3.9862,3.9224,3.9504,4.0681,4.0836,4.1347,4.2177,4.2177,4.1927,4.1494,4.1494,4.126,4.0912,4.0912,4.0912,4.0912,4.0912,4.0817,4.0697,4.0697,4.0607,4.0534,0.0,0.0,0.0,0.0,0.0,0.0,0.0,0.0,0.0,0.0,0.0,0.0,0.0,0.0,0.0,0.0,0.0,0.0,2.9823,2.9691,2.9685,2.9897,3.0014,3.0061,3.0049,2.9846,2.931,2.8402,2.9357,2.9515,2.8947,2.9541,2.9787,2.9755,3.0013,2.9491,2.8427,2.8112,2.7414,2.6462,2.5972,2.5696,2.5452,0.0,0.0,0.0,0.0,0.0,0.0,0.0,0.0,0.0,2.5682,2.5605,2.4687,2.6172,2.6367,2.6035,2.5778,2.7588,0.0,2.945,0.0,0.0,0.0,3.7756,0.0,0.0,0.0,0.0,0.0,0.0,0.0,0.0,0.0,0.0,0.0,0.0,0.0,0.0,0.0,0.0,0.0,0.0,0.0,0.0,0.0,0.0,0.0,0.0,0.0,0.0,3.8043,3.7864,3.7934,3.8348,3.8903,3.9578,4.0143,4.058,4.0941,4.0941,4.0683,4.0215,4.0215,4.0429,4.0745,4.0655,4.0631,4.0631,4.0631,4.0583,4.0558,4.0558,4.0534,4.051,0.0,0.0,0.0,0.0,0.0,0.0,0.0,0.0,0.0,0.0,0.0,0.0,0.0,0.0,0.0,0.0,0.0,0.0,0.0,2.962,2.963,2.9953,3.0061,3.0113,3.015,3.0109,2.962,2.8656,2.9688,2.9923,2.9436,2.9942,3.0006,2.9672,2.9997,2.9303,2.7872,2.7758,2.7053,2.5986,2.5634,2.5538,2.5547,0.0,0.0,0.0,0.0,0.0,0.0,0.0,0.0,0.0,2.5213,2.5018,2.416,2.5522,2.5558,2.5358,2.63,0.0,0.0,3.1538,3.3558,3.5825,3.7854,0.0,0.0,0.0,0.0,0.0,0.0,0.0,0.0,0.0,0.0,0.0,0.0,0.0,0.0,0.0,0.0,0.0,0.0,0.0,0.0,0.0,0.0,0.0,0.0,0.0,0.0,0.0,3.7667,3.7431,3.6913,3.7468,3.8117,3.8816,3.9016,3.9486,4.0127,4.0441,4.0445,4.0164,4.0117,4.0298,4.0607,4.0534,4.051,4.051,4.051,4.0461,4.0412,4.0412,4.0387,4.0362,0.0,0.0,0.0,0.0,0.0,0.0,0.0,0.0,0.0,0.0,2.5587,0.0,0.0,0.0,0.0,0.0,0.0,0.0,0.0,2.9238,2.9209,3.0057,3.0113,3.013,3.0204,3.015,3.0113,3.011,3.0169,3.014,3.0063,3.0166,2.978,2.9034,2.976,2.8792,2.6674,2.7454,2.6833,2.5332,2.5524,2.5609,2.5617,2.5677,0.0,0.0,0.0,0.0,0.0,0.0,0.0,0.0,2.4215,2.3824,2.3163,2.4044,2.4352,2.4944,2.7372,0.0,0.0,3.4593,0.0,0.0,0.0,0.0,0.0,0.0,0.0,0.0,0.0,0.0,0.0,0.0,0.0,0.0,0.0,0.0,0.0,0.0,0.0,0.0,0.0,0.0,0.0,0.0,0.0,0.0,0.0,0.0,0.0,3.7685,3.7632,3.7262,3.6571,3.6745,3.7353,3.8322,3.7826,3.8284,3.9612,4.0308,4.056,4.0578,4.0504,4.0429,4.0383,4.0383,4.0392,4.0444,4.0444,4.0387,4.028,4.028,4.0213,4.0138,0.0,0.0,0.0,0.0,0.0,0.0,0.0,0.0,0.0,0.0,0.0,0.0,0.0,0.0,0.0,0.0,0.0,0.0,0.0,2.984,2.9893,3.0095,3.0145,3.018,3.0211,3.0197,3.0171,3.0183,3.0147,2.9775,2.912,2.9853,2.9761,2.9008,2.9174,2.8633,2.7557,2.7031,2.6315,2.5538,2.5574,2.5627,2.5672,2.5683,2.5824,0.0,0.0,0.0,0.0,0.0,0.0,0.0,2.4937,2.3922,2.2458,2.3945,2.4787,2.5794,2.8382,3.1021,0.0,0.0,0.0,0.0,0.0,0.0,0.0,0.0,0.0,0.0,0.0,0.0,0.0,0.0,0.0,0.0,0.0,0.0,0.0,0.0,0.0,0.0,0.0,0.0,0.0,0.0,0.0,0.0,0.0,0.0,0.0,3.6724,3.6779,3.6673,3.6293,3.6986,3.7474,0.0,3.8146,3.8525,3.8819,3.8427,3.8176,3.8098,3.8545,3.9003,3.9462,3.9372,3.9662,4.0188,4.0188,4.0171,4.0138,4.0138,4.0121,4.0096,0.0,0.0,0.0,0.0,0.0,0.0,0.0,0.0,0.0,0.0,0.0,0.0,0.0,0.0,0.0,0.0,0.0,0.0,0.0,0.0,3.0157,3.015,3.018,3.0023,2.964,2.9587,2.9389,2.9001,2.8968,2.8935,2.8911,2.9404,2.9423,2.905,2.9056,2.8412,2.7275,2.6436,2.5644,2.4983,2.5007,2.5299,2.5703,2.5706,2.5707,2.5707,2.565,0.0,0.0,0.0,0.0,0.0,0.0,0.0,2.2067,2.287,2.3383,2.4491,2.8209,0.0,0.0,3.7544,0.0,0.0,0.0,0.0,0.0,0.0,0.0,0.0,0.0,0.0,0.0,0.0,0.0,0.0,0.0,0.0,0.0,0.0,0.0,0.0,0.0,0.0,0.0,0.0,0.0,0.0,0.0,3.7703,3.7559,3.6941,3.6958,3.6856,3.655,3.6782,3.7133,3.7512,3.7491,3.7491,3.7508,3.7853,3.792,3.774,3.8065,3.8336,3.8611,3.8877,3.9249,3.9622,3.996,4.0096,4.0096,4.0096,4.0096,4.0096,0.0,0.0,0.0,0.0,0.0,0.0,0.0,0.0,0.0,0.0,0.0,0.0,0.0,0.0,0.0,0.0,0.0,0.0,0.0,0.0,0.0,3.0221,3.0074,2.9692,2.9027,2.8823,2.839,2.7732,2.7566,2.7948,2.8803,2.895,2.8979,2.8914,2.889,2.8174,2.6893,2.5829,2.4964,2.4324,2.437,2.4827,2.549,2.5648,2.5707,2.5786,2.6512,2.6316,0.0,0.0,0.0,0.0,0.0,0.0,2.1675,2.1716,2.1802,2.2854,2.7207,0.0,3.4113,3.8703,0.0,0.0,0.0,0.0,0.0,0.0,0.0,0.0,0.0,0.0,0.0,0.0,0.0,0.0,0.0,0.0,0.0,0.0,0.0,0.0,0.0,0.0,0.0,0.0,0.0,0.0,3.7152,3.7542,3.7632,3.7283,3.7226,3.7073,3.6801,3.6471,3.6628,3.7288,3.6611,3.6301,3.6335,3.7607,3.8042,3.782,3.7797,3.7761,3.777,3.8514,3.8886,3.9056,3.9808,4.0096,4.0096,4.0096,4.0096,4.0096,0.0,0.0,0.0,0.0,0.0,0.0,0.0,0.0,0.0,0.0,0.0,0.0,0.0,0.0,0.0,0.0,0.0,0.0,0.0,0.0,0.0,3.0279,2.962,2.9196,2.9088,2.8345,2.7915,2.7874,2.7067,2.7149,2.8052,2.8754,2.8755,2.8139,2.8091,2.8047,2.7831,2.5485,2.4432,2.4386,2.4394,2.4473,2.4665,2.5412,2.5707,2.5726,2.5825,2.5805,0.0,0.0,0.0,0.0,0.0,0.0,0.0,2.1594,2.2243,2.3208,0.0,0.0,3.4527,0.0,0.0,0.0,0.0,0.0,0.0,0.0,0.0,0.0,0.0,0.0,0.0,0.0,0.0,0.0,0.0,0.0,0.0,0.0,0.0,0.0,0.0,0.0,0.0,0.0,0.0,0.0,3.6786,3.6845,3.6721,3.6381,3.636,3.6381,3.6367,3.6343,3.6353,3.6456,3.6353,3.6301,3.6318,3.6457,3.6453,3.6305,3.6173,3.6429,3.7015,3.7736,3.843,3.9056,3.9808,4.0096,4.0096,4.0096,4.0096,4.0096,0.0,0.0,0.0,0.0,0.0,0.0,0.0,0.0,0.0,0.0,0.0,0.0,0.0,0.0,0.0,0.0,0.0,0.0,0.0,0.0,0.0,2.9646,2.9286,2.867,2.7715,2.73,2.6874,2.6497,2.6053,2.6309,2.7243,2.7595,2.8073,2.8646,2.8251,2.7851,2.7299,2.4716,2.3932,2.4355,2.387,2.511,2.7147,2.6103,2.6595,2.7636,0.0,0.0,0.0,0.0,0.0,0.0,0.0,0.0,0.0,0.0,2.1306,0.0,2.7024,2.9938,3.2746,0.0,0.0,0.0,0.0,0.0,0.0,0.0,0.0,0.0,0.0,0.0,0.0,0.0,0.0,0.0,0.0,0.0,0.0,0.0,0.0,0.0,0.0,0.0,0.0,0.0,0.0,3.6741,3.6329,3.6563,3.6664,3.6594,3.6516,3.6536,3.6638,3.6409,3.6301,3.6301,3.6301,3.6301,3.6301,3.6148,3.6058,3.5997,3.5861,3.5915,3.6231,3.7415,3.8091,3.8497,3.9656,4.0096,4.0045,3.9722,3.9799,3.9995,0.0,0.0,0.0,0.0,0.0,0.0,0.0,0.0,0.0,0.0,0.0,0.0,0.0,0.0,0.0,0.0,0.0,0.0,0.0,0.0,0.0,2.8829,2.8604,2.7898,2.664,2.635,2.5942,2.5398,2.5345,2.5796,2.6695,2.6734,2.7546,2.8919,2.8193,2.7513,2.6766,2.4424,2.381,2.4401,2.4407,2.6308,2.8981,2.7304,0.0,2.9134,2.6618,0.0,0.0,0.0,0.0,0.0,0.0,0.0,0.0,0.0,0.0,0.0,0.0,0.0,0.0,0.0,0.0,0.0,0.0,0.0,0.0,0.0,0.0,0.0,0.0,0.0,0.0,0.0,0.0,0.0,0.0,0.0,0.0,0.0,0.0,0.0,0.0,0.0,0.0,0.0,0.0,3.6301,3.6062,3.635,3.6583,3.6719,3.662,3.662,3.6719,3.643,3.6301,3.6301,3.6301,3.628,3.6276,3.6084,3.5975,3.5932,3.5817,3.5689,3.5718,3.7256,3.7905,3.8058,3.9512,4.0096,4.0045,3.9575,3.9618,3.9747,0.0,0.0,0.0,0.0,0.0,0.0,0.0,0.0,0.0,0.0,0.0,0.0,3.0014,3.0123,3.0194,3.0192,3.0253,2.9966,2.9214,2.8445,2.8018,2.796,2.7239,0.0,2.6601,2.5856,2.5432,2.5398,2.5403,2.5844,2.6699,2.6833,2.7386,2.8207,2.7344,2.6981,2.6883,2.5097,2.4358,2.4603,2.6972,2.8062,2.8332,0.0,0.0,0.0,0.0,0.0,0.0,0.0,0.0,0.0,0.0,0.0,0.0,0.0,0.0,0.0,0.0,0.0,0.0,0.0,0.0,0.0,0.0,0.0,0.0,0.0,0.0,0.0,0.0,0.0,0.0,0.0,0.0,0.0,0.0,0.0,0.0,0.0,0.0,0.0,0.0,0.0,0.0,0.0,0.0,3.5949,3.6182,3.6084,3.6105,3.6229,3.6229,3.6229,3.6247,3.6276,3.6301,3.6301,3.6301,3.6276,3.6187,3.6062,3.5932,3.5795,3.5667,3.56,3.5718,3.7256,3.7905,3.8058,3.9512,4.0096,4.0113,4.007,3.9722,3.9232,0.0,0.0,0.0,0.0,0.0,0.0,0.0,0.0,0.0,0.0,0.0,0.0,0.0,3.0157,3.0206,3.0194,2.9787,2.9169,2.8324,2.8044,2.7656,2.7093,2.68,2.6352,2.5788,2.5529,2.5406,2.54,2.5441,2.5922,2.6819,2.6293,2.6557,2.7412,2.7093,2.6977,2.6885,2.5148,2.4719,0.0,0.0,0.0,0.0,0.0,0.0,0.0,0.0,0.0,0.0,0.0,0.0,0.0,0.0,2.2213,2.1152,2.0594,1.9802,0.0,0.0,0.0,0.0,0.0,0.0,0.0,0.0,0.0,0.0,0.0,0.0,0.0,0.0,0.0,0.0,0.0,0.0,0.0,0.0,0.0,0.0,0.0,0.0,0.0,0.0,0.0,0.0,0.0,0.0,0.0,3.5949,3.6058,3.6122,3.6062,3.6161,3.6208,3.6255,3.628,3.628,3.6251,3.6251,3.6187,3.6079,3.5927,3.5839,3.5829,3.6192,3.6079,3.5718,3.7256,3.7905,3.8058,3.9512,4.0096,4.002,3.9226,3.9038,3.9028,0.0,0.0,0.0,0.0,0.0,0.0,0.0,0.0,0.0,2.9964,0.0,0.0,0.0,0.0,2.9704,2.9455,2.8716,2.8025,2.7437,2.7184,2.6795,2.6222,2.6198,2.5924,2.5341,2.5089,2.5127,2.5422,2.522,2.5565,2.6446,2.5896,2.5969,2.6562,2.6562,2.6561,2.6499,0.0,0.0,2.5937,0.0,0.0,3.3067,0.0,0.0,0.0,0.0,0.0,0.0,0.0,0.0,0.0,0.0,2.2795,2.115,2.0561,1.9776,0.0,2.1768,0.0,0.0,0.0,0.0,0.0,0.0,0.0,0.0,0.0,0.0,0.0,0.0,0.0,0.0,0.0,0.0,0.0,0.0,0.0,0.0,0.0,0.0,0.0,0.0,0.0,0.0,0.0,0.0,0.0,3.5795,3.5971,3.6058,3.5997,3.6036,3.6122,3.6195,3.6195,3.617,3.6122,3.6122,3.6058,3.5932,3.5839,3.5773,3.5762,3.6497,3.6485,3.6129,3.7652,3.8278,3.8396,3.9622,3.9969,3.9696,3.8903,3.8601,3.8407,0.0,0.0,0.0,0.0,0.0,0.0,0.0,0.0,2.9985,2.9864,0.0,0.0,0.0,0.0,0.0,2.7928,2.7082,2.6592,2.6579,2.5837,2.5393,2.5395,2.5397,2.5403,2.5403,2.4586,2.4586,2.5503,2.4713,2.4774,2.5597,2.5664,2.5701,2.5702,2.5663,2.5664,2.5663,0.0,2.5702,2.6132,0.0,3.3222,3.3376,0.0,0.0,0.0,3.1669,3.0673,0.0,0.0,0.0,0.0,0.0,2.3527,2.0404,2.0405,1.979,0.0,0.0,0.0,0.0,0.0,0.0,0.0,0.0,0.0,0.0,0.0,0.0,0.0,0.0,0.0,0.0,0.0,0.0,0.0,0.0,0.0,0.0,0.0,0.0,0.0,0.0,0.0,0.0,0.0,0.0,3.5667,3.5795,3.5795,3.5861,3.5997,3.5883,3.5861,3.5997,3.5997,3.5997,3.5997,3.5997,3.591,3.5795,3.5795,3.5728,3.5633,3.6451,3.6789,3.6924,3.8396,3.8988,3.9048,3.98,3.9696,3.9179,3.9152,3.8423,3.7417,0.0,0.0,0.0,0.0,0.0,2.9034,2.8377,2.8419,2.8483,0.0,0.0,0.0,2.8196,2.8147,2.7825,2.7022,2.6737,2.6357,2.5762,2.5513,2.5418,2.5479,2.5476,2.5473,2.5473,2.5279,2.5309,2.5566,2.5407,2.5444,2.5679,2.5684,2.5702,2.5663,2.5038,2.4765,2.4804,2.5429,0.0,0.0,3.1173,3.3095,0.0,0.0,0.0,0.0,0.0,3.4448,0.0,0.0,3.2395,2.8765,0.0,0.0,0.0,2.0392,0.0,0.0,1.9107,0.0,0.0,0.0,0.0,0.0,0.0,0.0,0.0,0.0,0.0,0.0,0.0,0.0,0.0,0.0,0.0,0.0,0.0,0.0,0.0,0.0,0.0,0.0,0.0,0.0,0.0,0.0,3.5706,3.5728,3.5667,3.5644,3.5756,3.5997,3.5883,3.5861,3.5997,3.5997,3.5954,3.5861,3.5861,3.5795,3.5644,3.5644,3.5644,3.5633,3.6451,3.6848,3.7045,3.8435,3.8731,3.8428,3.9161,3.9082,3.849,3.8055,3.7695,3.7328,0.0,0.0,0.0,0.0,0.0,2.8329,2.7819,2.7831,2.7889,0.0,0.0,0.0,2.7934,2.7621,2.7346,2.7222,2.6892,2.6486,2.6013,2.5973,2.5845,2.5549,2.5504,2.5513,2.5532,2.5219,2.5239,2.5595,2.5305,2.5332,2.5702,2.5702,2.5699,2.568,2.5171,0.0,0.0,0.0,0.0,0.0,3.0902,0.0,0.0,3.5955,3.7771,0.0,0.0,0.0,3.6591,3.6888,3.3674,0.0,0.0,0.0,0.0,0.0,0.0,0.0,0.0,0.0,0.0,0.0,0.0,0.0,0.0,2.3851,0.0,0.0,0.0,0.0,0.0,0.0,0.0,0.0,0.0,0.0,0.0,0.0,0.0,0.0,0.0,0.0,0.0,0.0,0.0,3.56,3.5667,3.5706,3.5689,3.5622,3.5689,3.5927,3.5795,3.5756,3.5844,3.5844,3.58,3.5728,3.5728,3.5684,3.56,3.56,3.56,3.5633,3.6209,3.6684,3.7044,3.7627,3.7831,3.7847,3.8542,3.8284,3.7495,3.7424,3.7238,3.6983,0.0,0.0,2.8604,2.7758,2.7735,2.7803,2.7711,2.7765,2.7772,0.0,2.7803,2.7932,2.8026,2.7303,2.7118,2.7895,2.724,2.6796,2.681,2.6901,2.6636,2.5936,2.5845,2.5836,2.5909,2.5049,2.4984,2.5754,2.4941,2.494,2.5703,2.5695,2.5709,2.5693,2.5494,0.0,0.0,0.0,0.0,2.5125,3.0617,3.2868,0.0,0.0,3.7709,0.0,3.7415,3.7419,3.7551,3.8245,3.5225,0.0,0.0,0.0,0.0,0.0,1.8856,0.0,0.0,0.0,0.0,0.0,0.0,0.0,2.4625,2.4127,2.418,0.0,0.0,0.0,0.0,0.0,0.0,0.0,0.0,0.0,0.0,0.0,0.0,0.0,0.0,0.0,0.0,3.5255,3.5622,3.5622,3.56,3.5644,3.5773,3.5667,3.5644,3.5773,3.5667,3.56,3.56,3.56,3.56,3.56,3.56,3.56,3.56,3.5554,3.5515,3.5503,3.569,3.6117,3.6675,3.6228,3.6513,3.7263,3.7866,3.7358,3.6382,3.7046,3.6952,3.6492,0.0,2.809,2.7888,2.7181,2.7654,2.7893,2.7179,2.7125,2.7145,2.7084,2.7145,2.7452,2.8158,2.7439,2.6955,2.7116,2.6926,2.6814,2.687,2.755,2.7879,2.7781,2.7755,2.7753,2.7776,2.6922,2.6555,2.6734,2.5879,2.5523,2.5697,2.5691,2.5707,2.563,2.4228,0.0,0.0,0.0,0.0,2.6573,3.1131,0.0,3.3097,3.7699,3.9192,3.8807,3.8635,3.8465,3.8098,0.0,3.4784,3.2708,0.0,0.0,0.0,0.0,0.0,0.0,0.0,0.0,0.0,0.0,0.0,0.0,1.9622,1.9457,2.0154,0.0,0.0,0.0,0.0,0.0,0.0,0.0,0.0,0.0,0.0,0.0,0.0,0.0,0.0,0.0,0.0,3.5737,3.5773,3.5773,3.5667,3.5622,3.5644,3.5622,3.5622,3.5644,3.5622,3.56,3.56,3.56,3.56,3.56,3.56,3.56,3.56,3.5155,3.4951,3.4927,3.4554,3.4533,3.4755,3.4648,3.5383,3.6575,3.6718,3.6326,3.5764,3.6414,3.66,3.6492,0.0,2.7355,2.7176,2.6424,2.6983,2.7394,2.6961,2.6965,2.6999,2.6957,2.7358,2.7988,2.8846,2.8526,2.84,2.8803,2.8448,2.822,2.8231,2.8668,2.8715,2.8311,2.8309,2.8095,2.7669,2.7221,2.6794,2.6346,2.5917,2.5915,2.6345,2.5907,2.592,2.6265,2.5399,0.0,0.0,0.0,2.6812,2.8126,3.1894,0.0,3.4681,3.8206,3.9344,3.9021,3.8785,3.8618,3.8355,3.7382,3.5204,0.0,0.0,2.9598,2.7625,0.0,2.3436,2.3507,0.0,0.0,0.0,2.0199,0.0,0.0,0.0,2.0654,2.0947,0.0,0.0,0.0,0.0,0.0,0.0,0.0,0.0,0.0,0.0,0.0,0.0,0.0,0.0,0.0,0.0,3.4555,3.4844,3.5135,3.5424,3.56,3.56,3.56,3.56,3.56,3.56,3.56,3.56,3.56,3.56,3.56,3.5333,3.5201,3.5178,3.4649,3.4407,3.4382,3.3843,3.3815,3.4139,3.3537,3.3926,3.4969,3.5687,3.5559,3.5136,3.6122,3.6492,3.6492,0.0,2.6596,2.647,2.58,2.6387,2.6917,2.6922,2.6964,2.7052,2.7223,2.7995,2.886,2.9718,2.9957,3.0291,3.0936,3.0684,3.0371,0.0,0.0,2.9762,2.86,2.8384,2.7899,2.7027,2.6674,2.6149,2.5448,2.5273,2.5643,2.6464,2.5925,2.6026,2.6651,2.7065,2.6507,0.0,0.0,0.0,2.9621,0.0,3.4665,3.6311,3.844,3.9106,3.8848,3.8541,3.8433,3.8357,3.8195,0.0,3.246,3.2806,3.0982,0.0,0.0,0.0,0.0,0.0,0.0,0.0,0.0,0.0,2.0784,0.0,0.0,0.0,0.0,0.0,0.0,0.0,0.0,0.0,0.0,0.0,0.0,0.0,0.0,0.0,0.0,0.0,0.0,0.0,3.2912,3.3543,3.4261,3.4747,3.5137,3.5363,3.5515,3.56,3.56,3.56,3.5538,3.5447,3.5447,3.5402,3.5293,3.484,3.4649,3.4625,3.4095,3.3843,3.3818,3.3277,3.3354,3.3787,3.2931,3.2906,3.3537,3.4799,3.4982,3.4659,3.603,3.6492,3.6445,2.5821,2.5827,2.5802,2.5723,2.6419,2.6986,2.6991,2.7009,2.7281,2.8047,2.8863,2.9668,0.0,0.0,0.0,0.0,0.0,0.0,3.1726,0.0,3.1783,2.9547,2.8705,2.7885,2.7027,2.5481,2.4641,2.4548,2.3767,2.3808,2.4625,2.5294,2.5634,2.5746,2.7639,0.0,0.0,0.0,2.9372,0.0,3.2704,3.4479,0.0,3.8527,3.9183,3.8833,3.8387,3.8274,3.8012,0.0,3.4989,3.3853,0.0,3.1186,0.0,0.0,0.0,0.0,0.0,0.0,0.0,0.0,2.2532,0.0,0.0,0.0,0.0,0.0,0.0,0.0,0.0,0.0,0.0,0.0,0.0,0.0,0.0,0.0,0.0,0.0,0.0,0.0,0.0,0.0,3.2417,3.3607,3.3165,3.3379,3.4556,3.525,3.56,3.56,3.56,3.5379,3.4904,3.4904,3.4649,3.4185,3.4136,3.4086,3.4086,3.3537,3.3303,3.3277,3.2722,3.2539,3.2647,3.3103,3.3336,3.3475,3.4305,3.4566,3.4659,3.603,3.6383,3.6242,2.5702,2.5697,0.0,2.5698,2.642,2.7007,2.6995,2.6996,2.731,2.8193,2.859,0.0,0.0,0.0,0.0,0.0,0.0,3.2618,0.0,0.0,0.0,0.0,0.0,0.0,2.6259,2.503,2.4154,2.3649,2.3281,2.3782,2.5115,2.4925,2.535,2.6343,2.8541,0.0,2.7706,0.0,0.0,0.0,0.0,0.0,0.0,3.8108,3.8725,3.8467,3.8257,3.8241,3.8143,0.0,3.5086,0.0,0.0,0.0,0.0,0.0,0.0,0.0,0.0,0.0,0.0,0.0,0.0,0.0,0.0,0.0,2.0864,0.0,0.0,0.0,0.0,0.0,0.0,0.0,0.0,0.0,0.0,0.0,0.0,0.0,0.0,0.0,0.0,0.0,0.0,0.0,3.2287,3.2638,3.4409,3.4793,3.5015,3.5138,3.5131,3.488,3.4333,3.4333,3.4235,3.4011,3.3691,3.3537,3.3537,3.2975,3.2749,3.2722,3.2492,3.2398,3.2444,3.3121,3.3398,3.3506,3.4659,3.509,3.5213,3.6138,3.646,3.6352,2.5678,0.0,0.0,0.0,2.6204,2.671,2.696,2.7,2.7316,0.0,0.0,0.0,2.826,2.9822,0.0,0.0,0.0,3.3725,0.0,0.0,3.1469,0.0,0.0,0.0,0.0,0.0,2.326,2.2382,2.2395,2.3254,2.4921,2.4481,2.5048,2.6528,0.0,3.0097,2.9787,0.0,0.0,3.4001,3.4615,3.5083,3.5652,3.7728,3.8368,3.8174,3.8054,3.8071,3.8013,3.7243,3.4757,0.0,3.5049,0.0,0.0,0.0,0.0,0.0,2.5801,0.0,0.0,0.0,0.0,0.0,0.0,0.0,0.0,0.0,0.0,0.0,0.0,0.0,0.0,0.0,0.0,0.0,0.0,0.0,0.0,0.0,0.0,0.0,0.0,0.0,0.0,3.1472,3.0948,3.1465,3.3595,3.4078,3.4286,3.4312,3.4462,3.4317,3.3793,3.3767,3.3716,3.3553,3.3172,3.2986,3.2975,3.2574,3.2398,3.2398,3.2398,3.2398,3.2444,3.3121,3.3521,3.3814,3.5014,3.5629,3.5814,3.6307,3.646,3.6383,2.5601,2.56,0.0,0.0,0.0,2.5956,2.6867,2.6999,0.0,0.0,0.0,0.0,0.0,0.0,0.0,0.0,0.0,3.8353,3.4384,0.0,3.3091,0.0,0.0,2.6054,0.0,0.0,0.0,2.058,2.0586,2.1404,2.3012,2.3812,2.4648,2.5606,2.9382,3.0211,2.892,3.1784,3.3782,3.5048,3.5009,3.4879,3.5001,0.0,3.8368,3.814,3.7703,0.0,0.0,3.4571,3.3565,0.0,0.0,0.0,0.0,0.0,0.0,0.0,0.0,0.0,0.0,2.5171,0.0,0.0,0.0,0.0,2.418,0.0,0.0,0.0,0.0,0.0,0.0,0.0,0.0,0.0,0.0,0.0,0.0,0.0,0.0,0.0,0.0,0.0,0.0,2.9109,2.8733,2.9356,3.1589,3.3,3.3515,3.3072,3.3704,3.3767,3.3251,3.3251,3.2975,3.2453,3.2437,3.2425,3.2425,3.2425,3.2398,3.2398,3.2398,3.2398,3.2444,3.3121,3.3814,3.4536,3.5244,3.5891,3.6461,3.6476,3.6383,3.6211,0.0,0.0,0.0,0.0,0.0,0.0,0.0,2.6132,0.0,0.0,0.0,0.0,0.0,0.0,3.4679,0.0,0.0,3.6577,3.3539,3.3365,0.0,0.0,0.0,2.5602,0.0,0.0,0.0,0.0,0.0,2.1803,2.293,2.3744,2.4581,2.5524,0.0,3.0004,0.0,0.0,0.0,0.0,0.0,3.3486,3.4757,0.0,0.0,3.5636,3.6716,3.7188,0.0,3.6211,3.4906,3.3792,3.4374,3.3175,3.1606,3.2055,3.1838,0.0,0.0,0.0,3.0887,2.7638,0.0,0.0,0.0,0.0,0.0,0.0,0.0,0.0,0.0,0.0,0.0,0.0,0.0,0.0,0.0,0.0,0.0,0.0,0.0,0.0,0.0,0.0,0.0,2.9127,2.8796,2.9412,3.1497,3.219,3.2505,3.2474,3.3119,3.3224,3.2668,3.2668,3.2574,3.2398,3.2398,3.2398,3.2398,3.2398,3.2398,3.2398,3.2398,3.2398,3.249,3.3658,3.4289,3.4613,3.5569,3.6106,3.6305,3.6305,3.6274,3.6179,2.5056,0.0,0.0,0.0,0.0,0.0,0.0,0.0,0.0,0.0,3.0327,0.0,3.2796,0.0,3.5374,0.0,3.7176,3.6225,3.2947,3.3489,0.0,3.0442,2.8223,0.0,0.0,0.0,0.0,0.0,0.0,2.2787,2.3341,2.3859,2.4565,2.5466,0.0,0.0,0.0,0.0,3.4216,0.0,0.0,3.226,0.0,0.0,3.3271,3.4342,0.0,3.6739,3.6796,3.6676,3.5684,3.4765,3.6162,3.4676,3.2704,3.3951,3.3418,3.2282,3.1525,3.2511,0.0,2.9695,3.0463,0.0,2.827,0.0,0.0,0.0,0.0,0.0,0.0,0.0,0.0,0.0,0.0,0.0,0.0,0.0,0.0,0.0,0.0,0.0,0.0,0.0,2.6534,2.8203,2.8042,2.8493,0.0,0.0,3.1596,3.1559,3.2452,3.2749,3.2382,3.2398,3.2398,3.2398,3.2398,3.2398,3.2398,3.2398,3.2398,3.2398,3.2398,3.2398,3.2459,3.3396,3.4058,3.4568,3.5217,3.5783,3.6196,3.6148,3.6116,3.6085,0.0,0.0,0.0,0.0,2.4291,0.0,0.0,0.0,2.6817,0.0,2.9978,3.0432,3.303,3.5141,3.6362,3.6362,3.8288,0.0,3.287,3.4586,0.0,0.0,3.2384,3.2999,3.4574,0.0,0.0,0.0,0.0,0.0,2.4094,2.4115,2.4576,2.5394,2.6041,0.0,3.1837,3.2344,3.4555,3.7332,3.2744,3.1293,3.1801,3.0685,3.1836,3.4241,3.5722,3.628,3.6216,3.5905,3.5817,3.5861,3.6118,3.6187,3.6208,3.628,3.6301,3.588,3.3971,3.4106,3.4094,3.13,0.0,0.0,0.0,0.0,3.0301,0.0,0.0,0.0,0.0,0.0,0.0,0.0,0.0,0.0,0.0,0.0,0.0,0.0,0.0,0.0,0.0,2.3881,2.4078,2.6421,2.6539,2.6728,0.0,0.0,3.0798,3.0428,3.1705,3.2398,3.2398,3.2398,3.2398,3.2398,3.2398,3.2398,3.2398,3.2398,3.2398,3.2398,3.2398,3.2398,3.2398,3.2428,3.3244,3.4475,3.4298,3.5019,3.6148,3.6037,3.5973,3.5941,2.336,2.3088,2.3054,0.0,2.3354,2.3658,0.0,0.0,0.0,0.0,3.1821,3.3242,3.7382,3.8315,3.8644,3.8644,3.9161,0.0,0.0,0.0,0.0,3.5738,3.3954,3.3992,3.6242,3.1262,0.0,2.71,0.0,0.0,2.3891,2.439,2.4765,2.5044,0.0,0.0,2.9098,2.9252,3.11,3.3723,3.1502,3.1193,0.0,0.0,3.2844,3.365,3.5206,3.5844,3.5927,3.5839,3.5927,3.6118,3.6182,3.6229,3.6276,3.6301,3.6301,3.6201,3.5659,3.5703,3.5451,3.3619,3.3614,3.3671,0.0,0.0,0.0,0.0,0.0,0.0,0.0,0.0,0.0,0.0,0.0,0.0,0.0,0.0,0.0,0.0,0.0,0.0,0.0,2.4216,2.5163,2.6421,2.6367,2.6951,0.0,0.0,0.0,3.0397,3.1705,3.2398,3.2398,3.2398,3.2398,3.2398,3.2398,3.2398,3.2398,3.2398,3.2398,3.2398,3.2398,3.2398,3.2428,3.2936,3.3602,3.4314,3.4668,3.5151,3.5683,3.5735,3.5718,3.5619,2.3024,0.0,0.0,2.3503,0.0,0.0,2.557,0.0,0.0,3.1843,3.2461,0.0,3.761,3.8801,3.9324,3.9324,3.9219,0.0,0.0,0.0,0.0,3.6211,3.6143,3.663,3.7665,3.4357,0.0,2.9287,0.0,0.0,2.4246,2.4643,2.4862,0.0,0.0,2.6048,0.0,2.9922,3.1263,3.226,3.192,0.0,0.0,3.3178,3.3703,3.4545,3.5433,3.5822,3.5883,3.5883,3.6036,3.6204,3.6204,3.6251,3.6301,3.6301,3.6301,3.6301,3.6301,3.6301,3.6094,3.5266,3.5166,3.4929,3.3544,3.3336,3.323,0.0,0.0,0.0,0.0,0.0,0.0,0.0,0.0,0.0,0.0,0.0,0.0,0.0,0.0,0.0,0.0,2.3498,2.4283,2.5247,2.5194,0.0,0.0,0.0,0.0,2.9554,3.1184,3.216,3.2398,3.216,3.216,3.2398,3.2398,3.2398,3.2398,3.2398,3.2398,3.2398,3.2398,3.2398,3.2413,3.2757,3.3408,3.427,3.5032,3.5401,3.5504,3.5572,3.5572,3.5504,0.0,0.0,0.0,0.0,0.0,0.0,0.0,2.7113,0.0,3.2239,0.0,3.3715,3.6161,3.8003,3.9045,3.9045,0.0,3.786,3.5888,3.7595,3.786,3.598,3.8571,3.968,3.8872,3.8112,0.0,0.0,0.0,0.0,2.4932,2.4863,0.0,0.0,0.0,0.0,0.0,3.1611,3.2606,0.0,3.2983,3.377,3.4363,3.3814,3.4619,3.6041,3.6019,3.6019,3.5997,3.5997,3.6101,3.6204,3.6204,3.6251,3.6301,3.6301,3.6301,3.6301,3.6301,3.6301,3.6301,3.6301,3.6301,3.5998,3.4844,3.4571,3.4225,3.2996,3.2591,3.2283,0.0,0.0,0.0,0.0,0.0,0.0,0.0,0.0,0.0,0.0,0.0,0.0,0.0,0.0,0.0,0.0,0.0,0.0,0.0,0.0,0.0,2.8748,3.0675,3.1855,3.2148,0.0,3.1871,3.2163,3.2333,3.2398,3.2398,3.237,3.2398,3.2398,3.237,3.237,3.237,3.2247,3.2957,3.4241,3.527,3.5589,3.5504,3.5504,3.5504,3.5504,0.0,0.0,0.0,0.0,0.0,2.9011,3.099,3.1094,3.1883,3.4535,3.4862,3.5733,3.8001,3.8549,3.8765,3.8765,3.8738,0.0,0.0,0.0,0.0,3.9081,4.0246,4.0506,3.9698,3.8105,3.5791,0.0,0.0,0.0,0.0,0.0,0.0,0.0,0.0,0.0,2.7571,2.8067,0.0,3.1755,3.2704,3.3676,3.4666,3.5385,3.591,3.6237,3.6187,3.6101,3.5997,3.5997,3.6101,3.6204,3.6204,3.6251,3.6301,3.6301,3.6301,3.6301,3.6301,3.6301,3.6301,3.6301,3.6301,3.6232,3.5998,3.5946,3.5877,3.5621,3.5261,3.455,3.3169,0.0,0.0,0.0,0.0,0.0,0.0,0.0,0.0,0.0,0.0,0.0,0.0,0.0,0.0,0.0,0.0,0.0,0.0,0.0,0.0,0.0,3.1486,0.0,0.0,0.0,3.1801,3.0923,3.1913,3.2398,3.2398,3.2302,3.2302,3.2398,3.2274,3.2247,3.2247,3.2219,3.2842,3.391,3.5093,3.5537,3.5504,3.5504,3.5504,3.5504,0.0,0.0,0.0,0.0,0.0,0.0,0.0,3.4801,0.0,3.5348,3.5348,3.5742,3.6814,3.7993,3.8707,3.8707,3.8707,3.8707,3.8707,3.8707,3.8872,3.9258,3.9849,0.0,3.8984,3.8333,3.5937,3.1816,0.0,0.0,0.0,0.0,0.0,0.0,0.0,2.6356,0.0,0.0,0.0,3.2613,3.4121,3.501,3.5528,3.6063,3.6259,3.628,3.6229,3.6187,3.6152,3.6122,3.6187,3.6251,3.6208,3.6251,3.6301,3.6301,3.6301,3.6301,3.6301,3.6301,3.6301,3.6301,3.6114,3.5941,3.5941,3.5727,3.5509,3.5509,3.5328,3.4716,3.3166,3.0471,0.0,0.0,0.0,0.0,0.0,0.0,0.0,0.0,0.0,0.0,0.0,0.0,0.0,0.0,0.0,0.0,0.0,0.0,0.0,0.0,0.0,0.0,0.0,0.0,0.0,3.155,3.2117,3.2398,3.2398,3.2342,3.2342,3.2398,3.2274,3.2191,3.2252,3.2768,3.323,3.3711,3.5013,3.5504,3.5504,3.5504,3.5504,3.5504,0.0,2.4609,0.0,0.0,2.9753,0.0,3.4829,3.7153,3.7958,3.626,3.6009,3.6009,3.6009,3.7632,3.8676,3.858,3.858,3.853,3.8451,3.8433,3.8433,3.8433,3.8913,3.8794,3.7983,3.8365,3.6309,0.0,0.0,0.0,0.0,0.0,0.0,0.0,0.0,0.0,0.0,0.0,3.3575,3.4074,3.5659,3.6301,3.6301,3.628,3.628,3.628,3.6229,3.6233,3.6301,3.6251,3.6255,3.628,3.6251,3.6255,3.6301,3.6301,3.6301,3.6301,3.6301,3.6301,3.6301,3.6301,3.6028,3.5705,3.5616,3.526,3.4951,3.4816,3.4714,3.418,3.2629,3.106,0.0,0.0,0.0,0.0,0.0,0.0,0.0,0.0,0.0,0.0,0.0,0.0,0.0,0.0,0.0,0.0,0.0,0.0,0.0,0.0,0.0,3.1283,3.1616,0.0,3.1844,3.2021,3.2287,3.2398,3.237,3.237,3.237,3.2342,3.2219,3.215,3.2201,3.323,3.3607,3.3619,3.4981,3.5504,3.5504,3.5504,3.5504,3.5504,0.0,0.0,0.0,0.0,0.0,0.0,0.0,3.6726,3.8212,3.8362,3.8389,3.8389,3.8389,3.8576,3.8546,3.8203,3.817,3.7999,3.7632,3.7614,3.7614,3.7614,3.8347,3.8383,3.7578,3.795,3.7027,0.0,0.0,0.0,0.0,0.0,0.0,0.0,0.0,0.0,0.0,3.3194,3.4424,3.6049,3.6236,3.6301,3.6301,3.6229,3.6251,3.628,3.6229,3.6233,3.6301,3.6301,3.6301,3.6301,3.6301,3.6301,3.6301,3.6301,3.6301,3.6301,3.6301,3.6301,3.6301,3.6301,3.628,3.6114,3.5683,3.5549,3.5391,3.4904,3.4464,3.3697,3.2151,3.1422,3.0808,0.0,0.0,0.0,0.0,0.0,0.0,0.0,0.0,0.0,0.0,0.0,0.0,0.0,0.0,0.0,0.0,0.0,0.0,2.8424,0.0,2.9503,2.905,3.1237,3.1801,3.0779,3.1867,3.2342,3.2219,3.2219,3.2219,3.2219,3.2066,3.194,3.1918,3.3051,3.3515,3.3619,3.4981,3.5504,3.5504,3.5504,3.5504,3.5504,0.0,0.0,0.0,0.0,0.0,0.0,0.0,3.7179,3.7809,3.7948,3.8401,3.8515,3.8034,3.8203,3.8186,3.7773,3.7738,3.7667,3.7505,3.7505,3.7505,3.7505,3.7567,3.7471,3.7151,3.7056,3.6035,0.0,0.0,0.0,0.0,0.0,0.0,0.0,0.0,3.073,3.2253,3.3647,3.4682,3.5397,3.5397,3.5397,3.5397,3.5368,3.5368,3.5391,3.5276,3.5504,3.5876,3.5788,3.598,3.6251,3.628,3.6259,3.6251,3.628,3.6301,3.6237,3.5963,3.5876,3.5793,3.5464,3.5191,3.4927,3.4738,3.4448,3.4152,3.3942,3.3745,3.3431,3.2806,3.1876,3.1327,0.0,0.0,0.0,0.0,0.0,0.0,0.0,0.0,0.0,0.0,0.0,0.0,0.0,0.0,0.0,0.0,0.0,0.0,2.7348,0.0,3.0804,2.9847,3.1539,3.2148,3.1693,3.2097,3.2092,3.1781,3.2079,3.215,3.2038,3.1495,3.1394,3.1702,3.2552,3.3161,3.3603,3.4422,3.5052,3.5424,3.4953,3.4791,3.4791,3.0755,0.0,3.1189,0.0,3.3972,3.4721,3.6985,3.7322,3.7322,3.7322,3.7913,3.8135,3.756,3.7738,3.7756,3.7358,3.7322,3.7266,3.7133,3.7151,3.7151,3.7151,3.688,0.0,3.6522,3.6245,3.5324,3.3753,3.261,0.0,0.0,0.0,0.0,0.0,3.1291,3.2154,3.2508,3.4124,3.4793,3.4793,3.4793,3.4793,3.4793,3.4793,3.4793,3.4785,3.4697,3.4958,3.5345,3.527,3.5453,3.5783,3.6006,3.5958,3.5805,3.5854,3.5859,3.5793,3.5459,3.5368,3.526,3.4887,3.4521,3.4218,3.4126,3.3771,3.3408,3.3282,3.3203,3.3176,3.3176,3.2306,3.1809,3.2348,0.0,0.0,0.0,0.0,0.0,0.0,0.0,2.661,2.5934,0.0,0.0,0.0,0.0,0.0,0.0,0.0,0.0,0.0,0.0,0.0,0.0,3.1817,3.2398,3.2398,3.2287,3.2035,3.1667,3.1938,3.1925,3.1625,3.1043,3.097,3.1279,3.2152,3.2662,3.2998,3.3918,3.4509,3.4787,3.4428,3.4177,3.4007,3.2852,3.1312,3.0856,3.5466,3.4681,3.4194,3.6549,3.69,3.69,3.69,3.7265,3.7505,3.7505,3.7505,3.7358,3.6939,3.69,3.6739,3.6343,3.6322,3.6322,0.0,0.0,3.6092,3.5616,3.5616,3.5328,3.4783,0.0,0.0,3.2891,0.0,3.1249,3.2451,3.2467,3.3344,3.4759,3.4793,3.4793,3.4793,3.4793,3.4793,3.4793,3.4793,3.4793,3.4793,3.4793,3.4793,3.4793,3.4809,3.4721,3.4745,3.5413,3.5237,3.4833,3.4833,3.4833,3.4833,3.4793,3.4793,3.4809,3.4793,3.4704,3.4512,3.4184,3.3942,3.3672,3.3187,3.3005,3.2897,3.2897,3.273,3.2222,3.1111,0.0,0.0,0.0,0.0,0.0,0.0,2.8411,2.779,2.8312,0.0,0.0,0.0,0.0,0.0,0.0,0.0,0.0,2.9472,2.9546,0.0,3.0577,3.1817,3.2398,3.2398,3.2398,3.2247,3.1996,3.187,3.1438,3.0807,3.0807,3.0673,3.0626,3.1951,3.2058,3.1613,3.3552,3.3871,3.3318,3.4027,3.3837,3.3318,3.5209,3.4725,3.4563,3.6032,3.578,3.5639,3.6388,3.6492,3.6492,3.6492,3.6597,3.6678,3.6678,3.6919,3.6919,0.0,3.6492,3.6287,0.0,3.5815,3.5661,3.5283,3.5283,3.5214,3.5068,3.5052,3.5224,3.5554,0.0,0.0,0.0,3.1824,3.1972,3.3047,3.3047,3.3313,3.3781,3.3781,3.3781,3.3781,3.3781,3.3781,3.3781,3.3781,3.3781,3.3781,3.3781,3.3993,3.4333,3.4333,3.4292,3.4308,3.4513,3.4617,3.4673,3.4769,3.4793,3.4738,3.4415,3.4333,3.4218,3.3882,3.3755,3.3704,3.3565,3.3513,3.3382,3.315,3.3085,3.3005,3.2924,3.2843,3.266,3.214,3.2311,0.0,0.0,0.0,0.0,0.0,2.6963,2.6406,0.0,2.5308,0.0,0.0,0.0,0.0,0.0,0.0,0.0,0.0,3.0371,0.0,3.0618,3.1817,3.2398,3.2398,3.2219,3.1796,3.1146,3.0192,3.0069,3.0625,2.9652,2.9691,3.0457,3.0904,3.1207,3.1499,3.2444,3.2967,3.3178,3.2883,3.2635,3.247,3.6301,3.6301,3.6301,3.6301,3.6301,3.6237,3.6071,3.6028,3.5963,3.5771,3.5749,3.5749,3.5749,3.5977,0.0,3.6049,3.6028,3.5815,3.5328,3.5299,3.5144,3.4793,3.4793,3.4714,3.4545,0.0,0.0,3.4935,3.3965,3.3443,3.3348,3.2892,3.3026,3.3672,3.3672,3.3546,3.3309,3.3309,3.3309,3.3309,3.3309,3.3309,3.3309,3.3309,3.3309,3.3309,3.3309,3.3529,3.3797,3.3797,3.3797,3.3797,3.3797,3.3958,3.4127,3.4202,3.4226,3.4152,3.3899,3.3745,3.3642,3.3309,3.315,3.3027,3.3027,3.3027,3.3,3.2935,3.2866,3.2812,3.273,3.2718,3.2676,3.2551,3.2523,3.2311,3.172,0.0,0.0,0.0,0.0,0.0,0.0,2.7002,0.0,0.0,0.0,0.0,0.0,0.0,0.0,2.9456,3.1385,0.0,3.1283,3.2021,3.237,3.2315,3.1796,3.116,3.0404,2.9708,2.9679,3.0095,2.9217,2.9422,3.0361,3.0398,3.0583,3.0986,3.1779,3.2232,3.234,3.216,3.1905,3.175,3.6301,3.628,0.0,0.0,3.622,0.0,3.5616,3.5549,3.5368,3.488,3.4793,3.4793,3.4793,3.4793,3.4998,3.5459,0.0,0.0,0.0,3.4761,3.4721,3.4714,3.4714,3.4472,3.405,3.405,3.3829,3.3372,3.3419,3.3735,3.4288,3.4288,3.4273,3.4225,3.4225,3.3878,3.3309,3.3309,3.3309,3.3309,3.3309,3.3309,3.3309,3.3309,3.3309,3.3309,3.3309,3.3309,3.3309,3.3309,3.3309,3.3309,3.3309,3.3309,3.3309,3.3309,3.3309,3.3282,3.3282,3.3176,3.3085,3.3085,3.2839,3.2621,3.2621,3.2621,3.2621,3.2594,3.2496,3.2425,3.2398,3.2398,3.2398,3.2398,3.2275,3.1782,3.0571,0.0,0.0,0.0,0.0,0.0,0.0,2.9833,3.0243,0.0,0.0,0.0,0.0,0.0,2.9295,3.229,3.2398,3.2398,3.2398,3.2398,3.2287,3.2107,3.116,3.0388,2.9789,3.0097,2.9964,2.945,2.9369,2.9707,3.0281,3.0303,3.0236,3.0226,3.1508,3.1603,3.1086,3.1773,3.1603,3.1086,0.0,0.0,3.5766,3.5766,3.5436,3.5121,3.5005,3.4981,3.4934,3.4833,3.4793,3.4793,3.4793,3.4793,3.4714,3.4464,3.4785,3.4785,3.4308,3.4259,3.4084,3.3652,3.3668,3.3591,3.3503,3.3477,3.3678,3.4051,3.462,3.4683,3.4288,3.4288,3.402,3.3546,3.3546,3.3451,3.3309,3.3309,3.3309,3.3309,3.3309,3.3309,3.3309,3.3309,3.3309,3.3309,3.3309,3.3309,3.3309,3.3309,3.3309,3.3309,3.3309,3.3309,3.3309,3.3309,3.3229,3.315,3.315,3.3058,3.2951,3.2951,3.2897,3.2843,3.2843,3.2843,3.2773,3.2621,3.2578,3.2523,3.2425,3.2398,3.2398,3.2398,3.1158,3.0258,3.0397,2.9123,0.0,0.0,2.8444,2.8993,3.0263,3.0351,3.0279,0.0,0.0,0.0,0.0,3.0004,3.0675,3.2336,3.2398,3.2398,3.2398,3.2287,3.1866,3.1131,3.0389,2.9865,2.9474,2.906,2.9273,2.9868,2.8995,2.9205,3.0105,2.9729,2.978,3.0189,3.0961,3.1161,3.1024,3.1198,3.1161,3.1011,3.6301,3.592,3.5594,3.5594,3.5161,3.4738,3.4496,3.4488,3.4391,3.4143,3.4118,3.4118,3.4118,3.4118,3.386,3.3224,3.3894,3.4177,3.3771,3.3684,3.3503,3.3229,3.2915,3.2861,3.3096,3.2807,3.3006,3.3738,3.3643,3.3557,3.3501,3.3501,3.3313,3.2996,3.3214,3.3309,3.3309,3.3229,3.3203,3.3203,3.3203,3.3203,3.3229,3.3282,3.3309,3.3309,3.3309,3.3309,3.3309,3.3309,3.3309,3.3309,3.3309,3.3309,3.3309,3.3309,3.3256,3.3176,3.3112,3.3005,3.287,3.2718,3.2676,3.2676,3.2676,3.2676,3.2648,3.2523,3.2523,3.2496,3.2425,3.2398,3.2398,3.2398,3.0783,2.9703,3.0335,2.8731,0.0,2.9166,2.9344,2.9894,3.1197,3.1374,3.1272,3.086,3.1211,0.0,3.086,3.1211,3.1724,3.2367,3.2398,3.237,3.233,3.1794,3.1306,3.0807,2.9718,2.9146,2.8969,2.8582,2.8726,2.9314,2.8948,2.9301,3.0074,2.9797,3.0006,3.0555,3.0869,3.0986,3.0986,3.0986,3.0986,3.0986,3.5959,3.5681,3.5425,3.5239,3.4868,3.4448,3.405,3.3975,3.3838,3.3346,3.324,3.3187,3.3187,3.3134,3.2792,3.2071,3.2848,3.3266,3.2969,3.2823,3.2769,3.2769,3.2226,3.2142,3.2594,3.2046,3.2086,3.2769,3.1806,3.1677,3.2351,3.2351,3.2351,3.2351,3.2765,3.3011,3.3118,3.3,3.3016,3.3123,3.3123,3.3123,3.3123,3.3256,3.3282,3.3282,3.3309,3.3282,3.3229,3.3256,3.3256,3.3229,3.3229,3.3229,3.3229,3.3229,3.3229,3.3203,3.3096,3.2951,3.2746,3.2453,3.2398,3.2398,3.2398,3.2398,3.2398,3.2398,3.2398,3.2398,3.2398,3.2398,3.2321,3.2136,3.0474,2.9419,3.0027,0.0,2.8238,3.0181,3.0571,3.1166,3.229,3.2398,3.2398,3.2398,3.2398,3.2398,3.2398,3.2398,3.2327,3.2201,3.2315,3.2231,3.1979,3.119,3.0673,3.0434,2.9139,2.8544,2.8602,2.8462,2.8477,2.8673,2.9091,2.9601,3.01,3.01,3.0477,3.0986,3.0986,3.0986,3.0986,3.0986,3.0986,3.0986,3.4471,3.4588,3.4594,3.3581,3.3489,3.3513,3.345,3.3424,3.3398,3.3293,3.2942,3.2711,3.2711,3.2355,3.1949,3.1534,3.1578,3.1506,3.1275,3.1246,3.1246,3.1246,3.113,3.113,3.1203,3.1101,3.113,3.1246,3.1071,3.1042,3.1159,3.1159,3.1159,3.1159,3.1246,3.1647,3.2293,3.2266,3.2641,3.3282,3.3282,3.3282,3.3282,3.3309,3.3229,3.315,3.3256,3.315,3.2978,3.3096,3.3058,3.2951,3.2951,3.2951,3.2951,3.2951,3.2951,3.2951,3.2924,3.2703,3.2453,3.2425,3.2398,3.2398,3.2398,3.2398,3.2398,3.2398,3.2398,3.2398,3.2398,3.2398,3.2028,3.0878,2.9175,2.8147,2.8651,0.0,2.8364,3.0181,3.1413,3.2167,3.2367,3.2398,3.2398,3.2398,3.2398,3.2398,3.2398,3.2398,3.2089,3.142,3.1936,3.1838,3.1043,3.0866,3.0162,2.8853,2.8597,2.8725,2.9162,2.8638,2.8922,2.98,2.9444,2.9601,3.01,3.01,3.0477,3.0986,3.0986,3.0986,3.0986,3.0986,3.0986,3.0986,3.4479,3.4387,3.4244,3.368,3.3419,3.3309,3.3309,3.3107,3.2915,3.2915,3.252,3.2145,3.1975,3.1764,3.1334,3.0585,3.048,3.0208,2.9704,3.0376,3.0793,3.0793,3.048,3.027,3.0151,3.0151,3.0362,3.0793,3.021,3.0163,3.057,3.057,3.0659,3.0852,3.1057,3.1477,3.199,3.1905,3.2005,3.2173,3.237,3.2425,3.2437,3.2312,3.2563,3.2935,3.2645,3.2715,3.2912,3.2978,3.2951,3.2897,3.2897,3.2897,3.2897,3.2897,3.2816,3.2746,3.2746,3.2578,3.2398,3.2398,3.2398,3.2398,3.2398,3.2398,3.2398,3.2398,3.2398,3.2398,3.2398,3.2398,3.1979,3.0706,2.9469,0.0,0.0,2.906,2.936,3.1243,3.2028,3.2398,3.2398,3.2398,3.2398,3.2398,3.2398,3.237,3.2302,3.2287,3.1921,3.1101,3.097,3.0704,3.0269,2.9811,2.9355,2.8988,2.8638,2.8733,2.9297,2.8695,2.8843,2.9653,2.9392,2.9601,3.0127,3.0464,3.0751,3.0986,3.0986,3.0986,3.0986,3.0986,3.0986,3.0986,3.4307,3.4153,3.4027,3.374,3.3375,3.3134,3.3134,3.2738,3.2437,3.2437,3.2048,3.1637,3.129,3.1145,3.0718,2.9716,2.9637,2.9355,2.8651,2.9594,3.0224,3.0224,2.9763,2.9467,2.93,2.9282,2.958,3.0224,2.9387,2.9293,2.9903,2.9903,3.004,3.0283,3.0615,3.0999,3.1407,3.1306,3.1204,3.1145,3.1407,3.1507,3.1492,3.1333,3.1736,3.233,3.1834,3.2061,3.2582,3.2609,3.2691,3.2773,3.2773,3.2773,3.2773,3.2773,3.2676,3.2551,3.2551,3.248,3.2398,3.2398,3.2398,3.2398,3.2398,3.2398,3.2398,3.2398,3.2398,3.2398,3.2398,3.2398,3.1979,3.0758,0.0,0.0,0.0,3.0078,3.0408,3.2194,3.2398,3.2398,3.2398,3.2398,3.2398,3.2398,3.2398,3.2342,3.2247,3.2247,3.1794,3.0793,3.0149,2.969,2.9487,2.8839,2.8714,2.9161,2.8647,2.8765,2.9457,2.8869,2.8922,2.9483,2.9483,2.9732,3.014,3.0751,3.0986,3.0986,3.0986,3.0986,3.0986,3.0986,3.0986,3.0986,3.2796,3.3347,3.374,3.2635,3.2546,3.2656,3.2656,3.2256,3.1964,3.1964,3.161,3.1219,3.0896,3.0447,2.9913,2.9226,2.9162,2.9004,2.8619,2.8716,2.8734,2.8734,2.8716,2.8683,2.8683,2.8683,2.8716,2.8734,2.8683,2.8651,2.8716,2.8716,2.8748,2.8766,2.8798,2.923,2.9948,2.9931,3.0315,3.0925,3.0955,3.0955,3.0955,3.0955,3.0911,3.0867,3.0969,3.1246,3.1623,3.1751,3.2076,3.2425,3.2425,3.2425,3.2425,3.2425,3.2425,3.2425,3.2425,3.2425,3.2398,3.2398,3.2398,3.2398,3.2398,3.2398,3.2398,3.2398,3.2398,3.2398,3.2398,3.2398,3.1967,3.0628,0.0,0.0,3.0412,3.0469,3.1,3.2256,3.2398,3.2398,3.2398,3.2398,3.2398,3.2398,3.2398,3.2398,3.2398,3.2398,3.1679,3.0133,2.9889,2.9393,2.8597,2.8546,2.8484,2.8476,2.8407,2.8974,3.0009,2.947,2.9523,3.0035,3.0035,3.0061,3.014,3.0751,3.0986,3.0986,3.0986,3.0986,3.0986,3.0986,3.0986,3.0986,3.2091,3.2248,3.2327,3.1615,3.1854,3.2188,3.2188,3.1794,3.1466,3.1248,3.0822,3.0371,2.9792,2.9588,2.9289,2.8812,2.878,2.8748,2.8619,2.8587,2.8587,2.8587,2.8587,2.8587,2.8587,2.8587,2.8587,2.8587,2.8587,2.8587,2.8587,2.8587,2.8716,2.8908,2.8908,2.9194,2.9682,2.9682,2.973,2.978,3.0009,3.0072,3.0013,2.9858,3.0117,3.0525,3.0165,3.0391,3.0881,3.0925,3.1072,3.1218,3.1218,3.1218,3.1305,3.1709,3.2104,3.2398,3.2398,3.2398,3.2398,3.2398,3.2398,3.2398,3.2398,3.2398,3.2398,3.2398,3.2398,3.2398,3.2398,3.2398,3.1994,3.0732,0.0,3.1431,3.0639,3.1226,3.1882,3.2336,3.2398,3.2398,3.2398,3.2398,3.2398,3.2398,3.2398,3.237,3.2274,3.1319,3.0451,2.9721,2.8826,2.8208,2.7875,2.7875,2.823,2.897,2.897,2.9549,3.0647,3.0072,3.0124,3.0647,3.0244,3.0296,3.0686,3.0895,3.0986,3.0986,3.0986,3.0986,3.0986,3.0986,3.0986,3.0986,3.1573,3.1281,3.1082,3.1028,3.1064,3.1194,3.1362,3.0951,3.0602,3.0584,3.0219,2.9665,2.8926,2.9004,2.883,2.8151,2.8425,2.8457,2.8118,2.8249,2.8425,2.8587,2.8587,2.8587,2.8587,2.8587,2.8587,2.8587,2.8587,2.8587,2.8587,2.8587,2.8716,2.894,2.894,2.9067,2.9289,2.9289,2.9162,2.8972,2.9194,2.9261,2.9202,2.9022,2.9355,2.9856,2.9376,2.9611,3.0208,3.0208,3.0329,3.0494,3.0494,3.0494,3.0584,3.1058,3.1465,3.1836,3.2048,3.212,3.216,3.2342,3.2398,3.2398,3.2398,3.2398,3.2398,3.2398,3.2398,3.2398,3.2398,3.2398,3.2117,3.1314,3.1852,3.2102,3.1283,3.1867,3.2398,3.2398,3.2398,3.2398,3.2398,3.2398,3.2398,3.2398,3.2398,3.2244,3.1908,3.036,2.9425,2.9268,2.8111,2.7581,2.7798,2.7581,2.8124,2.931,2.931,2.9912,3.0973,3.0581,3.062,3.096,3.0568,3.062,3.0986,3.0986,3.0986,3.0986,3.0986,3.0986,3.0986,3.0986,3.0986,3.0986,3.107,3.0453,3.0194,3.0867,3.0078,2.9582,3.0192,2.961,2.9338,2.9995,2.9803,2.9243,2.8384,2.8753,2.8527,2.7142,2.7987,2.8151,2.7074,2.751,2.802,2.8554,2.8587,2.8587,2.8587,2.8587,2.8587,2.8587,2.8587,2.8587,2.8587,2.8587,2.8587,2.8587,2.8587,2.8587,2.8587,2.8587,2.8587,2.8587,2.8587,2.8587,2.8587,2.8587,2.8587,2.8587,2.8587,2.8994,2.9473,2.9473,2.9919,3.0494,3.0494,3.0494,3.0494,3.0494,3.0494,3.0644,3.1306,3.148,3.1623,3.2259,3.2398,3.2398,3.2398,3.2398,3.2398,3.2398,3.2398,3.2398,3.2398,3.2398,3.2398,3.2398,3.2398,3.2398,3.2398,3.2398,3.2398,3.2398,3.2398,3.2398,3.2398,3.2398,3.2398,3.2398,3.2398,3.2033,3.1232,2.9659,2.8803,2.8803,2.7941,2.7798,2.8407,2.7824,2.8124,2.9323,2.931,2.9912,3.0986,3.0986,3.0986,3.0986,3.0986,3.0986,3.0986,3.0986,3.0986,3.0986,3.0986,3.0986,3.0986,3.0986,3.0986,3.0986,2.9316,2.8978,2.877,2.8697,2.8449,2.8455,2.9011,2.8424,2.8029,2.8387,2.8241,2.7947,2.743,2.753,2.7477,2.704,2.731,2.7343,2.704,2.7142,2.731,2.7477,2.8183,2.8587,2.8587,2.8587,2.8587,2.8587,2.8587,2.8587,2.8587,2.8587,2.8587,2.8587,2.8587,2.8587,2.8587,2.8587,2.8587,2.8587,2.8587,2.8587,2.8587,2.8587,2.8587,2.8587,2.8587,2.8716,2.8881,2.8881,2.9008,2.9166,2.9166,2.9453,2.9797,2.9797,3.0133,3.0539,3.0733,3.0792,3.1058,3.2132,3.2398,3.2398,3.2398,3.2398,3.2398,3.2398,3.2398,3.2398,3.2398,3.2398,3.2398,3.2398,3.2398,3.2398,3.2398,3.2398,3.2398,3.2398,3.2398,3.2398,3.2398,3.2398,3.2173,3.1607,3.1043,3.057,3.024,2.9314,2.8739,2.8578,2.7875,2.7798,2.8407,2.8203,2.8712,2.9839,2.947,2.9912,3.0973,3.0568,3.0607,3.0986,3.0986,3.0986,3.0986,3.0986,3.0986,3.0986,3.0986,3.0986,3.0986,3.0986,3.0986,3.0986,2.8231,2.7892,2.763,2.7404,2.7173,2.7143,2.7421,2.7121,2.6955,2.7249,2.7307,2.7129,2.6735,2.6871,2.6837,2.638,2.6346,2.6517,2.6973,2.6803,2.6769,2.7007,2.761,2.7987,2.7987,2.7987,2.7987,2.7987,2.8183,2.8281,2.8281,2.849,2.8587,2.8587,2.8587,2.8587,2.8587,2.8587,2.8587,2.8587,2.8587,2.8587,2.8587,2.8587,2.8587,2.8587,2.8587,2.8587,2.8587,2.8587,2.8587,2.8587,2.8587,2.8849,2.9139,2.9139,2.9421,2.9794,3.0056,3.0103,3.0345,3.1392,3.1665,3.1665,3.1665,3.1665,3.1665,3.1665,3.1665,3.1722,3.1992,3.2048,3.2104,3.237,3.2398,3.2398,3.2398,3.2398,3.2398,3.2398,3.2398,3.249,3.2767,3.2558,3.2086,3.1338,3.069,3.0056,2.9501,2.9176,2.8826,2.8485,2.8289,2.849,2.9065,2.8843,2.9209,3.01,2.9784,3.0098,3.0973,3.062,3.066,3.0986,3.0986,3.0986,3.0986,3.0986,3.0986,3.0986,3.0986,3.0986,3.0986,3.0986,3.0986,3.0986,2.7636,2.7186,2.678,2.6736,2.6217,2.5786,2.5635,2.5707,2.5921,2.6413,2.6624,2.6565,2.6049,2.6463,2.6339,2.531,2.5288,2.5721,2.679,2.6393,2.6324,2.6837,2.6837,2.6837,2.6837,2.6939,2.7007,2.7007,2.7477,2.7743,2.7809,2.8281,2.8554,2.8587,2.8587,2.8587,2.8587,2.8587,2.8587,2.8587,2.8587,2.8587,2.8587,2.8587,2.8587,2.8587,2.8587,2.8587,2.8587,2.8587,2.8587,2.8587,2.8587,2.8587,2.8587,2.8587,2.8587,2.8702,2.9282,2.9425,2.958,3.0178,3.0343,3.0359,3.0464,3.0494,3.0494,3.0494,3.0538,3.0732,3.1306,3.1496,3.1771,3.2308,3.2401,3.2413,3.2419,3.2345,3.233,3.2293,3.2308,3.2568,3.3242,3.2675,3.2015,3.1385,3.0918,3.0204,2.9109,2.9211,2.9061,2.8512,2.9022,2.9549,3.0087,2.9614,2.964,3.0179,3.0074,3.0385,3.0986,3.0934,3.0934,3.0986,3.0986,3.0986,3.0986,3.0986,3.0986,3.0986,3.0986,3.0986,3.0986,3.0986,3.0986,3.0986,2.6982,2.6881,2.6664,2.6172,2.5592,2.5097,2.4852,2.4384,2.4184,2.4525,2.4869,2.4849,2.4381,2.4752,2.4927,2.4687,2.5071,2.5406,2.5652,2.5558,2.5558,2.5652,2.5652,2.5652,2.5652,2.6552,2.7007,2.7007,2.7108,2.7377,2.7809,2.7921,2.8183,2.8587,2.8587,2.8587,2.8587,2.8587,2.8587,2.8587,2.8587,2.8587,2.8587,2.8587,2.8587,2.8587,2.8587,2.8587,2.8587,2.8587,2.8587,2.8587,2.8587,2.8587,2.8587,2.8587,2.8587,2.8619,2.8766,2.8798,2.883,2.899,2.9008,2.9261,3.0283,3.0494,3.0494,3.0494,3.0886,3.1105,3.0791,3.1531,3.2243,3.2448,3.2427,3.2415,3.2475,3.204,3.1688,3.1617,3.1615,3.1865,3.248,3.1843,3.1274,3.0945,3.0256,2.9669,2.9278,2.9272,2.9258,2.9127,2.9244,2.9549,3.0087,2.997,3.0228,3.079,2.9889,3.0006,3.096,3.0516,3.0555,3.0986,3.0986,3.0986,3.0986,3.0986,3.0986,3.0986,3.0986,3.0986,3.0986,3.0986,3.0986,3.0986,2.615,2.6177,2.5947,2.5049,2.4582,2.4168,2.3642,2.3449,2.3396,2.3502,2.3899,2.4061,2.383,2.4001,2.4254,2.446,2.4771,2.5035,2.5288,2.5312,2.5312,2.5312,2.5312,2.5312,2.5312,2.5896,2.6173,2.6173,2.6496,2.6769,2.704,2.7543,2.7954,2.8216,2.849,2.8587,2.8587,2.8587,2.8587,2.8587,2.8587,2.8587,2.8587,2.8587,2.8587,2.8587,2.8587,2.8587,2.8587,2.8587,2.8587,2.8587,2.8587,2.8587,2.8587,2.8587,2.8587,2.8587,2.8587,2.8587,2.8587,2.8587,2.8587,2.8766,2.9435,2.9816,3.0027,3.0027,3.0488,3.0922,3.0902,3.1449,3.1909,3.1941,3.2199,3.2169,3.1634,3.1751,3.1776,3.1437,3.1666,3.191,3.2085,3.1954,3.1544,3.0806,3.0548,3.0089,2.9442,2.9869,2.9967,2.9693,2.9954,3.0241,3.0542,3.0231,3.0388,3.0973,3.0422,3.0411,3.0973,3.0673,3.0699,3.0986,3.0986,3.0986,3.0986,3.0986,3.0986,3.0986,3.0986,3.0986,3.0986,3.0986,3.0986,3.0986,2.5342,2.5356,2.5106,2.3975,2.3666,2.3322,2.2531,2.2797,2.3026,2.2879,2.3336,2.3637,2.3541,2.3613,2.383,2.4218,2.4388,2.4676,2.5143,2.5264,2.5312,2.5312,2.5312,2.5312,2.5312,2.5312,2.5312,2.5312,2.5804,2.6094,2.6233,2.7108,2.7577,2.7676,2.8118,2.8327,2.8327,2.8327,2.8392,2.8457,2.8457,2.8522,2.8587,2.8587,2.8587,2.8587,2.8587,2.8587,2.8587,2.8587,2.8587,2.8587,2.8587,2.8587,2.8587,2.8587,2.8587,2.8587,2.8587,2.8587,2.8587,2.8587,2.8587,2.8627,2.8722,2.9149,2.9515,2.9515,3.0052,3.0685,3.1062,3.1305,3.1472,3.1527,3.1977,3.1951,3.0949,3.1565,3.1933,3.1435,3.1872,3.2127,3.1875,3.2258,3.2032,3.0876,3.1106,3.085,2.9829,3.0551,3.0764,3.0257,3.0738,3.0986,3.0986,3.0516,3.0516,3.0986,3.0986,3.0986,3.0986,3.0986,3.0986,3.0986,3.0986,3.0986,3.0986,3.0986,3.0986,3.0986,3.0986,3.0986,3.0986,3.0986,3.0986,3.0986,2.4839,2.4797,2.4584,2.3771,2.3607,2.3322,2.2531,2.245,2.2468,2.2337,2.2794,2.2939,2.245,2.2811,2.3144,2.3216,2.4001,2.452,2.4592,2.5059,2.5312,2.5312,2.5312,2.5312,2.5312,2.5312,2.5312,2.5312,2.5382,2.5699,2.6198,2.6358,2.6667,2.7108,2.7175,2.7209,2.7209,2.7209,2.7477,2.7921,2.7921,2.8183,2.8587,2.8587,2.8587,2.8587,2.8587,2.8587,2.8587,2.8587,2.8587,2.8587,2.8587,2.8587,2.8587,2.8587,2.8587,2.8587,2.8587,2.8587,2.8587,2.8587,2.8587,2.8736,2.9271,2.9448,2.9515,2.9515,3.0391,3.105,3.0589,3.1377,3.2112,3.2162,3.2262,3.2252,3.2079,3.1711,3.1403,3.1323,3.17,3.1879,3.1646,3.169,3.1593,3.1241,3.127,3.1169,3.0802,3.0945,3.0947,3.0869,3.0947,3.0986,3.0986,3.0908,3.0908,3.0986,3.0986,3.0986,3.0986,3.0986,3.0986,3.0986,3.0986,3.0986,3.0986,3.0986,3.0986,3.0986,3.0986,3.0986,3.0986,3.0986,3.0986,3.0986,2.3888,2.3875,2.3715,2.3053,2.2854,2.2684,2.2328,2.2278,2.2278,2.2228,2.2402,2.245,2.2221,2.2402,2.2654,2.2955,2.34,2.3785,2.4085,2.4314,2.4446,2.4446,2.4711,2.4867,2.4867,2.5155,2.5312,2.5312,2.5312,2.5453,2.5699,2.6047,2.6336,2.6564,2.6871,2.7007,2.7007,2.7007,2.7142,2.7377,2.7676,2.7954,2.8183,2.849,2.8587,2.8587,2.8587,2.8587,2.8587,2.8587,2.8587,2.8587,2.8587,2.8587,2.8587,2.8587,2.8587,2.8587,2.8587,2.8831,2.9122,2.9122,2.9347,2.9672,2.9944,3.0256,3.0486,3.0486,3.1192,3.1707,3.1436,3.1834,3.2101,3.1792,3.2021,3.1992,3.1316,3.155,3.1817,3.1784,3.1765,3.172,3.1609,3.141,3.1211,3.1123,3.1123,3.1099,3.0986,3.0986,3.0986,3.0986,3.0986,3.0986,3.0986,3.0986,3.0986,3.0986,3.0986,3.0986,3.0986,3.0986,3.0986,3.0986,3.0986,3.0986,3.0986,3.0986,3.0986,3.0986,3.0986,3.0986,3.0986,3.0986,3.0986,3.0986]}]]